ECMWFFLT1_500_spd_057.txt.gz
Wind_Speed
19 16 16 20 25 23 18 16 15 13 13 15 18 20 20 21 21 21 21 21 20 19 19 18 17 15 15 15 15 14 13 12 12 13 13 11 10 9 9 9 8 8 8 8 7 7 6 7 6 6 7 8 8 8 7 6 5 6 7 8 8 7 7
23 17 16 19 22 20 18 19 17 14 13 15 18 21 21 21 22 21 21 21 20 20 20 19 18 17 16 16 15 14 13 12 11 12 12 11 10 10 10 9 9 9 9 9 9 9 9 9 8 8 8 9 10 9 8 7 6 6 6 8 9 9 9
18 15 13 13 16 18 19 20 19 15 13 14 18 21 21 22 23 22 22 22 21 20 20 19 18 18 17 17 15 14 13 12 11 11 11 11 11 10 9 9 9 9 9 10 10 10 11 11 11 11 10 10 11 11 10 9 8 7 6 7 8 9 10
18 17 15 15 18 20 20 21 20 17 13 14 16 21 23 24 25 24 22 22 20 19 18 18 17 17 17 16 15 14 13 12 11 11 11 11 11 10 9 9 9 9 9 9 10 10 11 12 12 13 12 12 12 13 12 11 9 9 8 7 8 9 10
22 20 19 17 18 20 20 22 21 17 14 14 16 21 25 26 25 24 22 20 18 17 18 17 17 16 16 15 14 13 13 12 11 11 10 10 10 9 9 10 10 9 9 8 8 9 10 11 12 13 13 13 13 14 14 13 12 11 10 9 8 9 9
26 24 18 14 16 18 19 21 20 17 16 16 17 21 24 25 24 23 22 20 18 17 16 15 14 14 14 14 14 13 12 12 11 11 10 10 10 9 10 11 11 10 10 9 9 9 10 11 12 13 14 14 14 13 14 15 14 13 12 11 10 10 10
27 21 15 14 16 17 18 20 18 17 17 18 18 20 22 24 23 23 21 20 18 17 15 14 13 13 13 14 14 13 13 12 11 11 11 11 10 10 11 11 11 11 11 11 11 11 12 12 13 14 14 14 15 14 14 15 15 15 14 13 13 12 11
25 21 17 16 17 18 19 18 18 18 18 17 16 15 18 22 23 23 21 19 18 16 15 14 14 13 14 14 14 14 14 13 13 13 12 12 11 11 12 11 11 11 11 12 13 13 13 14 14 14 14 14 15 15 15 15 15 16 15 15 14 14 13
25 24 21 18 19 20 20 19 19 19 18 16 13 12 15 19 21 22 21 20 18 16 15 15 15 15 15 14 14 14 14 14 13 13 12 12 12 12 12 11 11 12 12 13 14 13 13 13 13 14 14 14 14 14 15 16 16 16 16 16 15 15 14
26 26 23 20 21 22 22 22 22 21 18 15 12 11 12 14 17 19 19 18 17 16 16 15 15 15 15 15 15 15 14 13 13 13 12 12 13 13 12 12 11 11 12 13 13 13 13 12 12 13 13 13 13 13 14 15 16 16 17 17 17 16 15
25 25 24 23 21 21 24 25 24 21 17 13 12 11 11 12 13 14 16 16 16 16 16 15 15 15 15 16 16 15 14 14 13 13 13 13 14 14 12 12 11 11 11 11 12 12 12 12 12 12 12 13 13 13 13 13 14 15 16 17 17 16 16
23 24 25 24 20 19 23 25 23 20 16 14 12 12 12 12 11 10 12 13 14 14 14 14 15 15 15 16 15 15 14 14 14 13 14 14 14 14 13 12 11 11 11 11 11 12 12 12 12 12 12 11 11 12 12 13 13 14 15 16 17 17 16
22 22 23 21 18 18 22 23 22 19 17 15 15 14 13 12 11 10 10 10 10 11 11 11 12 13 14 15 14 14 14 13 14 14 14 14 14 14 13 13 12 12 11 11 11 12 12 12 13 12 11 10 9 10 11 11 12 13 14 15 15 16 16
22 22 22 20 17 17 20 22 20 19 17 16 16 16 14 13 13 12 10 8 7 7 7 8 9 10 11 12 12 13 13 13 14 14 15 15 15 15 14 14 14 13 12 12 12 12 13 13 13 12 11 10 9 9 9 10 11 11 12 13 14 14 15
23 22 24 23 18 13 14 18 19 17 16 16 17 17 15 14 15 13 11 9 8 7 7 7 8 8 9 10 10 11 12 13 14 14 16 16 16 16 16 16 15 15 14 13 13 13 13 12 12 11 10 10 9 10 9 9 9 10 11 12 12 13 12
25 24 25 24 20 14 11 14 17 17 18 19 18 17 15 15 15 14 12 11 10 9 9 9 8 8 8 8 9 11 12 13 14 15 16 17 17 18 18 18 17 16 15 14 14 13 12 11 10 10 11 10 9 9 9 9 9 9 10 10 10 11 10
25 25 24 23 21 17 14 13 16 17 19 21 20 17 16 16 16 16 15 14 13 12 12 11 10 9 9 9 10 11 12 14 15 16 17 17 18 20 20 20 20 18 16 14 14 14 13 11 10 10 11 10 9 9 9 9 9 9 9 9 9 9 9
25 24 24 25 23 21 18 16 16 17 19 22 21 18 17 17 16 16 15 14 14 15 14 13 12 11 10 10 10 11 11 13 14 16 16 17 18 20 21 22 22 20 16 15 15 15 14 12 10 10 11 11 9 9 9 9 8 8 8 9 9 9 8
26 25 25 26 26 24 23 20 19 19 21 22 21 19 18 18 17 16 16 15 16 15 15 14 13 13 11 10 10 11 11 12 14 15 16 16 17 19 21 22 21 19 17 16 16 15 14 13 12 11 11 11 10 9 9 8 8 8 9 9 10 10 9
23 26 28 30 30 28 27 25 24 24 23 22 21 20 20 20 20 19 19 19 18 17 15 15 14 13 13 13 13 13 13 13 13 14 16 16 17 18 19 19 18 18 18 17 16 15 15 14 14 12 12 11 10 9 8 8 8 9 10 10 12 12 12
21 25 28 30 30 29 29 28 28 26 24 23 23 23 23 22 22 22 22 21 20 18 17 17 16 15 15 15 15 15 16 16 15 14 15 16 18 17 17 17 17 17 17 17 16 16 16 16 14 13 12 11 11 10 9 9 10 10 11 12 14 16 16
23 25 26 28 28 29 30 29 27 25 23 23 23 23 23 23 23 23 23 22 22 21 20 19 18 17 16 17 18 18 18 18 18 17 16 16 18 18 17 17 17 17 17 17 17 17 17 16 14 13 13 13 12 11 10 11 12 12 13 14 16 18 19
25 26 26 28 27 26 28 29 27 25 25 25 25 24 24 24 23 22 23 23 23 23 22 21 20 19 18 19 20 20 19 20 20 20 18 17 17 19 20 19 18 18 18 17 17 17 17 16 15 15 15 14 14 13 12 13 14 14 15 16 18 20 21
27 28 28 28 26 24 25 26 25 25 26 26 26 25 25 25 24 23 24 24 25 25 25 24 23 22 22 21 22 22 22 21 21 22 22 20 17 18 21 21 21 20 20 18 16 16 16 17 16 16 15 15 14 14 14 15 15 16 17 18 20 22 23
30 30 29 27 26 24 23 22 21 21 22 23 24 24 25 26 26 26 26 26 28 28 28 27 27 27 26 26 25 25 24 23 23 23 24 23 19 17 19 21 22 22 21 19 16 15 15 16 16 16 16 15 15 15 15 15 16 17 18 20 21 21 22
32 31 29 27 26 24 21 20 19 19 20 22 23 24 26 27 28 28 29 30 31 30 29 29 30 31 30 29 28 27 26 25 24 24 24 24 20 16 16 19 21 22 21 19 17 16 15 16 15 15 16 16 16 16 16 17 17 19 19 20 20 20 21
34 32 30 29 27 24 22 21 19 19 19 20 21 23 26 27 27 28 30 31 32 31 31 32 33 33 32 31 31 30 29 27 26 25 26 26 23 18 17 17 19 21 21 20 18 17 17 17 16 16 17 17 17 17 18 18 19 19 20 21 21 22 23
35 35 33 31 29 27 25 23 21 20 20 19 19 21 23 24 25 26 27 28 29 30 31 32 33 33 32 32 32 33 32 30 28 28 28 27 25 22 20 19 18 19 20 20 19 18 18 17 17 17 17 18 18 19 19 19 20 21 22 23 24 24 25
36 37 37 35 33 31 29 27 26 24 22 21 20 20 21 23 23 24 25 25 26 27 28 29 30 30 30 31 32 33 34 33 31 30 29 28 27 26 24 23 21 20 20 20 19 19 18 18 17 17 18 19 20 20 21 22 23 24 25 26 26 26 27
35 38 38 37 36 35 33 31 29 27 25 25 23 21 21 22 23 23 24 23 23 23 24 24 25 25 26 28 30 32 33 34 33 33 31 30 29 28 28 27 25 23 22 22 20 20 19 19 19 19 20 21 22 23 24 25 26 27 27 28 28 29 30
35 37 39 39 38 37 36 34 31 29 28 27 26 24 23 23 24 24 24 23 23 22 22 21 21 21 22 25 28 30 31 33 34 34 33 33 31 31 30 30 29 27 26 25 24 23 22 22 22 23 23 24 25 26 27 28 30 30 30 30 30 32 33
36 36 38 40 39 38 38 37 34 31 30 28 27 27 26 25 25 25 24 24 24 24 23 22 21 21 21 23 26 28 28 30 32 33 33 33 33 32 32 32 31 30 29 28 28 27 27 26 26 26 27 28 29 30 32 33 34 34 33 33 34 35 35
36 36 38 40 40 40 39 39 36 34 31 30 29 28 27 27 27 26 26 26 27 27 26 25 24 23 23 23 25 26 27 27 29 31 32 33 33 33 33 33 33 32 31 30 29 30 30 30 30 30 31 32 33 34 35 36 36 37 37 39 39 38 39
38 38 38 40 41 41 41 40 38 35 33 32 31 30 29 29 28 27 27 28 28 28 28 27 27 26 26 25 26 26 27 27 28 29 31 32 32 33 33 33 33 34 33 32 31 31 32 32 33 34 35 35 36 36 37 38 39 40 41 42 43 43 43
42 41 40 40 41 42 42 41 38 36 35 34 33 32 31 30 30 29 28 29 30 29 29 29 29 29 28 27 27 27 28 28 28 28 30 31 32 33 34 34 35 35 35 34 34 35 35 35 37 37 37 37 38 38 39 41 42 43 44 44 45 46 46
44 44 43 42 41 42 43 42 40 37 36 35 35 35 34 33 32 31 30 30 30 30 31 31 30 30 30 29 29 29 29 30 30 29 30 32 33 34 35 36 37 37 37 38 38 39 39 39 40 41 41 40 40 40 41 42 43 44 46 46 47 47 48
45 46 45 43 43 43 43 43 42 39 37 36 36 36 35 35 34 33 32 32 32 31 31 31 31 32 31 31 31 31 31 31 31 31 32 33 34 35 36 38 39 39 40 40 41 41 41 42 42 43 43 43 43 43 43 44 45 46 47 48 49 50 51
46 46 46 44 44 43 43 43 43 42 39 38 38 37 37 36 36 35 34 33 33 32 32 32 32 32 32 32 32 32 32 32 33 32 33 33 34 35 37 38 40 41 41 42 42 42 42 42 43 43 44 45 45 45 46 46 47 48 48 50 51 53 54

ECMWFFLT1_500_spd_060.txt.gz
Wind_Speed
17 17 14 13 14 13 12 14 13 11 8 6 7 8 10 13 17 19 18 18 19 18 18 19 21 21 20 20 19 18 17 16 15 15 15 13 12 11 10 8 7 7 6 5 5 4 4 4 4 4 4 4 4 4 5 5 5 6 7 8 8 9 9
19 19 16 16 16 14 15 16 15 13 10 8 8 9 9 11 15 18 18 19 20 19 20 21 22 22 22 21 21 20 19 18 17 16 15 13 12 12 11 10 9 8 7 6 6 6 6 6 5 6 6 6 6 6 6 7 6 6 6 7 8 9 9
18 18 17 17 17 15 15 14 13 13 12 10 10 10 10 10 14 18 19 19 20 20 20 21 22 22 23 22 21 21 21 20 19 17 16 15 14 13 12 11 10 9 8 8 7 7 7 7 7 7 8 8 8 8 8 8 8 8 7 7 8 8 9
18 17 16 17 17 15 14 12 12 13 13 12 12 12 12 12 14 17 19 19 19 20 20 20 21 22 22 22 22 21 21 20 19 18 18 17 15 13 12 11 10 10 9 9 8 8 8 8 8 8 9 9 9 9 9 10 10 10 9 8 8 9 9
19 18 18 19 18 16 14 13 11 13 15 14 13 13 12 12 13 16 18 18 18 19 20 21 21 22 21 21 21 21 21 21 20 20 19 17 15 13 12 12 11 10 10 9 8 8 8 8 8 9 9 9 10 10 10 10 11 11 11 10 10 10 10
19 20 22 23 20 16 14 14 12 14 16 17 15 14 11 11 12 15 17 18 18 19 19 19 19 19 19 19 20 20 20 20 20 19 17 16 15 14 14 13 12 11 10 9 8 8 8 8 9 9 9 9 10 10 10 10 11 12 13 13 12 11 11
19 21 25 24 20 16 14 15 14 16 19 20 19 16 12 11 13 15 17 18 18 18 18 17 17 17 17 18 18 18 19 19 19 18 17 16 15 15 15 14 13 12 11 9 8 8 8 8 9 9 9 10 11 11 11 11 11 12 13 13 13 13 12
20 24 27 25 20 17 16 17 16 18 22 23 19 15 12 12 13 15 17 18 18 17 17 17 18 19 19 19 19 19 19 19 19 19 18 17 17 16 15 14 13 12 10 9 9 8 8 9 9 9 10 10 11 12 12 12 12 12 12 12 13 13 13
22 24 27 24 20 19 18 18 19 22 25 23 18 14 12 13 14 15 18 19 19 18 17 18 19 20 21 21 21 21 21 20 19 19 18 17 17 17 16 14 13 12 10 10 9 8 8 9 9 9 10 11 11 12 12 13 13 13 13 12 12 12 12
23 25 26 23 21 21 20 20 21 24 24 21 17 13 12 12 13 16 18 19 19 19 19 18 18 19 20 20 21 21 20 19 19 18 17 16 16 16 16 15 14 12 11 9 8 8 8 8 8 9 10 11 11 12 12 13 13 13 13 12 11 11 11
23 25 26 26 25 24 23 23 23 23 22 19 16 13 12 12 12 14 16 19 20 20 19 18 17 17 18 19 19 19 18 18 18 17 16 16 16 16 16 15 14 12 10 9 8 8 8 8 8 9 10 11 11 12 12 12 12 13 13 12 11 11 10
21 23 25 27 28 27 26 25 24 23 20 18 16 15 14 13 12 13 15 19 20 20 20 19 17 17 16 17 17 17 18 18 18 17 17 17 16 16 16 15 13 11 10 9 9 9 9 9 9 10 11 11 11 11 12 12 12 12 12 12 11 11 10
19 21 23 26 28 28 26 24 24 23 21 18 17 17 16 14 13 13 14 17 19 20 20 19 18 17 17 16 16 17 17 17 18 19 19 18 17 16 15 14 13 12 11 10 10 10 9 10 10 11 11 11 11 11 11 11 11 11 11 11 11 11 10
17 20 21 24 27 27 25 24 24 24 23 21 20 19 18 16 15 14 13 15 17 18 19 18 18 18 18 18 17 17 17 18 19 19 19 19 17 16 15 14 13 12 12 11 11 11 11 11 11 11 10 10 11 10 10 10 11 11 11 10 10 10 9
15 17 19 22 24 25 25 25 26 26 24 23 22 21 20 17 16 15 14 13 15 17 18 18 19 19 18 18 18 19 19 19 19 18 18 17 16 15 14 14 13 13 13 13 12 12 12 12 11 10 10 11 10 9 9 10 10 10 10 10 9 8 7
14 17 18 20 22 23 24 25 25 25 25 26 25 23 21 18 16 15 13 12 13 15 16 16 16 16 17 17 18 19 20 19 19 18 17 16 16 15 15 15 15 15 14 14 14 13 13 12 11 11 11 11 10 9 9 10 10 9 9 8 8 6 5
15 18 18 18 19 21 22 23 24 26 27 27 25 24 21 19 17 16 14 14 13 13 13 13 13 13 14 15 16 17 17 17 17 17 17 17 17 17 17 17 17 17 17 16 15 14 13 12 12 12 12 12 10 9 10 10 9 8 8 7 6 5 5
13 16 17 16 17 19 21 22 25 27 27 26 24 23 23 22 20 17 15 14 13 13 12 12 11 12 12 13 13 12 12 13 14 14 15 15 16 17 18 19 19 19 19 17 16 15 14 13 12 12 13 12 11 10 10 10 9 8 8 7 7 7 6
13 14 16 17 18 19 21 22 24 26 26 24 22 22 22 22 20 19 17 16 16 15 14 13 12 12 13 12 11 10 10 11 10 11 12 13 15 17 18 18 19 19 19 18 18 17 15 14 13 13 13 13 11 11 11 10 9 9 9 9 8 8 7
15 17 18 19 19 20 21 23 25 26 26 26 25 23 23 22 21 21 21 21 20 18 17 15 14 14 15 14 12 11 11 10 9 9 10 11 13 15 16 16 17 18 18 19 19 18 16 15 15 14 13 13 12 11 10 10 10 10 11 11 10 9 8
18 18 18 18 19 20 22 24 28 29 29 29 28 27 26 24 23 24 24 23 22 21 19 18 17 17 16 15 13 12 12 11 10 10 10 11 12 13 13 14 15 16 17 19 20 19 18 17 16 15 14 13 12 11 11 11 11 11 11 11 11 9 8
20 18 18 18 18 18 20 23 27 30 30 30 29 29 28 27 27 27 26 25 24 22 21 20 19 18 17 16 14 14 13 13 12 11 11 11 11 11 11 13 14 15 17 19 20 20 19 18 16 15 15 14 13 12 12 12 12 12 12 12 12 10 9
23 22 20 19 17 16 16 18 19 22 25 27 27 27 27 28 28 28 27 26 25 24 22 21 19 18 17 16 15 15 16 16 15 14 14 13 12 11 11 13 15 17 18 19 20 20 19 18 17 17 17 17 16 14 14 14 14 13 13 13 13 12 11
26 24 23 21 18 17 16 17 17 17 19 22 23 25 25 26 26 26 27 26 25 25 23 21 20 19 18 17 16 17 18 19 19 18 17 16 15 14 13 13 15 18 20 20 20 20 20 20 20 20 19 18 17 16 16 16 15 14 14 14 14 14 14
28 27 26 23 20 19 18 17 17 18 19 19 20 22 24 24 25 25 26 26 26 26 25 23 21 21 20 20 20 20 20 21 21 21 20 18 17 17 17 16 15 17 20 21 21 21 22 23 23 21 20 19 18 18 17 17 17 16 15 15 16 16 17
29 28 26 23 22 21 19 18 18 18 19 19 19 20 21 22 23 24 24 25 26 26 26 25 26 26 26 26 26 24 23 23 23 24 23 21 21 20 19 18 16 15 17 20 22 23 24 24 23 22 21 20 19 19 18 18 19 19 18 18 19 20 22
29 27 26 24 23 22 20 18 18 19 20 20 19 20 20 21 22 23 24 24 24 25 26 27 29 29 29 28 28 27 26 25 25 26 25 25 24 23 21 20 18 16 15 17 20 22 23 24 24 22 21 21 20 19 20 20 21 21 20 21 22 23 25
32 29 27 26 26 25 23 21 20 20 20 20 21 22 22 23 24 24 25 25 25 26 27 28 30 30 30 30 29 28 28 27 26 27 28 28 27 26 25 23 21 18 16 16 17 19 21 23 24 24 23 22 21 21 21 22 23 23 23 23 24 25 25
35 33 30 29 29 29 26 24 23 21 21 21 22 23 25 26 27 27 28 28 28 28 29 30 31 31 31 31 31 30 30 30 29 29 29 30 30 29 28 27 25 21 19 18 17 17 20 22 24 25 24 23 22 22 23 24 25 25 25 25 25 24 24
37 35 33 32 32 31 30 28 26 24 23 22 22 23 24 26 27 28 28 28 28 29 29 30 31 32 32 32 32 32 32 33 33 32 32 32 32 32 31 31 29 25 22 21 20 19 19 22 24 24 24 24 24 24 25 26 27 26 25 25 25 24 24
40 38 37 35 34 34 32 30 28 27 25 23 22 22 22 23 25 25 26 27 28 29 30 31 31 32 32 32 33 33 34 34 35 36 35 35 35 34 33 33 32 30 26 24 23 22 21 22 23 24 24 24 24 25 26 27 26 26 25 25 26 27 28
40 39 39 39 37 36 36 34 32 30 28 26 25 23 22 22 23 23 24 26 27 28 29 31 31 31 32 31 31 31 32 33 34 35 36 37 37 36 35 35 35 34 31 28 26 25 25 25 24 24 24 24 25 26 27 26 25 26 26 27 28 30 31
37 37 38 40 39 38 38 38 37 35 32 30 28 26 24 23 23 23 24 24 25 26 27 29 30 30 30 30 29 29 29 30 31 34 36 37 37 37 37 36 36 36 35 32 29 28 28 28 28 28 28 28 28 29 29 28 28 29 30 31 32 33 34
37 37 38 39 39 38 39 39 39 38 36 34 33 30 27 25 25 25 25 25 25 25 26 27 28 29 29 28 27 27 27 27 29 31 33 35 36 37 37 37 37 37 36 34 32 31 30 31 32 32 32 33 33 33 33 32 33 33 34 35 36 37 38
41 39 37 36 36 36 37 38 38 37 37 36 35 33 30 27 27 27 27 27 27 26 26 27 27 28 29 28 27 27 26 26 27 28 29 31 33 35 35 36 37 37 37 36 35 33 33 33 34 35 35 36 36 37 37 37 37 37 37 38 39 39 40
41 39 37 37 36 34 36 38 38 38 37 37 36 34 32 29 28 28 28 28 28 28 27 28 28 29 29 29 29 28 27 27 26 27 27 28 30 32 33 34 35 36 37 37 36 35 34 35 35 36 36 37 38 38 39 39 39 39 40 40 41 41 42
43 40 38 39 39 37 36 38 39 40 39 38 36 35 33 31 30 29 29 29 29 29 29 29 29 29 29 29 29 29 29 29 29 29 29 29 29 30 31 33 34 35 36 36 37 36 36 36 37 38 38 39 39 40 41 41 41 42 42 43 44 44 45
47 45 41 40 41 40 38 39 40 40 40 40 38 36 35 33 32 31 30 30 30 30 30 30 30 30 29 29 29 29 30 30 31 31 31 31 31 31 32 33 34 36 36 37 37 38 38 38 39 40 41 42 42 42 43 44 44 44 45 45 46 46 47

ECMWFFLT1_500_spd_063.txt.gz
Wind_Speed
15 19 20 20 19 17 15 13 11 11 10 8 7 9 12 15 17 18 19 20 20 20 21 21 21 20 20 20 20 19 18 18 19 19 18 17 16 15 14 14 13 13 12 12 10 9 8 7 6 5 4 3 2 2 3 3 4 5 7 8 10 11 11
17 20 20 21 20 18 17 15 12 11 10 8 8 9 10 14 17 18 19 20 21 21 22 22 22 21 21 22 22 21 20 20 21 20 19 18 17 16 15 14 14 13 12 11 10 10 9 9 8 7 6 6 5 5 4 4 4 4 5 6 8 9 9
20 21 21 22 21 19 18 16 14 12 10 10 10 9 9 13 17 18 19 20 21 21 22 22 23 23 23 23 23 22 22 22 22 21 20 19 18 17 16 15 14 13 12 11 11 11 10 9 9 8 7 7 7 7 6 6 6 6 6 6 7 7 8
21 21 23 24 22 21 20 18 16 13 10 10 11 11 10 12 16 18 19 20 20 20 21 22 23 24 24 23 23 22 23 23 23 22 21 20 19 18 17 16 15 14 13 12 12 11 10 9 9 8 7 7 7 7 7 7 7 7 7 7 7 7 8
20 22 23 24 23 23 22 20 18 14 10 9 11 12 11 11 14 17 18 19 19 20 21 23 24 25 24 23 23 23 24 24 24 23 22 21 20 19 17 16 15 15 14 13 12 12 11 10 9 8 8 7 7 7 8 8 8 8 8 8 8 8 8
17 20 22 23 23 24 24 21 18 15 11 9 11 13 12 11 13 17 18 18 18 19 21 23 24 24 24 23 23 24 24 25 25 24 23 22 21 19 18 18 16 16 15 14 13 12 11 10 10 9 8 8 8 8 8 8 8 8 8 8 9 9 9
17 18 20 21 22 24 25 22 19 16 13 12 13 15 15 13 14 18 19 18 18 19 20 21 21 22 22 22 23 23 24 25 25 24 24 23 21 20 19 18 17 17 16 15 14 13 12 11 10 9 9 8 8 8 8 8 8 8 8 8 9 9 9
20 19 20 19 19 23 26 24 22 18 15 14 15 16 15 13 15 18 20 19 19 19 19 19 20 20 21 21 22 22 24 25 25 25 24 23 21 21 20 19 18 18 17 16 15 14 13 12 10 9 9 9 8 8 8 9 9 9 9 8 8 9 9
22 22 22 20 18 23 27 25 22 19 17 16 16 16 15 14 15 18 21 21 20 19 18 19 20 21 21 21 21 22 24 25 25 25 24 22 21 21 21 20 19 19 18 17 16 14 13 12 11 10 10 9 9 9 9 10 10 10 10 9 9 9 9
25 25 24 22 21 25 28 26 23 22 20 18 17 17 16 15 17 19 22 22 20 19 20 21 21 23 23 23 23 24 24 24 24 24 22 22 22 22 21 20 20 18 18 17 16 14 14 13 12 11 10 11 11 11 11 10 10 10 10 10 9 9 9
27 27 27 25 25 29 31 28 27 26 23 20 19 18 17 16 18 20 21 21 21 21 22 21 22 22 23 24 25 25 25 25 24 23 22 22 22 22 21 21 20 18 18 17 15 15 14 13 12 12 12 13 12 12 11 10 10 10 10 10 10 10 10
28 28 30 30 30 34 34 31 29 27 24 22 20 19 18 18 18 19 20 22 22 23 22 22 22 22 22 23 24 24 24 24 24 24 23 23 23 23 22 21 20 19 18 17 16 15 14 13 13 13 14 13 12 11 11 10 10 10 10 10 10 10 10
27 30 34 35 36 37 37 34 31 27 24 22 21 20 20 20 19 19 20 22 23 23 23 22 22 21 22 22 22 22 23 23 24 25 25 25 24 23 22 21 21 20 19 18 17 16 15 14 14 14 14 13 11 11 10 9 10 10 9 9 10 10 11
26 31 36 39 40 41 39 36 32 27 25 24 23 23 23 22 20 18 20 22 23 23 23 23 22 22 22 22 22 22 22 23 25 25 26 26 25 24 23 22 22 22 21 19 18 17 16 16 15 15 14 12 11 10 9 9 9 9 9 9 10 10 11
25 30 35 38 40 40 40 36 31 27 26 25 25 25 25 23 21 19 19 21 23 23 24 24 23 23 23 23 23 23 24 25 26 26 26 25 24 23 23 23 24 23 22 20 19 19 18 17 16 14 13 12 12 11 9 9 9 9 9 9 9 9 10
24 27 31 33 35 38 38 34 30 28 28 27 26 27 27 25 22 19 18 18 20 22 23 24 24 24 23 23 23 25 26 26 26 26 25 24 24 24 24 25 24 24 23 21 20 19 19 17 15 14 14 14 13 11 10 10 10 9 8 8 8 9 9
22 25 27 29 33 37 36 32 30 30 30 29 27 27 27 25 22 20 18 17 17 19 22 23 24 24 24 23 24 25 26 26 26 26 25 24 24 24 24 24 24 23 23 22 21 20 19 17 15 15 15 15 14 12 11 10 10 9 8 9 9 9 9
19 22 25 28 32 35 34 32 32 32 32 31 28 27 27 26 23 21 19 18 17 18 19 21 23 24 24 25 26 26 26 26 26 26 25 25 25 24 24 24 24 23 23 22 21 20 19 17 16 16 17 16 14 12 12 11 10 9 9 10 9 9 9
17 19 23 26 29 32 33 33 34 32 30 30 29 27 27 26 24 21 19 18 18 19 19 19 19 21 23 24 25 25 24 24 24 24 24 24 24 25 25 24 23 23 22 22 22 21 19 18 18 18 18 17 15 14 13 13 11 10 11 11 10 10 9
17 18 21 25 27 30 32 33 33 30 28 29 29 28 28 27 25 22 22 22 21 21 21 20 20 20 21 21 20 19 19 19 18 18 19 19 20 21 21 20 20 21 21 22 21 20 20 19 19 19 19 18 17 17 15 14 13 13 13 13 12 11 10
19 19 22 27 28 29 31 32 30 29 29 31 32 32 31 30 28 27 27 26 24 24 24 23 22 21 21 19 18 17 16 15 15 15 15 16 16 15 15 15 17 18 19 19 19 20 21 22 21 21 20 20 20 18 17 16 15 15 15 15 14 14 13
20 19 23 29 30 30 31 30 29 29 31 34 35 34 33 32 31 31 29 28 27 27 26 25 23 22 22 21 19 17 17 16 16 15 15 14 14 13 13 14 15 16 17 17 18 20 22 23 23 22 21 21 21 19 18 17 17 17 17 17 17 16 14
21 21 24 29 30 31 32 32 31 32 34 36 36 35 34 34 34 33 32 31 30 29 28 26 24 23 23 22 21 19 19 18 17 16 15 14 13 13 13 14 14 15 17 17 17 19 21 23 25 24 22 22 22 20 19 19 19 19 19 19 19 17 16
24 23 25 29 31 32 34 35 35 36 38 38 38 37 36 36 36 36 34 33 32 30 28 26 25 24 24 24 23 22 21 20 19 18 17 16 15 14 14 14 14 15 16 17 18 19 20 23 26 26 24 23 22 22 22 21 21 20 20 20 19 18 18
27 26 26 27 29 31 34 36 37 37 38 39 39 39 38 38 39 37 34 33 32 31 30 27 26 26 26 26 25 24 23 22 21 20 20 18 18 17 16 15 15 15 16 16 18 19 21 22 24 26 25 24 23 23 23 23 23 22 21 20 19 19 20
29 28 27 26 27 28 29 33 36 38 39 40 40 40 39 39 38 36 34 34 34 33 32 31 30 30 29 28 27 25 24 23 22 22 22 21 21 20 19 18 17 17 17 17 17 20 22 22 22 24 26 26 25 25 25 25 24 23 22 21 21 21 21
31 30 29 28 27 26 25 26 32 36 37 38 38 37 37 36 36 36 36 37 37 36 34 34 34 33 31 30 29 27 26 24 24 23 23 24 24 23 22 21 20 19 18 17 17 18 21 23 24 24 25 27 27 27 27 26 25 24 23 23 23 23 22
34 31 30 29 29 27 25 23 25 30 33 35 35 35 35 36 36 36 37 38 39 38 38 37 36 35 34 32 31 30 29 27 26 26 25 25 26 26 26 25 24 22 21 19 17 16 17 21 24 25 27 28 29 29 29 28 27 25 24 24 24 24 23
34 32 31 31 30 28 26 25 24 26 28 31 33 34 34 35 36 36 37 38 38 39 39 39 38 37 36 35 33 32 32 31 30 30 29 29 28 28 28 28 28 27 25 23 21 19 17 18 20 22 25 28 29 30 30 29 28 27 27 27 27 26 25
34 32 31 31 30 29 27 26 25 25 26 27 29 31 33 34 35 37 38 38 38 38 38 38 39 38 37 37 36 35 34 34 34 33 33 33 32 31 31 31 31 31 30 28 25 23 20 19 19 19 21 25 28 30 31 30 29 29 29 29 28 28 27
33 32 32 32 30 29 27 26 25 25 25 25 26 28 30 33 35 36 38 39 39 39 38 38 38 39 38 38 38 37 36 36 36 35 35 35 35 34 34 34 34 34 34 33 30 27 24 22 21 20 20 22 26 29 31 30 30 30 29 28 28 28 28
34 33 34 33 32 29 28 27 26 26 25 24 24 26 29 32 34 36 38 39 40 40 41 41 40 40 40 39 39 39 39 39 38 38 38 38 37 38 37 37 37 37 36 36 35 32 29 27 25 24 23 23 24 27 29 30 30 29 29 28 28 29 30
38 36 35 35 34 32 31 30 29 28 27 26 25 26 27 29 31 33 35 37 39 41 42 43 43 43 43 43 42 42 42 41 41 41 41 42 42 42 42 41 40 40 39 38 38 37 35 32 29 27 26 25 25 26 27 28 29 29 29 30 30 31 32
40 39 38 37 36 34 33 33 32 32 31 30 29 28 28 28 28 29 31 33 36 38 40 42 43 44 45 45 45 45 44 44 44 44 45 45 45 46 45 45 44 43 42 41 41 40 39 36 34 32 30 29 28 27 27 28 29 29 30 31 32 32 33
43 42 41 40 39 38 36 35 35 35 35 35 34 33 32 30 28 28 28 29 30 32 34 37 39 40 42 43 43 43 44 44 44 44 44 44 44 43 44 44 45 45 44 43 43 43 42 40 38 36 35 33 31 31 31 31 31 32 33 33 34 34 35
46 45 45 44 43 42 41 38 36 36 37 38 37 36 36 34 31 29 28 28 28 29 30 31 33 34 36 37 38 39 39 40 40 39 39 39 38 38 39 40 42 45 45 44 44 44 44 43 41 40 39 37 35 34 34 35 36 37 37 37 37 37 38
49 49 48 47 45 44 43 40 36 35 37 38 37 36 36 35 33 32 29 28 28 28 29 29 30 31 32 32 33 33 33 34 34 33 33 33 33 33 33 35 37 41 43 43 43 44 44 43 43 42 41 40 40 39 38 38 39 39 39 39 40 40 41
53 51 50 49 46 45 43 40 35 32 34 36 36 35 35 35 34 33 32 30 29 29 29 30 30 30 30 30 30 31 31 31 30 30 30 30 30 30 31 32 33 36 37 39 41 42 42 42 42 42 41 41 41 42 42 40 39 39 39 40 41 42 43

ECMWFFLT1_500_spd_069.txt.gz
Wind_Speed
35 32 30 29 27 24 22 21 21 21 19 18 15 13 12 13 17 20 22 23 25 25 26 26 27 27 27 26 24 21 20 20 21 21 21 21 20 18 17 16 16 15 14 13 13 13 13 12 11 10 9 8 8 7 6 6 7 8 9 10 10 11 10
36 34 32 31 29 27 25 23 23 22 21 20 18 16 13 12 15 19 22 23 24 26 26 27 28 28 29 28 26 24 22 21 22 22 22 21 20 19 18 17 16 15 14 13 13 13 12 11 10 8 7 6 5 5 4 3 3 3 4 5 7 7 8
36 34 33 32 30 28 27 25 24 24 22 21 19 17 15 13 15 19 23 24 25 26 26 28 29 30 31 30 28 26 24 23 24 23 23 23 22 21 20 18 17 16 15 14 14 13 12 11 10 9 8 6 5 4 4 3 3 2 2 2 3 3 4
35 33 31 30 30 30 29 27 26 26 25 23 20 18 17 17 17 19 23 25 26 26 27 28 29 31 32 31 30 28 26 25 25 25 25 25 24 23 21 20 18 17 16 16 15 14 13 12 11 10 9 8 7 6 5 5 5 4 4 3 3 2 2
35 33 31 30 29 30 30 29 28 28 27 25 22 21 20 19 19 20 23 25 27 27 28 30 31 32 33 32 31 30 29 28 28 27 27 26 25 24 23 22 20 19 18 17 16 15 14 13 12 11 10 9 9 8 7 6 6 6 6 5 5 4 4
35 34 31 29 29 30 30 30 29 29 29 27 24 23 22 21 21 21 22 25 27 28 29 30 31 33 33 33 33 32 30 30 29 29 28 27 26 25 25 24 23 21 20 18 17 17 16 15 13 12 12 11 10 9 8 8 8 7 7 7 7 6 6
33 34 33 31 31 31 30 30 31 31 31 29 28 26 25 24 22 21 22 24 26 27 28 29 30 31 33 33 33 33 32 31 31 30 29 28 28 27 27 26 25 23 22 20 19 18 17 17 15 14 13 12 11 10 9 8 8 8 8 8 8 8 8
34 35 35 33 33 33 30 30 32 34 33 32 31 29 27 25 24 23 22 23 25 27 27 28 29 30 32 33 32 32 32 32 32 32 31 30 29 29 29 28 27 26 24 22 21 20 19 18 17 15 14 13 12 12 11 9 9 9 9 9 9 9 9
36 37 36 34 32 32 30 31 34 37 36 35 33 30 29 27 26 24 22 23 25 26 26 27 29 30 32 33 33 33 33 33 34 33 32 31 31 31 30 30 29 27 25 24 23 22 21 20 18 17 16 15 14 13 12 11 10 9 10 10 10 10 11
37 38 37 35 32 32 31 32 36 39 38 36 34 32 30 28 27 25 24 24 24 25 26 28 29 30 31 32 34 34 34 34 34 34 33 32 32 32 32 31 30 28 27 26 25 24 23 21 19 18 17 17 16 15 14 12 11 10 11 11 11 12 12
39 37 37 36 34 33 32 31 34 38 38 37 34 33 31 29 28 27 25 24 24 25 27 28 30 31 31 32 34 34 34 34 34 33 33 32 33 33 33 32 31 29 28 27 26 25 24 22 21 20 19 19 17 16 15 13 12 11 11 11 12 13 13
41 39 38 38 37 35 34 34 35 37 38 37 34 33 31 28 28 28 27 26 25 26 27 28 30 32 32 33 33 33 34 33 33 33 33 33 34 34 34 33 32 30 29 28 27 26 25 23 22 21 21 20 18 17 15 14 13 12 11 11 12 13 14
42 41 41 41 41 39 38 37 37 36 37 36 34 32 30 28 28 28 28 27 27 27 28 29 30 31 32 33 33 32 32 32 32 33 34 34 35 35 35 34 33 31 30 29 28 27 26 25 24 23 23 21 19 17 16 14 13 13 12 12 13 14 15
44 44 44 44 44 42 40 39 38 37 35 34 33 32 31 28 28 30 30 29 29 29 29 29 30 31 32 33 32 32 31 31 32 33 34 35 35 35 35 35 34 32 31 30 29 28 27 26 25 24 23 21 19 18 16 14 14 13 13 13 13 14 15
45 46 46 46 46 45 42 39 38 37 36 35 34 34 33 31 29 31 31 31 31 31 31 30 30 31 31 31 31 31 31 31 33 34 35 35 35 35 35 35 34 33 32 30 29 29 28 27 26 25 23 21 20 18 16 15 14 15 15 14 13 13 15
46 47 49 49 48 47 45 42 39 38 38 38 37 36 35 33 31 31 32 32 32 31 31 31 31 31 31 30 30 31 32 33 33 34 35 34 34 34 34 35 34 33 32 31 30 29 29 27 26 25 23 22 20 19 17 15 15 16 16 15 14 13 14
48 49 51 52 51 50 48 44 41 40 40 40 38 36 35 33 32 32 32 32 32 32 31 31 31 31 30 30 30 31 32 32 33 34 34 34 34 34 34 34 34 33 32 31 30 29 28 27 26 25 24 23 21 19 18 17 17 18 17 16 15 14 14
48 51 53 54 53 51 48 46 44 41 40 40 37 35 34 33 32 33 32 32 32 32 32 32 31 31 31 31 32 32 31 31 32 33 33 33 34 34 34 34 33 33 31 30 30 29 28 27 26 25 25 24 22 20 19 18 19 18 18 17 16 15 16
48 49 50 48 45 43 43 45 46 43 41 39 36 33 32 32 32 32 31 32 33 33 32 32 32 32 33 33 32 31 30 31 31 32 33 33 34 34 34 33 33 32 31 31 30 29 28 27 26 26 25 24 22 20 20 20 19 19 19 18 17 16 17
45 43 41 39 38 39 41 44 46 45 42 39 35 32 32 32 32 31 31 32 34 34 32 32 32 34 34 34 32 31 30 30 30 31 32 33 33 34 33 32 32 32 31 31 30 28 27 26 26 26 25 23 22 21 20 20 20 20 20 19 18 18 17
35 34 34 34 35 37 41 44 46 46 44 40 36 34 34 33 32 32 32 34 35 34 33 32 33 35 35 34 33 31 30 29 29 30 31 31 32 32 31 31 31 31 31 30 29 27 27 26 26 26 25 23 22 21 21 21 21 21 21 20 20 19 18
27 29 30 31 33 35 38 41 44 45 44 41 38 37 36 35 34 32 32 35 36 35 33 33 34 35 36 35 33 31 30 29 29 29 29 29 29 29 30 30 30 30 30 29 28 27 27 26 26 26 25 24 23 21 21 22 23 22 22 22 21 20 19
26 27 28 31 34 36 37 39 41 43 44 42 40 39 38 37 35 32 33 36 37 35 34 34 35 36 36 35 33 31 30 29 29 29 28 28 27 27 28 29 29 30 29 28 28 27 27 26 26 26 25 24 23 22 22 24 24 23 23 23 22 21 19
26 24 25 29 32 35 36 37 39 41 43 43 41 40 39 38 36 34 35 38 38 35 35 34 35 35 35 34 33 32 31 30 29 29 28 27 26 26 27 28 28 29 28 27 26 26 26 26 26 25 25 24 23 23 24 25 25 25 25 24 23 21 20
27 24 23 25 28 31 33 35 38 40 42 43 42 41 41 40 38 36 38 40 38 36 35 34 34 34 34 33 33 32 32 31 30 28 27 26 25 26 26 26 27 26 26 25 25 25 25 25 24 24 23 23 23 23 24 26 27 26 26 26 25 22 21
31 27 25 24 25 26 28 32 35 37 38 40 42 43 42 40 39 39 40 40 39 37 35 33 33 33 33 33 33 32 31 30 29 27 26 25 25 25 25 25 24 24 23 23 23 23 23 23 22 22 23 23 23 24 25 26 27 28 28 28 26 23 22
34 30 28 25 23 22 24 27 30 32 35 38 40 41 41 40 40 40 41 41 40 38 35 33 32 32 32 32 31 30 29 28 27 26 25 25 24 24 24 23 23 22 22 22 22 22 21 21 21 21 22 23 23 24 24 25 26 28 29 29 27 24 23
37 34 32 29 24 22 24 26 29 31 32 35 37 39 39 40 40 40 41 41 39 37 35 34 33 32 31 29 29 28 27 27 26 26 25 25 24 23 23 22 22 22 21 21 20 20 20 20 20 20 20 21 21 22 23 24 25 26 27 28 28 26 24
39 36 35 33 27 24 25 26 29 30 31 33 35 37 40 40 40 41 41 40 38 37 36 35 32 31 29 28 28 28 27 27 27 27 26 25 24 24 24 23 23 22 21 21 20 20 19 19 19 19 19 19 19 19 21 22 23 24 25 26 27 27 25
43 40 38 35 30 25 24 25 29 31 32 33 35 36 38 39 40 41 41 40 39 38 37 35 32 31 31 31 31 30 29 29 29 28 28 27 26 26 25 25 25 24 23 23 22 22 21 21 20 20 19 19 19 19 19 20 21 23 24 25 27 27 26
46 44 40 36 31 26 23 25 30 33 34 34 35 35 36 38 40 42 42 41 40 38 37 35 34 34 34 34 33 32 31 32 31 30 30 30 29 28 28 28 28 27 27 26 25 25 25 24 24 23 22 22 21 20 20 21 20 21 22 24 26 27 26
48 46 42 37 31 27 24 27 32 35 36 36 35 33 34 37 40 42 43 42 41 39 38 37 38 39 39 38 36 35 35 34 33 33 33 33 32 32 32 31 30 30 30 29 29 29 29 28 27 27 26 26 25 24 24 23 22 21 21 22 23 25 26
49 46 42 38 32 28 26 28 34 37 37 37 36 33 33 36 39 41 42 43 42 41 40 40 41 43 42 40 39 39 38 38 37 37 37 36 35 35 35 35 34 33 33 32 31 32 32 31 31 30 29 29 29 29 28 27 26 25 24 24 24 24 24
50 47 43 38 34 30 28 30 35 39 39 38 36 34 33 35 37 39 41 42 42 42 41 41 43 44 43 42 43 43 42 42 42 41 41 40 38 38 39 40 39 38 37 35 34 34 34 34 33 32 31 31 31 31 31 30 29 29 29 28 28 27 26
51 47 44 40 35 32 31 32 36 40 41 40 38 37 35 35 36 38 39 40 41 41 41 42 43 42 42 43 44 45 46 46 46 46 46 44 42 42 44 44 43 42 41 39 37 37 36 36 35 35 34 33 33 32 32 32 32 33 34 33 32 31 30
52 48 45 42 38 35 33 34 37 40 43 42 41 39 37 37 37 38 39 40 40 41 41 42 42 40 39 40 40 42 44 45 45 46 46 46 46 47 48 48 46 45 44 42 39 38 38 38 38 38 37 36 36 35 35 35 36 37 38 38 37 36 35
53 50 47 44 41 38 36 36 38 41 42 43 43 42 40 38 38 38 39 40 40 41 42 42 42 42 41 41 41 42 42 43 43 43 44 45 45 46 47 46 44 44 44 43 41 40 40 40 40 40 40 40 39 39 39 40 40 41 42 42 41 40 39
54 51 49 46 44 41 39 39 41 42 43 43 44 44 43 41 39 38 38 39 40 42 43 44 45 45 45 45 45 45 44 44 44 45 45 45 45 45 45 44 42 41 42 42 42 42 42 43 43 43 43 43 43 43 43 44 44 44 44 44 45 45 44

ECMWFFLT1_500_spd_072.txt.gz
Wind_Speed
39 37 36 33 30 27 24 21 21 21 21 20 20 20 22 24 26 28 28 28 29 30 30 30 30 29 29 27 26 24 23 22 23 23 22 21 20 20 19 19 19 18 17 16 16 17 18 17 16 14 13 12 12 11 11 11 11 11 10 9 9 8 6
40 38 36 33 30 28 25 22 21 21 20 19 19 19 20 22 25 28 29 29 30 30 31 32 31 31 30 29 27 26 25 25 25 25 23 22 22 21 21 21 20 19 17 17 18 19 19 18 16 14 12 11 10 9 8 8 8 7 7 7 6 6 6
40 39 37 34 31 29 26 24 22 21 21 20 19 18 19 20 24 27 30 30 31 31 32 33 33 33 32 31 29 28 27 27 27 26 25 24 24 23 23 22 21 19 17 18 19 19 19 18 16 14 12 11 9 8 7 6 5 5 4 4 3 3 3
40 40 37 35 33 31 30 27 24 22 22 22 21 19 19 20 23 27 30 32 32 31 31 32 34 35 34 33 31 30 29 28 28 27 27 26 25 24 23 22 21 19 18 20 20 20 19 18 16 14 13 11 10 8 7 6 5 4 4 3 3 2 1
41 40 39 37 36 35 32 29 26 24 23 23 23 22 21 21 23 25 29 32 33 33 33 34 35 36 36 35 33 31 31 30 30 29 28 27 26 24 23 23 21 20 20 21 21 21 20 18 17 15 13 12 10 8 7 6 6 5 5 4 4 4 3
42 41 40 39 38 36 33 30 28 26 25 25 25 24 24 24 24 24 28 31 33 34 34 35 35 36 36 36 35 33 32 32 32 31 30 29 27 26 26 25 24 22 22 23 22 21 20 19 17 16 14 12 10 9 8 7 7 6 6 6 5 5 5
43 42 41 40 39 37 34 32 30 28 28 28 28 27 27 27 26 25 26 29 32 33 34 34 34 35 36 36 36 35 34 34 33 32 31 30 29 28 28 27 26 25 24 23 23 22 21 19 18 17 15 13 12 11 10 9 9 8 8 7 7 7 7
45 42 41 41 40 38 36 34 32 31 31 32 31 30 29 29 29 27 26 27 30 33 33 33 34 34 35 35 36 35 35 35 35 34 32 31 30 30 29 28 28 27 25 25 24 23 22 21 19 18 16 14 13 13 12 11 10 10 9 9 8 8 8
44 41 40 40 40 39 37 35 34 34 34 34 32 31 31 32 31 29 26 26 29 31 33 33 33 34 35 35 36 36 36 36 35 35 34 32 32 31 31 30 30 28 27 26 26 25 23 22 21 19 17 16 15 14 14 13 12 12 11 10 9 9 9
45 42 41 41 41 40 39 37 36 36 35 35 35 33 33 33 32 31 29 27 27 29 32 34 34 35 35 35 35 37 37 36 35 35 34 33 33 33 32 32 31 30 29 28 27 26 25 24 22 21 19 17 17 17 16 15 14 13 12 11 10 10 10
46 44 43 43 42 41 40 38 37 36 34 34 35 35 35 35 34 33 30 27 27 28 31 34 35 35 35 35 36 37 37 36 36 35 35 34 34 34 34 33 32 31 30 29 28 27 26 25 23 22 20 19 19 18 17 16 15 13 13 12 11 10 10
45 44 45 45 43 42 40 38 37 37 34 33 35 37 37 37 36 34 31 29 28 28 30 32 34 35 35 35 36 36 36 36 35 35 35 35 35 35 35 34 33 33 32 30 29 29 27 26 24 23 22 22 21 20 18 17 15 14 13 12 11 11 12
47 47 48 47 46 44 42 40 39 38 36 35 37 39 39 38 37 35 33 30 29 29 30 31 33 34 35 35 36 36 36 35 35 35 35 36 36 35 35 35 35 34 33 31 30 30 28 27 26 25 24 23 23 21 19 18 16 15 14 12 12 13 13
50 50 51 50 49 47 45 43 41 40 38 36 37 40 40 39 37 36 33 31 30 30 30 30 32 33 34 35 35 34 35 36 36 36 36 36 36 36 36 36 36 35 34 33 31 30 29 28 27 26 25 25 23 22 20 18 17 16 15 14 14 15 15
53 53 53 53 51 49 47 45 43 41 39 37 37 38 39 39 38 36 34 31 30 30 29 29 30 32 34 35 34 34 34 36 37 37 36 36 36 36 36 37 37 37 36 34 32 32 31 30 29 27 26 26 24 22 21 19 18 17 17 16 16 16 15
56 56 56 55 53 51 49 47 45 43 41 38 37 37 38 39 39 37 33 30 29 29 28 28 28 30 32 34 33 34 34 35 37 37 37 37 36 36 36 37 38 38 37 35 34 34 33 31 30 29 28 27 25 24 22 20 20 19 18 18 17 17 16
59 58 58 57 55 54 53 51 48 45 42 40 38 38 39 39 39 37 33 30 30 29 28 28 28 28 30 32 33 34 35 35 36 37 37 37 36 36 36 37 37 38 37 37 35 35 34 33 32 30 29 28 26 24 23 22 21 21 20 19 18 17 16
59 59 59 57 57 56 54 53 51 48 44 41 41 41 40 39 39 37 34 32 30 30 29 29 29 29 30 31 33 34 35 35 35 36 36 36 36 36 36 37 37 37 37 37 36 35 34 33 32 31 30 29 26 25 24 23 23 22 20 20 19 18 17
58 59 59 58 58 56 54 53 52 49 46 44 44 43 40 39 38 36 35 34 33 32 32 31 30 31 31 31 32 34 34 35 34 34 35 35 36 36 36 36 36 36 36 36 36 35 34 33 32 32 31 29 27 25 25 24 24 22 21 20 20 19 18
57 58 59 59 58 56 55 54 53 51 48 46 45 43 41 39 39 38 38 38 36 34 33 33 32 32 32 31 32 33 34 34 34 34 34 35 35 36 36 35 35 35 35 35 35 35 33 33 32 32 31 29 27 27 26 25 24 23 22 21 20 19 19
57 58 58 58 57 56 55 54 53 52 49 47 45 44 42 41 42 42 41 39 37 35 35 34 34 33 33 32 31 32 33 33 33 33 33 34 34 34 34 34 34 34 34 34 35 34 34 33 33 32 31 29 28 27 27 26 26 25 23 22 21 21 20
52 55 57 57 58 57 56 54 53 52 50 49 48 47 45 43 44 44 42 40 37 36 36 36 34 34 35 33 30 32 33 33 33 33 33 33 33 33 32 32 33 33 33 33 33 34 33 33 32 31 30 29 28 27 26 26 27 25 24 23 22 22 21
47 51 54 56 57 57 56 53 51 51 52 51 50 48 46 45 46 44 41 40 38 36 36 35 34 34 35 32 30 31 33 33 33 33 33 32 32 31 31 31 32 32 33 32 32 32 32 32 31 31 30 29 28 27 27 28 28 26 25 24 23 22 21
43 46 50 52 53 52 52 52 50 51 51 50 49 48 46 46 46 44 41 39 38 36 35 33 33 35 35 32 30 31 32 34 34 33 32 31 30 30 31 31 31 32 32 31 31 31 32 32 31 31 30 29 29 28 28 29 28 27 25 24 23 22 22
41 43 44 45 45 46 47 48 49 50 50 50 50 50 48 47 47 45 42 39 37 36 34 32 32 35 33 31 29 30 32 34 34 33 32 30 29 30 30 30 30 31 30 30 30 31 31 31 30 30 29 29 28 28 28 28 28 26 26 25 23 23 23
40 39 37 37 39 41 42 43 45 48 49 50 51 50 48 48 48 46 43 40 37 36 33 31 32 34 32 31 30 30 31 34 34 33 31 30 29 29 29 29 29 29 29 29 29 29 29 29 29 28 28 28 28 27 27 28 27 26 26 26 25 24 25
37 35 34 34 35 37 38 40 42 45 47 47 48 48 48 49 50 49 45 42 39 36 32 31 33 34 32 31 30 29 31 33 34 33 32 30 29 29 28 28 28 28 27 28 28 28 28 28 28 28 28 28 27 27 27 27 27 26 26 26 26 25 26
35 33 32 32 34 34 35 36 38 40 42 43 43 44 46 49 51 50 46 41 37 35 33 33 35 35 32 31 30 29 30 32 33 32 32 31 30 29 28 28 27 27 27 27 27 27 28 28 28 27 27 27 26 26 25 25 26 26 26 26 26 26 26
35 34 34 34 34 33 32 32 33 36 38 39 40 42 45 48 50 49 44 38 36 36 36 36 36 35 32 30 29 29 30 31 31 31 31 30 29 28 27 27 27 27 27 27 27 27 27 27 27 26 25 25 24 24 24 24 25 25 25 25 25 25 26
37 38 38 36 34 31 29 29 30 32 35 37 39 40 42 44 46 44 40 37 38 39 38 37 36 34 32 30 29 29 29 30 30 30 29 28 27 27 27 27 26 26 26 26 26 26 26 25 25 24 23 23 23 22 22 23 24 24 23 22 23 23 23
42 42 40 38 34 30 27 27 28 31 33 35 37 37 38 40 42 41 40 40 40 40 38 38 36 34 32 31 30 28 28 29 29 28 28 27 27 27 27 26 26 25 25 26 26 25 25 24 23 23 22 22 22 22 22 22 22 22 21 20 20 20 20
46 45 42 40 36 32 28 27 27 29 31 34 37 38 39 40 41 42 42 42 41 40 39 38 36 34 33 32 30 29 29 29 28 27 27 27 28 28 28 28 27 27 27 27 27 26 26 25 25 24 23 23 23 22 22 23 23 22 21 21 20 20 20
49 47 44 42 40 36 31 28 28 29 31 34 37 39 40 41 42 43 43 42 41 40 39 37 36 35 34 33 32 32 31 30 29 28 28 29 30 30 30 30 30 30 29 29 29 28 28 27 26 26 25 25 24 24 25 25 25 24 23 23 22 22 22
51 48 45 44 42 40 36 32 30 31 32 34 35 37 39 40 41 41 42 42 41 41 40 38 37 36 36 36 36 35 34 33 32 31 32 33 33 33 32 32 31 31 31 31 31 31 30 30 29 29 28 28 27 28 28 27 27 26 26 25 25 25 25
53 50 47 44 43 42 39 35 33 33 35 36 36 36 37 38 40 40 40 40 41 41 41 39 38 38 39 40 39 37 36 36 35 35 35 35 36 35 35 34 34 34 33 34 34 33 33 32 32 31 31 30 30 30 30 30 29 29 28 28 28 28 28
55 52 49 45 43 43 42 38 35 34 35 37 38 37 37 37 38 37 36 36 39 42 42 41 40 41 42 41 39 39 39 39 39 39 38 38 39 39 38 38 37 37 36 36 36 35 35 35 34 34 34 33 32 32 32 32 31 31 31 31 30 30 30
57 54 51 47 45 44 43 41 37 35 35 37 38 38 38 37 37 36 34 35 38 41 42 42 42 42 43 42 41 41 42 43 43 43 42 42 42 41 41 41 41 40 40 39 39 39 38 38 37 38 37 36 35 35 34 34 33 33 33 33 33 33 33
59 57 54 50 47 46 45 42 39 36 35 36 37 38 38 38 37 36 34 33 35 39 41 42 43 43 43 43 42 43 43 44 44 43 44 45 44 44 44 44 44 43 43 42 42 42 41 41 41 41 41 41 41 38 36 36 36 36 36 37 37 37 37

ECMWFFLT1_500_spd_075.txt.gz
Wind_Speed
33 34 31 29 29 25 22 21 19 18 18 17 18 19 22 23 24 25 26 27 28 28 28 28 28 29 28 27 26 23 21 19 18 18 19 18 18 17 17 16 15 15 14 13 12 11 11 11 11 11 10 10 9 9 8 8 7 6 6 5 5 5 4
35 36 31 29 29 25 23 22 21 20 18 17 18 18 19 21 23 25 26 27 28 28 29 29 30 30 29 28 27 25 22 20 20 20 20 19 19 18 18 18 17 16 15 14 13 13 14 14 13 12 12 11 10 10 9 8 8 7 6 6 6 6 6
35 36 33 29 27 25 25 24 22 21 20 18 18 16 16 18 21 24 26 27 28 29 30 30 31 31 30 29 28 26 24 23 22 22 21 20 20 20 20 20 19 18 16 15 15 16 16 15 14 13 12 11 10 9 8 7 6 5 5 4 4 4 5
35 35 34 31 29 29 28 26 24 23 21 19 18 17 16 17 19 22 25 27 29 29 30 31 32 32 32 30 29 27 25 24 24 24 24 23 22 22 21 21 21 19 17 17 18 18 18 17 15 14 12 11 9 8 7 6 5 4 3 2 1 1 2
40 37 35 33 33 35 32 27 25 24 22 21 19 18 17 16 17 18 22 26 29 30 31 33 34 34 33 32 30 28 27 26 26 26 26 24 23 23 22 21 21 20 19 19 20 20 20 19 17 15 13 12 10 8 7 5 4 3 3 2 1 1 2
44 41 38 35 34 36 33 28 26 26 24 23 21 20 19 18 17 17 19 23 27 30 31 33 34 35 35 34 32 30 28 28 28 28 27 26 25 24 23 23 23 21 20 21 21 21 21 20 18 17 15 13 11 9 7 6 5 5 4 4 3 3 3
44 44 42 37 34 34 32 29 28 27 27 25 24 23 21 20 20 19 19 19 23 28 31 32 33 34 35 35 34 32 30 29 30 30 29 28 26 25 25 25 24 23 22 22 23 23 23 22 20 18 17 15 13 11 9 8 7 7 7 6 6 5 5
45 47 43 39 36 33 33 33 31 29 29 29 26 24 23 21 22 21 20 19 20 23 28 32 32 33 35 36 35 34 32 31 32 32 31 29 28 27 27 26 25 24 23 23 24 25 24 23 21 20 19 17 15 13 11 10 9 9 9 8 8 7 7
47 48 42 39 38 36 36 37 34 32 33 31 29 26 25 24 23 23 22 22 21 21 25 30 32 33 34 35 36 35 35 33 33 33 32 31 29 29 29 28 26 25 24 25 26 26 26 25 23 22 21 19 17 15 13 12 11 11 11 11 10 8 8
47 47 42 39 40 38 38 39 37 36 36 34 32 29 27 27 25 25 25 24 22 21 23 27 31 33 34 34 35 36 36 35 34 34 33 32 31 30 30 29 28 27 27 27 28 28 27 26 25 24 23 21 19 17 15 14 13 12 12 13 11 10 9
46 46 43 41 40 39 40 41 40 39 37 34 34 32 29 28 28 27 27 25 24 24 23 25 28 31 33 34 35 36 37 36 35 35 34 32 31 31 31 31 30 29 29 28 28 29 29 28 27 25 24 22 20 19 17 16 14 14 13 13 12 11 10
48 49 47 45 44 42 43 45 43 40 38 36 35 35 32 30 30 30 29 27 27 27 25 24 25 28 32 34 35 36 36 36 36 35 34 33 33 32 32 32 31 31 30 30 29 29 30 29 28 27 26 24 22 20 18 17 16 15 14 14 13 12 12
50 51 49 46 47 47 48 48 45 41 40 39 37 37 35 33 33 32 31 30 29 29 27 25 24 25 29 33 35 35 35 35 36 35 35 35 34 34 33 32 32 32 32 31 31 30 31 30 29 28 27 26 23 21 19 18 17 16 15 15 14 14 13
48 48 47 43 44 48 49 48 45 42 42 42 41 41 39 36 34 33 33 32 31 30 28 26 24 23 25 29 32 33 34 35 35 35 35 36 36 36 35 34 33 33 33 33 32 31 31 31 30 29 28 26 24 22 21 19 18 17 16 16 16 15 15
46 45 44 43 44 46 49 48 46 44 44 43 44 44 42 38 35 34 34 33 32 31 29 27 25 23 24 25 28 30 33 34 35 35 36 36 37 36 36 35 34 33 34 34 33 32 32 32 31 29 28 27 25 23 22 21 19 19 18 17 17 16 15
46 45 45 46 48 49 50 50 48 46 45 46 45 45 43 38 34 33 34 33 33 32 30 28 25 23 23 23 24 27 30 33 34 34 35 35 36 36 36 36 35 34 34 34 34 34 33 32 31 30 29 28 26 25 23 22 21 20 20 19 18 17 16
50 51 50 50 53 55 55 54 51 49 48 48 46 44 43 39 34 33 33 33 33 33 32 30 25 23 22 23 24 24 26 30 32 33 34 34 35 36 37 36 36 35 35 35 35 35 34 34 32 31 31 29 28 26 24 23 23 22 21 21 19 18 17
53 53 52 52 53 54 55 55 53 52 50 48 46 44 43 39 35 33 33 31 31 32 33 32 27 24 22 23 24 23 24 26 29 31 33 33 34 35 36 36 36 36 35 35 35 35 35 35 34 33 33 31 29 28 26 24 24 23 23 22 21 19 18
53 54 53 53 51 51 53 54 53 53 52 49 47 44 42 39 36 34 32 31 31 33 35 33 29 26 24 23 23 23 23 25 26 28 30 32 33 33 34 35 36 36 36 35 35 35 35 36 36 35 35 33 31 30 28 26 24 24 24 23 22 21 19
52 54 54 54 51 52 55 55 54 53 51 50 48 45 43 41 38 36 34 34 33 34 35 34 31 28 26 24 24 24 24 25 25 26 27 29 31 32 32 33 34 35 36 36 36 36 35 35 36 36 36 35 33 32 30 27 25 25 25 24 23 22 20
52 53 55 54 52 54 56 56 55 54 52 51 49 46 45 44 40 38 37 36 34 34 35 34 33 30 27 26 26 25 25 26 25 25 26 27 29 31 31 32 32 34 35 36 36 36 35 35 35 35 36 35 34 33 31 29 26 25 26 26 24 23 21
51 53 55 55 55 55 55 55 56 55 53 51 50 48 48 46 42 40 39 37 35 35 35 35 35 32 29 29 28 26 27 27 26 24 25 26 28 29 30 30 30 32 34 35 36 35 35 35 34 34 35 35 34 32 31 30 27 26 26 26 25 24 22
49 52 55 56 57 56 55 55 56 56 53 51 50 51 50 47 45 43 41 40 38 37 36 35 35 33 32 32 30 28 29 29 26 24 25 26 27 28 29 28 29 30 32 33 34 34 33 33 33 33 34 34 33 32 31 30 28 26 27 27 26 24 23
49 52 55 56 57 57 57 56 56 55 54 51 51 51 51 50 48 45 43 41 41 39 38 36 34 33 34 34 31 29 30 30 26 24 26 26 26 27 28 28 28 29 30 32 33 32 32 32 32 32 32 32 32 31 30 30 28 27 27 27 26 25 23
48 52 54 56 57 57 58 58 57 55 54 51 50 51 52 52 50 48 45 43 43 43 40 37 35 35 35 34 31 30 32 31 27 24 25 26 26 27 28 28 28 28 30 31 32 31 31 31 30 31 31 31 31 30 29 29 28 27 27 26 25 24 23
46 48 52 54 56 57 57 57 56 54 53 52 52 51 52 52 51 50 47 44 43 44 43 39 37 36 37 35 32 31 32 30 26 25 25 26 26 27 27 28 28 29 29 30 31 30 30 30 29 29 30 30 31 30 29 28 28 26 25 25 24 24 23
45 46 48 50 52 55 56 57 56 54 53 53 52 50 51 52 52 51 49 45 43 44 43 41 39 38 38 36 32 31 32 30 26 25 26 26 26 26 27 28 28 28 29 29 30 29 29 29 28 28 29 29 30 29 28 28 27 25 24 24 24 24 23
45 45 45 46 48 50 52 54 53 52 51 52 51 49 50 52 53 52 50 46 44 44 45 43 41 40 39 35 31 32 32 29 27 26 26 25 24 25 27 28 28 28 28 28 28 28 27 27 27 27 28 28 28 27 26 25 25 24 23 23 23 23 23
44 44 43 44 45 45 47 49 49 49 50 51 51 51 51 52 53 52 49 46 46 48 49 46 42 40 38 34 32 32 31 28 27 26 25 23 23 24 27 29 28 27 27 26 26 25 25 25 25 26 26 26 25 25 24 24 23 23 22 22 23 23 23
43 43 42 42 42 42 42 43 45 47 49 50 50 51 50 50 52 52 49 47 49 51 51 48 44 42 38 34 32 32 31 28 26 25 24 22 22 24 27 29 28 27 26 26 25 24 24 24 24 24 24 24 23 23 22 22 22 21 21 22 23 23 23
43 42 41 40 39 38 37 37 39 42 44 46 47 47 47 48 49 49 50 51 52 52 51 49 46 44 40 35 33 33 31 28 26 25 23 22 22 25 27 28 28 27 26 25 25 24 24 24 23 23 23 22 22 21 21 21 21 21 22 22 22 22 22
43 41 41 40 38 36 35 36 37 38 39 41 41 42 44 45 46 47 50 52 52 52 52 50 47 45 41 36 34 33 30 28 27 26 23 22 22 25 26 27 27 27 26 25 25 24 24 23 23 22 21 21 21 21 21 22 22 22 22 22 22 22 21
43 42 42 40 37 35 34 35 36 37 37 38 39 40 42 43 44 46 49 52 52 52 53 52 49 46 41 37 35 33 31 29 28 26 24 23 23 24 26 27 27 26 25 25 25 24 24 23 23 22 22 22 23 23 24 24 24 24 25 24 23 22 21
43 43 43 40 37 36 35 36 36 36 36 37 39 40 42 43 44 45 48 49 50 52 53 52 49 45 42 38 35 33 32 31 29 27 26 25 24 24 25 26 26 26 26 26 26 26 25 25 25 25 25 25 26 26 26 26 26 26 26 25 23 22 21
44 44 43 41 39 37 37 37 37 37 36 36 37 39 41 43 44 45 46 47 48 50 52 51 48 45 42 39 36 34 33 32 30 29 28 27 26 25 24 25 26 27 27 28 28 27 27 27 27 27 27 27 28 27 27 27 26 26 26 24 23 23 23
46 46 45 43 40 39 40 40 39 38 37 36 35 36 38 41 43 44 44 44 45 47 49 49 46 44 41 39 36 34 33 33 33 32 31 30 28 27 25 26 27 29 29 29 29 28 28 29 29 29 29 30 29 28 27 28 28 27 27 27 26 26 26
48 48 46 45 43 42 43 43 41 39 37 35 34 34 36 38 40 41 41 42 43 45 47 47 45 43 41 39 37 35 35 36 36 35 34 32 31 30 28 29 30 31 31 31 31 31 31 31 31 31 32 32 31 30 30 31 31 31 30 30 30 29 29
51 50 49 47 46 46 46 44 42 40 38 36 34 33 34 37 38 39 40 41 42 44 46 45 43 43 42 40 38 37 38 39 39 38 37 35 34 33 32 32 32 33 33 34 34 34 34 34 33 34 34 34 33 33 33 33 33 33 33 33 33 33 32

ECMWFFLT1_500_spd_078.txt.gz
Wind_Speed
27 27 26 25 24 23 23 22 20 18 17 17 16 15 14 15 16 17 18 20 21 22 23 23 23 23 22 22 21 19 17 16 16 16 17 18 18 17 16 15 14 12 11 9 8 7 7 7 6 6 5 5 4 4 5 4 4 3 3 2 2 2 3
26 28 27 25 25 26 24 22 20 19 19 20 17 14 12 12 14 16 18 20 21 22 23 24 24 24 24 24 22 20 18 17 17 17 17 18 18 18 17 17 15 14 12 10 9 9 8 8 7 6 6 6 6 6 6 6 6 6 5 6 6 6 6
24 29 27 24 25 26 24 22 21 22 22 22 18 12 11 10 13 16 19 20 21 22 23 23 24 25 25 25 24 22 20 18 18 18 18 18 18 18 18 18 17 15 13 11 11 10 10 9 8 8 7 7 8 8 8 8 8 8 7 7 7 7 7
24 26 26 25 25 26 27 25 25 25 23 22 18 12 11 10 12 15 18 20 21 22 23 23 24 26 26 26 25 23 21 19 19 19 20 20 19 18 18 17 17 16 14 12 13 12 11 11 10 10 9 8 8 8 7 7 7 7 6 6 5 5 5
27 28 27 25 25 28 30 27 25 24 21 21 18 14 12 11 11 13 15 18 20 21 23 24 25 26 27 27 27 25 22 20 20 20 21 21 20 19 18 18 17 16 15 14 14 14 13 13 12 11 10 9 9 8 7 6 5 5 5 4 3 3 3
27 28 27 23 24 29 29 25 23 21 19 21 20 16 15 13 12 12 13 15 17 19 21 23 24 25 26 27 27 26 24 22 21 21 22 22 21 20 19 19 18 17 16 15 15 15 15 14 14 13 11 10 9 8 7 5 4 4 3 2 2 2 2
31 30 30 26 24 25 25 22 22 21 21 22 22 19 17 16 14 13 12 11 13 15 18 20 22 23 25 27 28 27 26 24 23 23 24 23 21 21 20 20 19 18 18 17 16 16 17 16 15 14 13 12 11 9 7 6 5 4 3 2 2 1 0
37 35 35 33 29 26 24 24 24 24 24 23 21 20 16 16 14 13 12 11 10 10 13 17 20 22 25 27 28 28 27 26 25 24 25 24 23 22 21 21 20 20 19 18 18 19 19 18 17 16 15 14 12 10 9 7 6 5 4 3 3 2 2
38 36 38 37 35 31 27 28 28 27 27 24 21 22 20 16 14 14 13 13 12 11 11 13 16 20 24 26 27 28 29 28 27 25 25 25 24 23 22 22 22 21 20 20 20 20 21 20 19 18 17 16 14 12 11 9 8 7 6 5 4 3 4
34 36 41 41 37 32 29 31 31 28 27 25 23 24 24 20 17 16 15 14 14 13 13 13 13 16 20 24 26 28 29 29 29 27 26 25 25 24 24 23 23 22 21 21 21 22 22 22 21 20 19 18 16 15 13 11 10 8 8 7 6 4 5
33 34 37 41 40 33 29 31 32 30 27 25 25 27 27 24 21 19 17 17 16 16 15 14 13 14 16 20 24 26 27 29 29 29 27 26 26 26 25 25 24 23 22 21 22 23 23 23 22 22 21 20 19 17 15 13 12 10 9 9 8 6 5
31 34 33 38 41 34 30 31 32 32 29 27 29 30 29 27 24 22 20 20 20 19 17 16 15 14 14 16 19 23 25 27 28 29 29 28 27 27 27 26 25 25 24 23 23 23 24 24 23 23 23 22 21 20 17 15 14 12 11 11 10 8 7
28 32 33 37 40 36 32 33 33 33 32 31 31 32 31 28 27 25 24 22 22 21 20 18 16 15 15 14 15 17 21 24 26 28 29 29 29 29 29 28 27 26 25 25 24 24 24 25 25 25 25 24 22 21 19 17 16 14 13 12 12 11 9
32 34 35 38 40 39 37 36 36 36 35 34 33 33 33 32 30 28 27 25 24 23 21 20 18 15 15 15 13 13 16 21 24 26 28 29 29 30 30 30 28 27 27 27 26 25 25 25 26 26 26 25 24 22 21 19 17 16 15 14 13 13 11
38 40 42 39 36 35 34 35 36 36 35 35 36 36 36 35 33 32 31 28 26 25 23 21 19 17 16 15 13 12 14 17 20 23 25 27 28 29 30 30 30 29 28 28 27 26 26 26 27 27 26 26 25 23 22 20 19 18 17 16 15 14 13
44 46 47 42 35 33 34 35 36 35 34 34 36 38 38 38 37 35 32 29 27 26 25 23 21 18 17 15 15 14 14 15 16 18 21 24 26 27 28 29 30 30 30 30 29 28 28 27 28 27 27 27 26 24 23 22 21 20 19 18 16 15 15
46 47 47 44 42 41 39 39 38 38 38 37 37 39 40 39 38 36 34 32 29 27 26 24 22 20 18 17 17 16 15 15 15 14 16 19 22 25 26 27 29 29 30 31 31 31 30 29 28 28 28 27 27 25 23 23 22 22 21 19 18 16 16
42 45 46 45 45 44 42 42 41 41 43 44 43 43 42 40 39 38 37 34 30 28 28 26 23 21 20 18 18 18 16 16 15 13 13 15 18 21 23 25 26 28 28 30 32 33 32 30 29 28 29 29 28 26 25 24 24 23 22 21 19 18 17
40 44 45 46 46 44 43 44 42 41 43 45 46 45 43 41 40 39 37 35 32 30 30 28 24 22 22 20 19 18 17 17 16 14 13 14 15 18 21 22 23 25 26 28 30 33 33 31 30 30 30 30 29 28 27 26 25 24 24 22 20 19 18
40 42 44 47 47 44 42 43 43 44 43 44 45 46 45 43 42 40 38 37 35 31 30 29 26 23 23 22 20 18 18 18 18 16 15 14 14 16 18 20 22 23 25 26 28 30 32 32 31 31 31 30 30 30 29 28 27 26 25 24 22 21 19
38 40 43 45 47 47 45 44 44 44 45 45 45 45 45 45 44 42 40 38 36 32 31 30 27 24 24 23 21 19 18 19 19 18 17 15 14 15 16 18 20 22 24 25 26 28 30 31 32 31 31 31 31 31 31 30 29 28 27 26 24 22 21
38 40 41 44 47 48 49 47 46 44 43 45 45 44 45 46 44 41 39 39 37 34 32 31 28 25 25 24 23 21 19 19 20 20 19 17 15 15 16 18 19 20 22 24 25 26 28 30 31 31 31 32 31 31 31 31 30 29 28 28 26 23 21
37 39 41 43 45 47 49 49 48 46 42 41 42 42 44 45 43 40 38 39 38 36 33 31 28 25 25 25 25 22 21 20 21 22 21 19 16 16 17 18 19 20 21 23 24 25 26 28 30 30 31 31 31 31 31 31 31 30 30 29 27 24 22
39 39 40 42 43 45 47 48 47 47 45 43 41 41 42 43 42 40 39 39 39 37 34 31 28 25 24 26 26 24 23 22 22 23 23 21 19 18 18 19 19 20 21 22 23 24 25 27 29 30 30 30 31 31 31 31 31 30 30 30 28 25 23
39 39 39 41 43 45 47 47 47 47 46 45 44 42 42 42 42 41 40 40 40 39 36 33 29 26 25 26 27 26 25 24 24 24 25 24 21 20 20 21 20 21 21 22 23 24 25 26 28 28 29 29 30 30 30 30 30 29 29 29 28 26 24
39 39 39 40 42 44 46 47 47 48 47 46 44 43 43 43 43 43 41 42 42 40 38 34 31 29 27 27 27 27 26 26 25 25 25 25 24 22 21 22 22 22 22 23 23 23 23 25 26 27 27 28 29 29 29 28 28 27 28 28 28 27 25
45 41 40 40 40 43 45 47 48 48 48 46 45 44 43 44 44 44 43 44 43 40 38 36 35 33 30 28 29 29 28 27 27 26 26 27 25 23 22 22 22 22 22 23 24 23 22 23 23 25 25 26 27 27 27 27 27 26 27 27 27 26 25
49 46 43 41 41 42 44 46 48 48 48 48 46 45 44 45 46 46 46 45 43 40 39 40 39 37 33 31 31 31 29 29 28 27 27 28 26 23 22 23 23 23 23 23 24 23 22 21 22 23 24 24 25 25 25 25 26 25 25 26 25 25 23
47 48 46 42 42 43 44 45 47 48 49 49 48 46 46 47 47 48 47 46 44 43 43 43 43 41 37 35 34 33 31 31 29 28 28 29 27 24 23 23 23 23 24 24 23 22 21 21 21 22 23 23 24 24 24 25 25 24 24 24 24 24 23
49 49 47 45 44 44 44 44 45 47 49 49 48 46 46 47 48 48 48 46 45 45 46 45 45 44 41 38 36 35 34 33 31 29 29 29 27 25 24 23 24 24 24 24 23 21 21 21 21 22 22 22 23 23 24 24 24 24 24 23 23 24 23
52 51 49 48 46 45 45 44 43 44 47 48 48 47 46 46 47 48 48 46 45 47 48 47 47 47 45 41 39 37 37 36 33 31 31 30 27 25 24 24 24 24 25 24 22 21 21 22 22 22 22 22 22 22 23 24 23 23 23 24 24 24 23
52 52 51 50 48 47 46 45 43 43 45 46 47 47 46 46 47 48 47 45 45 47 49 48 49 49 47 44 42 40 39 38 36 34 33 31 28 26 25 24 24 24 24 23 22 22 23 23 23 23 22 22 22 23 23 24 24 24 24 25 25 24 24
49 51 51 50 50 48 46 45 44 43 44 44 44 44 45 45 47 49 47 44 44 46 48 49 50 51 49 46 44 43 41 40 38 37 35 32 29 27 25 24 23 23 23 23 23 23 24 24 24 24 23 23 23 24 25 25 25 25 25 25 25 24 23
48 49 51 51 50 48 46 45 44 44 44 43 42 42 44 45 47 48 47 43 43 45 48 51 51 50 48 47 46 45 43 41 39 39 37 34 31 29 26 24 23 22 22 22 23 24 25 26 26 25 25 25 25 26 26 26 26 25 24 24 23 23 21
47 47 49 50 48 47 46 44 44 45 44 43 42 41 43 45 46 46 44 42 43 46 49 51 51 49 47 47 47 46 44 42 41 41 39 35 33 30 26 24 23 22 21 22 24 25 26 27 27 27 26 27 27 27 26 25 25 24 22 21 21 21 20
49 45 47 49 48 47 47 45 44 44 43 42 41 41 43 44 44 45 44 43 43 46 48 49 48 47 47 47 47 46 44 43 43 42 40 38 34 30 27 26 25 23 22 22 23 26 27 27 27 27 27 27 26 25 24 23 22 22 20 19 20 21 21
53 48 47 48 48 47 47 46 44 43 43 42 41 41 41 41 42 43 44 43 43 44 45 46 45 45 46 47 46 45 45 45 45 44 42 39 35 31 29 29 27 24 22 21 23 25 26 26 27 27 27 26 24 23 23 23 23 22 21 21 22 23 23
56 52 49 48 48 48 48 47 45 44 42 42 41 41 40 40 41 41 41 41 42 42 43 43 44 45 47 47 46 47 48 49 48 47 44 41 37 33 31 31 29 26 23 21 22 23 24 25 26 26 26 25 24 24 24 25 25 24 24 23 24 24 25

ECMWFFLT1_500_spd_084.txt.gz
Wind_Speed
15 17 19 18 17 17 16 14 14 14 13 12 12 13 14 16 18 20 21 21 21 21 21 21 20 19 18 17 16 15 15 14 15 15 15 15 14 13 12 11 10 8 7 6 5 5 4 4 3 3 2 2 3 4 5 6 6 7 7 6 6 6 5
16 15 18 19 18 18 17 16 16 15 14 14 14 13 13 15 16 19 21 22 22 22 22 22 22 22 20 19 18 16 16 15 15 15 15 14 14 13 12 11 10 9 7 6 5 5 4 4 3 3 3 3 4 6 7 8 9 9 10 9 8 8 7
16 16 16 17 18 18 18 17 16 15 14 15 14 13 13 14 16 18 20 22 22 22 22 22 23 24 23 21 19 18 17 16 15 15 15 15 14 13 12 11 10 8 7 6 5 4 3 3 3 4 5 5 7 9 10 12 12 12 12 11 10 9 8
14 14 16 17 18 20 20 18 17 16 14 15 15 15 14 14 15 16 18 19 20 21 21 22 23 24 24 23 21 19 18 17 16 16 16 15 14 13 12 11 10 8 8 7 6 4 3 2 3 4 6 7 9 11 13 14 14 13 12 11 9 9 8
18 16 18 19 19 18 18 17 17 16 15 15 16 17 15 14 13 13 14 16 17 19 21 23 23 24 25 24 23 22 20 18 18 17 16 15 14 13 13 12 11 10 9 8 7 6 5 4 4 5 6 8 10 12 13 13 13 12 11 10 9 8 8
26 21 19 18 17 15 13 15 16 17 17 17 17 17 15 13 11 11 11 12 14 17 19 20 21 21 23 24 24 23 21 19 18 17 16 16 15 14 14 13 12 11 10 9 9 8 7 6 6 7 8 9 10 11 12 12 12 11 10 9 8 7 7
31 25 21 18 17 14 12 14 16 19 20 19 20 18 16 14 12 11 10 10 11 14 16 17 19 20 21 23 24 23 22 20 19 18 18 17 16 16 15 13 12 11 11 10 10 9 8 8 8 8 9 10 10 11 12 12 11 10 9 8 8 7 6
34 27 24 24 23 20 17 16 17 20 21 21 20 18 16 15 14 12 10 10 10 12 15 16 18 19 21 23 24 23 23 22 20 19 19 18 18 17 15 14 13 12 11 11 11 11 10 9 9 10 10 10 11 12 12 11 10 9 8 8 7 7 6
36 28 25 27 26 22 18 16 18 21 21 21 20 18 18 17 16 13 11 10 10 11 14 16 17 19 21 22 23 24 23 22 21 19 19 18 18 17 16 16 15 13 12 12 11 11 11 10 10 11 11 11 12 12 12 11 10 10 8 8 7 6 6
32 29 28 27 23 19 18 17 17 18 20 22 22 20 20 19 17 16 14 11 10 10 12 14 16 18 20 21 23 23 23 22 21 20 19 19 18 18 18 17 15 14 13 12 11 11 11 11 11 11 11 11 12 12 12 12 11 10 9 8 7 6 6
31 31 30 27 24 21 20 20 18 15 15 19 23 23 21 20 19 16 15 13 12 10 10 12 14 17 19 21 22 23 22 22 22 21 21 20 20 20 19 18 16 15 14 13 12 12 12 11 11 12 12 12 13 13 13 12 11 10 9 9 8 7 6
32 31 29 27 28 28 25 26 25 21 17 17 22 24 22 21 19 17 17 16 14 12 10 11 12 14 17 19 21 22 22 22 22 22 22 22 21 21 20 19 18 17 15 14 13 13 12 12 12 12 13 13 13 13 13 12 11 10 9 8 8 6 5
37 35 33 30 30 33 33 32 31 28 24 20 21 23 23 22 20 19 19 18 16 14 13 12 12 12 14 16 19 21 22 22 22 22 22 22 23 22 21 20 20 18 17 16 15 14 13 13 12 13 13 14 14 13 13 13 13 12 10 8 7 6 5
44 43 41 39 38 38 38 37 35 33 29 26 25 24 23 23 22 22 21 21 19 17 15 14 13 13 13 14 16 17 19 21 21 22 22 22 23 22 22 21 21 20 19 18 16 15 15 15 15 14 14 14 14 15 14 14 14 13 12 10 9 7 6
47 46 44 44 43 42 42 40 38 37 35 33 32 29 27 27 26 25 24 24 23 20 19 17 16 15 14 15 16 16 17 18 19 21 22 22 22 22 22 22 22 22 21 19 18 17 17 17 17 17 16 15 14 15 15 15 15 15 14 13 12 10 9
44 46 46 46 46 44 42 40 39 39 39 38 37 35 33 33 31 29 27 27 27 25 23 21 19 17 16 16 17 17 17 17 17 18 20 21 22 22 23 23 23 23 23 21 20 20 19 19 18 18 18 17 16 15 15 15 16 17 17 16 15 14 13
40 42 43 45 45 43 41 40 40 42 43 42 41 39 37 36 34 32 31 30 31 30 29 26 24 21 19 18 18 18 18 18 17 17 17 19 20 22 22 23 24 24 24 24 23 22 22 21 20 19 20 20 19 18 17 17 17 18 19 18 18 18 16
43 43 43 42 41 40 40 41 42 44 45 44 43 42 41 39 37 35 34 33 32 32 32 30 27 26 24 22 21 20 20 20 19 18 17 17 18 19 21 23 23 24 24 25 25 24 24 23 22 22 22 21 21 20 20 20 20 20 20 20 20 20 19
45 45 46 47 45 42 41 42 44 46 46 45 43 43 43 43 43 41 39 37 34 33 32 31 29 27 26 25 23 21 21 21 21 20 18 18 18 18 19 21 22 23 24 25 26 26 26 25 25 25 24 23 22 22 22 22 23 23 23 22 21 21 21
42 43 45 48 50 49 47 46 46 48 49 48 45 44 45 46 47 46 45 42 39 36 34 33 31 29 27 27 25 22 22 22 22 21 20 19 19 18 17 18 20 22 24 25 26 26 25 26 26 26 26 25 24 24 23 24 24 24 24 24 23 22 22
42 42 44 45 46 48 49 48 47 47 49 50 48 47 47 48 48 49 48 46 42 39 37 35 35 33 30 28 26 24 23 22 22 22 22 20 19 18 17 17 18 20 21 23 25 25 26 26 26 27 27 27 26 26 25 25 25 25 25 25 25 24 23
47 46 47 46 45 44 45 45 46 47 48 48 48 49 49 48 49 49 48 48 45 41 39 38 38 37 33 29 27 25 24 23 23 24 23 23 21 19 18 17 17 18 19 20 22 24 25 25 26 26 27 27 28 27 27 27 27 26 26 26 26 25 24
52 51 49 47 45 45 45 44 44 47 48 46 45 48 48 47 46 45 46 48 45 40 39 40 40 39 35 30 28 27 26 26 25 24 25 25 23 21 19 18 18 18 18 18 19 20 22 23 24 25 26 27 28 27 27 28 28 28 28 28 28 26 25
51 53 52 48 45 43 43 43 43 46 47 46 47 48 46 43 42 42 45 47 42 37 37 38 40 40 34 28 27 28 28 28 27 26 26 26 25 23 22 21 20 19 19 18 18 19 20 21 22 24 25 26 27 27 28 28 29 29 29 29 29 28 26
50 53 54 52 49 46 44 44 43 43 43 44 47 47 44 41 40 39 42 44 40 37 37 37 39 39 32 26 27 30 30 30 29 28 27 26 26 26 25 24 23 21 20 19 18 18 19 20 20 21 23 24 26 26 27 28 29 29 29 30 30 29 27
55 55 56 55 54 53 52 50 46 44 44 44 45 46 44 42 40 36 36 37 37 37 39 40 42 42 34 27 27 30 31 32 32 30 28 27 27 28 28 26 26 24 23 21 20 19 19 20 20 20 21 23 24 25 26 27 28 29 30 30 30 29 28
62 60 59 58 56 56 58 56 51 48 47 46 46 48 47 44 40 37 35 34 34 37 41 44 45 45 38 30 28 30 33 34 33 31 29 29 29 30 30 29 28 27 25 23 22 21 20 20 20 20 21 22 23 24 25 26 28 29 30 30 30 30 29
66 66 65 61 58 58 58 58 56 52 50 49 48 48 48 45 41 39 37 35 34 35 39 43 47 48 42 34 31 32 34 34 33 32 31 31 32 32 32 31 30 29 28 26 24 22 21 21 21 21 21 21 22 22 23 25 27 29 30 30 29 29 29
66 68 68 64 62 62 59 58 58 56 53 51 50 49 49 47 45 44 42 39 37 35 35 39 43 45 41 36 34 35 34 33 33 33 32 32 33 33 33 33 31 30 29 29 27 25 22 21 22 22 22 21 21 22 23 24 26 27 29 30 30 29 29
67 65 67 66 65 63 61 60 61 60 57 54 53 52 51 49 49 49 46 42 41 40 37 36 38 39 37 36 37 36 35 33 33 33 33 32 33 34 35 34 33 32 31 30 29 27 24 22 22 22 22 21 21 22 23 25 25 26 28 29 30 30 30
71 67 67 69 68 64 61 61 62 61 60 59 57 56 55 53 52 52 48 45 43 41 39 39 39 40 39 39 38 37 35 34 34 33 33 32 32 33 34 34 34 32 31 31 29 27 25 23 22 21 21 22 22 22 24 25 26 26 27 29 30 30 31
75 72 70 70 69 66 62 60 60 60 61 60 59 58 56 54 54 53 50 47 45 43 41 41 41 42 43 41 40 39 37 36 35 35 34 33 32 32 33 34 34 33 32 31 28 26 25 24 23 22 22 22 21 22 25 27 27 26 27 28 30 30 31
75 75 73 70 69 68 63 59 60 62 62 60 59 57 55 53 53 53 52 50 48 46 44 43 42 42 43 42 41 41 40 38 37 37 36 35 34 33 32 33 33 33 32 29 26 25 24 23 23 22 22 22 22 23 26 28 28 27 27 28 29 30 30
71 72 72 70 68 68 66 63 62 63 63 61 59 56 54 52 51 52 52 51 49 49 47 46 45 43 42 42 42 43 42 41 40 40 39 38 37 36 34 33 33 33 31 28 26 25 24 23 23 23 23 23 24 25 27 29 28 27 27 28 29 31 31
67 67 70 70 68 68 68 65 63 64 63 62 60 57 54 52 50 50 50 49 49 50 50 49 47 46 45 44 44 44 44 43 43 43 42 41 40 39 38 36 35 33 30 28 26 26 26 24 23 23 24 26 27 27 27 28 28 29 29 30 31 32 32
69 66 68 69 68 68 67 64 63 64 64 62 60 57 53 50 48 47 47 47 47 48 50 50 49 48 47 46 46 46 46 46 45 45 45 44 43 43 42 40 37 35 33 30 29 28 28 26 24 24 26 28 28 28 28 28 31 32 33 32 32 32 33
73 69 68 69 68 68 69 66 64 65 66 63 59 55 50 48 47 46 45 44 43 45 47 49 49 49 49 48 48 48 48 48 48 48 47 47 46 46 45 42 40 37 35 33 32 32 31 30 28 27 27 28 28 29 30 30 33 34 34 32 32 32 33
76 74 71 69 67 67 69 70 68 68 68 65 59 55 51 49 48 46 45 42 41 41 43 46 48 49 50 50 50 50 50 50 50 50 50 49 48 47 46 44 42 40 37 35 34 34 33 34 32 29 28 29 30 31 31 31 33 34 34 34 33 33 32

ECMWFFLT1_500_spd_087.txt.gz
Wind_Speed
20 19 18 18 16 16 16 15 13 12 12 12 12 15 19 21 23 24 24 24 24 24 23 23 22 21 19 17 17 17 16 16 15 15 15 14 14 14 13 13 12 11 10 9 7 7 6 6 7 7 7 7 7 7 7 7 7 6 6 5 6 6 6
19 20 20 19 18 17 16 16 15 13 13 13 13 13 15 18 21 22 24 24 24 25 24 24 24 23 21 19 18 17 17 17 16 15 14 14 13 13 13 12 11 10 8 7 6 6 5 5 6 6 7 8 8 8 8 8 8 7 7 7 7 7 7
16 18 20 20 19 18 17 17 15 14 14 15 13 12 13 15 18 21 24 25 25 25 25 25 24 24 23 22 19 18 18 17 17 16 15 15 15 15 14 12 11 9 7 6 6 6 6 5 6 7 8 9 9 10 10 10 10 10 10 9 8 8 8
14 16 18 20 21 20 19 19 17 16 16 15 15 14 14 15 17 20 23 24 25 25 25 25 25 25 24 22 21 19 18 18 17 17 17 17 17 16 14 13 11 10 8 7 6 6 7 6 7 9 10 11 11 11 12 12 12 12 11 10 9 8 8
14 14 15 16 19 21 20 19 18 17 16 16 17 17 17 16 16 17 20 22 23 23 24 26 26 26 25 24 22 21 20 19 18 18 18 18 17 16 14 13 12 11 10 8 8 7 8 8 8 10 12 12 13 13 14 14 13 12 11 9 9 8 8
17 16 13 11 13 17 19 20 20 18 16 16 18 19 18 15 13 15 18 20 22 23 24 25 25 26 25 24 23 22 21 20 19 18 18 17 16 16 15 15 14 13 11 10 10 9 9 9 9 11 13 14 15 15 15 14 13 11 10 9 8 8 7
22 18 16 12 11 13 17 22 22 19 18 19 20 21 19 15 14 15 17 19 21 23 23 23 23 24 24 25 24 23 21 20 19 19 18 17 16 16 16 15 14 14 13 12 11 10 11 11 11 12 14 15 16 16 15 14 13 11 10 9 8 8 7
27 24 20 16 14 13 16 22 23 18 18 21 22 22 19 17 16 16 18 19 21 22 22 22 22 23 24 25 25 24 23 22 21 20 19 18 17 18 17 16 15 15 14 13 12 11 12 12 12 13 15 16 17 17 16 14 12 11 10 9 8 7 7
30 28 24 20 18 16 18 22 21 14 16 21 24 23 20 18 17 17 19 20 21 21 21 22 22 23 25 25 25 25 25 24 22 21 20 19 19 19 18 17 16 15 14 14 14 12 12 13 14 14 16 17 17 17 16 15 13 12 11 10 9 8 7
29 27 25 24 23 20 22 24 20 13 16 21 24 24 22 20 19 19 20 20 20 21 22 22 23 23 24 25 26 26 26 25 24 22 20 20 20 20 19 18 17 15 15 15 14 13 13 13 14 15 16 17 18 18 17 15 14 13 12 11 10 8 7
32 30 28 27 26 24 25 26 20 14 16 20 24 24 23 22 21 21 20 20 20 21 21 21 21 21 22 23 25 25 25 25 24 23 21 21 21 21 20 20 18 16 16 15 13 13 13 13 14 15 16 17 18 19 18 16 15 13 12 11 10 9 8
38 38 36 33 30 27 28 28 23 18 18 21 24 25 24 23 22 21 21 21 20 20 19 19 20 21 22 23 23 24 24 24 24 24 24 23 23 23 22 21 19 18 17 16 15 14 13 14 15 16 17 18 19 20 19 18 16 14 13 11 10 9 8
44 43 41 39 35 33 33 32 28 25 23 23 25 27 26 25 24 22 22 21 20 19 18 18 19 21 22 22 23 23 23 24 24 25 26 26 25 25 23 22 21 21 20 18 17 16 14 14 15 17 18 19 19 20 20 19 18 16 15 13 11 10 9
48 46 44 42 38 37 37 36 33 31 29 28 29 30 30 29 27 25 24 23 21 19 18 17 17 19 21 22 23 23 24 25 26 26 27 27 28 26 25 24 23 22 22 20 19 17 16 16 16 17 18 19 20 20 21 20 19 18 16 15 13 12 10
47 46 45 44 42 41 40 39 37 35 33 32 31 33 35 34 31 30 29 26 24 22 20 18 17 18 20 21 22 24 25 26 26 27 27 27 27 26 25 25 24 24 23 22 21 20 19 18 18 18 18 19 19 20 20 21 20 20 18 17 15 14 12
46 45 46 47 45 45 44 42 41 40 38 35 32 33 36 37 35 34 32 30 28 26 23 21 19 19 19 20 21 23 24 25 25 26 26 26 26 26 26 26 25 25 24 23 22 22 21 20 20 19 18 18 19 19 20 20 21 21 20 19 18 16 15
45 46 48 49 48 47 46 45 44 44 43 40 36 33 35 38 38 37 35 34 32 30 28 25 23 21 20 20 20 21 21 23 24 25 26 26 27 27 27 27 27 27 26 25 24 23 23 22 21 20 20 19 19 19 19 20 21 22 22 22 21 20 18
46 48 50 51 50 50 49 49 48 48 47 46 42 38 36 37 39 39 38 37 36 34 32 30 27 24 23 22 21 21 20 21 22 24 25 26 27 28 29 29 29 29 28 27 26 26 25 24 23 22 22 22 21 20 20 20 21 22 23 23 23 22 21
49 50 54 54 52 52 52 52 52 51 50 49 46 43 40 39 40 40 40 38 38 38 36 34 32 29 27 25 24 22 22 21 21 22 24 25 27 28 29 29 29 29 30 29 29 29 28 26 25 25 24 24 23 23 22 22 23 23 23 23 24 23 23
53 54 57 58 57 56 56 55 54 53 51 50 49 46 45 44 43 42 42 40 39 40 39 37 36 34 32 30 27 25 24 23 22 22 22 23 25 27 28 29 29 30 30 31 31 30 29 28 28 27 27 26 25 25 25 25 25 25 25 24 24 24 24
57 58 59 60 60 60 59 58 56 54 51 50 49 48 48 48 47 45 44 43 42 42 41 40 38 36 35 35 33 31 29 27 25 24 24 23 24 24 25 27 28 29 30 31 31 31 30 30 30 30 29 29 28 27 27 27 28 27 27 26 25 25 25
60 61 62 62 62 62 62 61 59 57 55 52 50 49 50 51 51 50 47 46 44 43 43 42 40 38 36 36 36 36 34 32 30 29 28 27 26 25 24 25 26 28 29 30 30 30 30 31 31 31 31 31 30 29 28 29 29 29 28 28 28 27 25
61 62 61 61 62 63 62 62 62 59 56 54 52 51 52 53 54 53 51 49 48 46 45 44 42 41 39 37 36 36 36 35 34 32 31 30 28 27 25 25 26 26 27 27 28 29 29 30 30 31 31 31 31 31 30 31 31 31 30 30 30 29 27
63 61 60 60 61 62 62 62 61 59 56 55 54 54 54 55 56 55 54 52 51 49 47 45 44 44 42 39 37 37 37 37 35 34 33 32 30 29 27 27 27 26 26 26 26 27 28 29 30 31 31 31 31 31 31 32 33 33 32 32 32 31 29
67 63 62 63 61 60 60 61 60 59 57 56 55 55 54 52 53 54 54 54 54 52 49 47 45 44 43 42 40 39 39 37 34 32 32 32 31 30 29 29 28 28 27 26 26 26 26 27 28 29 29 30 30 30 30 31 32 33 33 33 33 32 31
67 65 63 64 62 58 59 62 61 59 58 57 55 55 53 50 49 50 51 52 53 53 51 49 46 44 44 44 43 41 39 38 33 30 29 30 31 31 31 31 30 29 28 27 27 26 27 26 26 27 27 28 29 29 29 30 31 32 33 33 33 33 33
61 63 62 61 60 60 61 63 63 61 59 58 56 54 52 50 49 49 49 49 50 50 49 48 46 46 47 46 45 44 42 40 36 31 29 29 30 32 32 32 31 31 30 29 28 27 27 26 26 25 26 27 27 28 28 29 30 32 32 32 32 32 33
59 60 62 60 59 60 62 63 64 63 61 59 57 55 53 51 51 50 50 50 48 46 46 46 47 49 50 49 48 46 43 42 39 34 31 30 31 31 32 33 33 33 32 32 31 29 28 27 26 25 25 25 26 26 27 28 29 30 31 31 31 32 32
62 59 61 62 60 60 61 61 61 60 59 57 55 54 52 51 51 51 51 50 47 45 45 46 49 51 50 49 50 47 44 44 42 37 34 33 32 32 32 33 34 35 35 34 33 32 30 28 27 26 25 24 24 24 25 27 29 29 30 31 31 31 31
69 62 59 58 57 57 58 61 61 60 57 54 52 52 51 48 48 48 49 48 47 46 46 47 50 51 50 49 49 46 44 46 46 41 37 36 35 34 34 34 35 36 37 37 36 35 33 30 28 27 25 25 24 24 25 26 27 28 30 31 32 32 30
74 68 60 56 57 56 54 57 62 62 59 56 52 51 51 48 45 44 44 44 47 48 48 47 49 50 51 51 49 44 43 47 47 43 40 38 38 37 36 36 37 37 38 38 38 37 35 33 31 29 26 25 25 25 26 27 28 28 29 31 32 33 32
77 73 65 59 60 61 57 56 59 60 60 58 55 53 52 50 48 44 41 40 45 50 51 48 47 47 48 50 48 44 44 47 46 42 40 40 40 39 39 39 39 39 39 39 39 38 37 35 33 31 29 27 25 26 28 29 29 28 29 30 32 33 33
79 77 72 65 63 64 61 58 58 59 60 61 59 57 55 53 51 49 44 41 43 48 51 50 46 45 45 46 46 47 48 50 47 42 40 41 42 41 41 41 42 41 40 39 38 38 38 37 36 34 31 29 27 27 29 30 31 31 31 30 31 32 33
81 79 76 72 67 64 62 58 57 57 60 63 63 61 60 58 55 53 50 46 44 46 49 50 48 47 45 44 44 46 49 54 54 48 43 43 44 44 43 43 43 42 41 39 37 37 37 37 36 35 33 31 30 30 30 30 32 32 31 31 33 35 35
84 81 79 77 73 68 64 60 57 56 58 62 65 64 62 60 57 54 52 50 49 49 50 49 49 49 47 44 43 43 46 51 56 54 49 46 47 46 45 45 44 43 41 39 38 37 36 35 35 34 34 33 33 33 32 31 31 32 33 35 37 37 36
87 85 83 81 78 74 68 64 62 61 59 60 62 63 62 60 57 55 52 51 52 54 53 51 51 51 49 47 46 47 47 48 51 52 51 50 49 48 47 47 46 44 42 40 39 37 36 35 34 34 34 34 34 34 33 32 31 33 36 37 38 37 36
90 87 85 83 81 79 74 68 67 67 66 63 62 62 61 59 57 55 52 52 54 56 55 53 52 53 52 51 50 51 51 51 50 51 52 53 52 52 51 50 48 46 44 42 40 38 36 36 35 34 34 34 34 34 34 33 33 35 36 37 37 37 37
92 89 87 85 82 79 76 73 71 71 70 68 67 65 62 59 57 56 54 53 56 58 57 55 53 53 54 54 54 54 54 54 54 55 55 55 55 55 54 52 50 48 46 44 42 40 39 38 37 36 35 34 34 33 33 33 33 34 36 37 38 38 38

ECMWFFLT1_500_spd_093.txt.gz
Wind_Speed
27 26 26 26 25 25 25 24 23 21 19 17 17 18 21 23 23 23 24 24 24 23 22 21 20 19 19 19 18 18 19 19 19 19 18 17 16 15 15 15 14 13 12 11 10 11 11 11 12 12 11 11 11 11 12 12 12 12 11 11 10 9 9
28 26 25 25 24 23 24 25 26 24 22 20 19 19 20 22 24 24 25 26 26 25 24 23 22 22 21 21 20 20 20 20 19 19 18 17 16 16 15 14 14 13 12 11 11 12 12 12 12 12 12 12 12 12 12 12 12 12 12 11 10 10 9
28 26 24 24 23 22 24 26 25 24 23 21 19 18 18 20 23 25 26 27 27 27 26 25 24 23 23 23 22 21 21 20 19 19 18 18 17 17 16 15 14 13 12 12 13 12 12 12 12 13 13 13 13 13 13 13 13 12 12 11 10 10 10
28 26 26 24 24 23 25 25 24 23 23 22 20 18 17 19 22 24 27 28 29 28 28 27 26 25 25 24 24 24 23 22 21 20 19 19 19 18 17 15 14 14 13 13 12 12 12 12 12 13 13 14 14 14 14 13 13 12 12 11 11 10 10
27 26 25 25 25 27 28 26 24 23 23 22 21 20 19 19 20 23 25 28 30 30 30 30 28 27 26 25 25 25 25 24 23 22 21 21 20 18 17 16 15 15 14 13 12 11 12 12 12 12 13 14 15 15 14 14 13 12 11 11 11 11 10
26 24 24 24 25 28 30 28 27 27 25 24 23 23 22 21 19 20 23 26 29 31 32 31 29 28 27 26 26 26 26 25 24 23 22 21 20 19 18 18 17 16 15 13 12 12 12 12 12 12 13 14 15 15 15 14 13 12 12 11 11 10 11
24 23 22 22 23 26 27 27 27 29 28 26 25 24 23 22 20 20 22 24 27 30 31 31 31 29 28 27 27 27 26 26 25 25 24 22 21 20 19 18 17 17 16 14 13 12 12 12 11 11 12 13 14 15 14 14 13 12 12 11 10 10 11
24 23 22 22 23 25 27 27 28 29 30 29 27 26 24 23 21 20 20 21 25 28 30 31 32 31 31 29 28 27 27 27 27 26 25 24 22 21 20 19 18 18 17 16 15 14 14 13 12 11 12 12 13 14 14 14 14 13 13 11 10 10 10
25 24 24 24 24 26 28 29 29 29 31 31 30 29 27 25 23 21 20 21 23 25 28 30 32 33 33 32 30 29 29 28 28 27 26 25 23 23 22 21 20 19 18 18 17 16 15 14 13 12 12 12 13 14 14 15 15 14 13 12 11 10 9
27 26 26 26 26 26 27 29 30 30 30 31 31 31 30 27 26 25 23 22 22 24 28 31 32 34 34 34 33 32 31 30 29 28 26 25 25 24 24 23 22 21 21 20 19 18 17 16 15 14 14 14 14 14 15 16 16 15 14 12 11 10 9
30 28 27 27 28 28 28 28 29 30 31 31 32 32 31 29 28 28 26 25 24 26 29 31 33 34 35 35 36 35 33 32 31 29 27 26 26 26 26 26 25 24 23 22 21 20 19 18 17 16 16 16 16 16 17 17 17 16 14 13 12 10 10
34 31 29 29 30 31 30 28 29 30 31 31 32 32 31 29 29 29 29 28 28 28 30 32 34 35 36 37 37 37 36 34 33 31 29 28 28 28 28 28 27 26 25 24 23 22 21 19 19 18 18 18 18 18 19 18 18 17 15 14 12 11 10
39 36 33 31 31 33 32 30 29 29 29 30 31 30 29 30 30 30 30 30 30 31 32 33 36 37 38 38 38 38 38 37 35 34 32 31 31 30 30 29 28 28 27 26 25 23 22 21 20 20 20 20 20 20 20 20 19 17 16 14 13 12 12
44 41 39 36 34 34 34 32 31 29 28 28 29 30 30 31 31 31 30 30 31 32 32 33 35 37 39 40 40 40 39 39 38 37 36 35 34 33 32 31 30 29 28 27 26 24 23 22 22 22 22 22 21 22 21 21 20 18 17 16 15 14 14
46 45 45 42 38 36 36 35 33 31 29 28 28 30 32 33 33 32 32 32 32 32 32 32 33 36 38 40 40 40 41 41 41 40 39 38 36 35 34 32 31 30 29 28 27 25 24 24 24 24 24 23 23 23 23 22 21 20 19 18 17 17 16
46 46 47 48 45 41 39 38 36 33 32 31 30 30 32 34 35 34 33 34 34 34 33 32 32 33 36 38 40 41 42 43 43 42 42 40 39 38 36 35 33 32 30 29 28 27 26 25 25 25 25 25 25 25 24 23 23 23 22 21 20 20 19
46 46 47 50 50 47 44 42 40 37 35 35 34 33 32 33 34 35 35 36 37 36 35 34 32 32 33 35 38 41 42 43 44 44 43 43 42 40 39 38 36 34 32 31 30 28 27 26 26 26 26 26 26 26 25 25 25 26 25 24 23 22 21
47 47 47 50 52 52 50 48 45 43 40 39 39 38 37 35 35 35 36 38 39 39 38 36 34 32 32 33 36 40 42 43 44 44 44 44 43 43 42 41 39 37 34 33 31 30 29 28 27 27 27 27 26 26 26 27 28 28 28 27 26 25 24
48 48 48 49 51 53 54 53 50 47 45 43 42 41 41 40 39 37 37 38 41 41 40 38 37 35 34 34 36 38 41 42 44 44 45 45 44 44 44 43 41 39 37 35 34 33 31 29 28 28 27 27 26 26 26 28 29 30 30 30 29 28 27
49 49 49 49 50 52 54 55 54 52 50 48 45 44 44 44 42 41 39 39 41 43 43 41 40 38 37 37 37 38 40 42 43 44 45 45 45 45 45 44 43 41 39 37 36 34 32 30 29 28 28 27 26 26 26 28 30 31 31 32 32 31 30
50 50 50 50 50 52 54 55 56 56 55 53 50 47 46 46 45 44 42 40 41 43 44 44 43 41 40 39 39 40 41 42 43 44 45 46 46 46 46 45 43 42 41 39 37 35 33 32 30 29 28 28 27 27 26 27 30 31 32 33 33 33 33
51 51 51 51 51 52 53 54 55 56 57 56 54 51 49 48 47 47 46 44 43 43 45 46 46 44 43 42 41 41 41 42 44 45 46 46 47 46 46 45 43 42 41 40 39 37 35 34 32 31 30 29 29 28 27 28 30 31 32 33 34 34 34
52 52 52 52 52 52 53 53 53 53 54 55 55 54 53 51 50 50 48 46 45 45 46 47 48 47 46 45 44 43 42 42 43 44 45 46 46 45 45 44 43 42 41 40 39 38 37 37 35 34 33 32 31 29 29 30 32 32 33 33 34 33 33
53 54 54 54 54 54 53 53 53 52 52 53 54 54 54 54 53 53 51 49 48 47 47 48 50 51 49 48 46 45 44 43 43 44 44 44 44 43 43 42 41 41 40 40 39 38 38 38 37 36 35 33 32 31 31 32 34 34 34 34 34 33 32
54 55 57 57 57 56 55 55 54 53 53 53 54 55 55 56 56 55 55 53 51 50 51 52 54 55 54 52 50 48 46 45 44 43 43 42 42 42 41 40 40 39 39 39 38 38 38 38 37 37 36 34 33 32 32 33 35 36 36 36 36 34 33
56 57 59 61 60 59 58 57 56 56 55 54 55 57 57 57 58 58 58 57 55 55 56 56 56 56 54 52 50 48 46 45 44 42 41 41 40 40 40 39 39 39 38 38 37 37 37 37 37 37 37 36 34 33 32 33 35 37 38 38 38 36 34
58 58 61 63 63 62 61 60 59 58 57 56 57 59 60 60 60 61 60 59 59 59 59 58 56 55 53 52 51 48 45 44 43 41 40 40 40 39 38 38 37 37 37 37 36 36 36 37 37 37 36 35 34 32 31 33 35 37 39 40 40 39 37
58 60 62 65 66 65 64 63 61 60 59 58 58 60 62 62 62 63 63 62 62 63 62 59 57 56 55 53 53 51 48 47 46 44 42 42 41 39 38 37 36 36 35 35 35 35 35 36 35 34 33 32 31 29 28 30 33 36 38 39 40 40 38
57 60 62 65 68 68 67 67 65 63 61 61 60 61 62 63 64 64 64 64 64 65 64 61 59 59 57 55 54 53 52 51 49 46 45 43 42 41 39 38 37 35 34 35 35 34 34 33 32 30 30 29 27 25 25 26 29 33 35 37 38 38 37
57 58 61 65 69 71 71 70 69 67 65 64 63 63 63 64 65 65 64 64 64 64 63 62 62 61 59 57 54 54 55 53 51 48 47 45 44 43 41 40 38 37 36 35 35 34 33 33 32 30 28 28 26 25 25 26 28 30 32 33 34 34 34
62 60 61 63 67 72 74 73 72 71 70 67 66 65 65 65 66 67 66 65 65 65 63 62 63 63 62 59 56 53 54 54 53 52 50 49 48 46 45 44 41 38 38 37 36 35 35 34 33 31 30 29 28 27 27 28 28 29 29 30 30 30 29
69 66 64 63 65 70 74 76 75 75 74 72 69 67 66 66 67 67 68 68 68 68 65 63 63 64 64 63 60 56 54 54 54 53 52 51 50 47 46 47 44 40 39 39 37 36 37 37 35 34 32 30 30 30 30 29 29 29 30 30 30 29 29
74 72 69 67 66 68 72 76 78 78 77 76 74 70 67 66 67 68 69 70 70 69 68 66 65 65 66 66 65 62 58 55 54 54 53 53 53 46 41 43 45 42 40 40 38 36 38 38 37 36 34 32 32 32 32 32 31 31 31 31 31 30 30
79 78 76 73 70 69 71 74 78 81 80 79 78 75 71 68 67 67 68 71 72 71 69 69 68 67 68 68 67 66 64 59 56 55 54 54 56 52 45 44 45 44 43 42 40 39 39 39 39 38 37 36 35 35 35 34 33 33 32 33 34 33 33
80 81 81 79 76 73 72 73 76 80 83 82 81 79 76 73 71 67 64 66 72 74 71 69 69 69 69 70 69 68 67 64 60 59 57 56 57 56 52 49 48 47 46 45 44 42 42 42 42 41 40 40 39 38 37 36 35 35 35 36 36 36 35
74 80 83 83 82 79 76 75 75 78 82 85 84 83 81 78 77 73 63 59 66 74 74 70 68 69 71 72 71 69 68 66 63 61 60 60 60 58 55 53 53 52 50 49 48 47 45 45 45 44 44 43 42 40 39 38 38 38 39 39 38 37 36
62 71 79 84 86 84 81 78 77 77 80 84 87 88 86 83 82 80 71 59 58 66 72 71 70 69 71 73 74 72 70 67 65 63 61 62 62 60 57 56 55 55 53 52 52 51 50 49 48 47 46 46 44 41 40 40 40 41 41 41 40 40 39
52 59 69 78 85 87 85 83 81 79 79 82 86 89 90 88 85 85 80 69 59 57 62 67 70 70 70 72 75 75 73 69 67 65 63 62 63 62 59 58 58 56 55 54 54 54 53 52 51 50 49 48 46 45 43 41 42 43 43 43 43 43 42

ECMWFFLT1_500_spd_096.txt.gz
Wind_Speed
23 24 25 25 25 25 24 24 24 24 23 21 22 23 23 23 22 23 23 23 23 24 23 22 21 20 19 19 19 19 19 20 21 20 19 18 17 16 16 15 14 13 11 10 9 9 9 9 9 9 9 9 10 10 9 9 9 9 9 9 8 8 8
24 25 26 26 26 26 25 25 23 23 24 24 24 24 24 24 24 24 24 24 24 25 24 23 23 22 21 20 20 20 20 21 21 20 19 19 18 18 17 16 15 13 12 11 10 10 9 9 10 10 9 10 10 10 10 9 9 9 9 8 8 8 8
26 26 27 28 28 27 27 26 24 23 23 25 25 25 24 25 25 26 26 26 26 26 25 25 24 23 23 22 21 21 21 21 21 20 20 20 20 19 18 17 16 14 13 12 12 11 11 11 11 11 10 10 11 11 10 10 9 9 9 8 8 8 8
28 28 27 28 29 28 28 28 27 24 23 25 26 25 25 26 27 28 28 28 28 27 27 27 26 25 24 23 23 23 23 23 22 22 22 21 20 19 18 17 16 15 14 14 13 12 11 11 11 11 11 11 12 12 11 11 10 9 9 9 9 9 8
30 29 28 29 29 28 29 29 28 27 25 25 26 26 26 27 29 30 30 30 30 30 30 29 27 26 25 26 25 25 25 24 24 23 23 22 20 20 19 18 17 16 16 15 14 12 11 11 11 11 12 12 12 13 12 12 11 10 10 9 9 9 8
32 31 29 29 29 29 30 30 30 29 28 27 27 27 27 27 29 30 31 31 31 31 31 30 28 27 27 27 27 27 27 26 25 24 23 22 21 21 20 19 18 17 17 16 14 13 11 11 11 11 11 12 12 13 13 12 11 11 10 10 10 9 9
33 33 32 31 30 30 31 32 32 31 30 30 29 29 28 27 28 29 31 32 32 32 32 31 30 29 28 28 28 28 28 27 27 26 25 24 22 22 21 20 19 18 18 16 15 13 12 11 10 10 10 11 12 12 12 12 11 11 11 11 10 9 9
33 34 33 31 31 31 32 32 32 32 33 32 31 30 29 28 28 29 30 32 33 33 33 33 32 31 30 29 28 28 28 28 28 27 26 25 24 23 23 22 21 20 19 18 17 15 13 12 11 10 10 10 11 12 12 12 12 12 12 11 11 10 9
33 32 31 30 30 31 32 33 33 34 35 34 32 32 31 30 28 27 29 32 33 33 33 34 34 33 32 30 29 30 30 29 29 28 27 26 25 25 24 23 23 21 20 19 18 17 15 14 12 11 10 10 10 11 11 12 12 12 12 12 11 10 10
34 32 30 30 29 28 29 29 28 31 35 35 33 33 32 30 29 28 28 30 32 32 33 35 36 36 34 33 32 31 31 30 30 29 28 27 26 26 26 25 24 23 22 21 20 19 17 16 14 12 11 11 10 11 11 12 12 13 13 13 12 11 10
36 34 31 30 29 27 26 25 24 26 30 30 31 34 34 32 30 29 28 28 30 33 34 35 36 37 36 35 35 33 32 32 31 30 29 28 28 28 28 27 26 25 24 23 22 21 20 18 16 14 13 12 12 11 12 12 13 13 13 13 13 11 11
38 37 35 32 31 29 27 26 24 25 27 27 28 31 33 33 33 31 29 27 28 32 35 36 36 37 37 38 37 36 34 34 33 32 31 30 30 30 30 29 27 27 26 25 24 23 22 20 18 16 15 15 14 13 13 13 13 14 14 14 13 12 12
40 39 38 36 33 32 30 28 27 26 27 28 29 30 30 32 33 33 31 29 28 29 33 35 36 37 38 39 39 38 37 36 35 34 33 33 32 32 31 30 29 28 27 27 26 25 24 22 21 19 18 17 16 15 14 14 14 15 15 15 14 13 13
43 42 41 40 37 34 32 30 30 30 29 29 30 31 32 32 32 33 33 32 30 29 30 33 36 37 38 39 40 39 39 38 38 37 35 35 34 33 32 31 30 29 28 28 27 27 26 24 23 22 21 19 18 17 17 16 16 16 16 16 16 15 15
45 45 44 43 40 37 35 33 32 33 33 32 30 30 32 33 32 33 34 35 33 31 30 31 33 35 36 38 40 40 40 41 40 39 38 37 36 35 34 33 32 31 29 28 28 28 27 26 25 24 23 22 21 20 19 18 17 18 18 18 18 18 17
47 47 47 46 44 41 38 36 35 35 35 34 31 29 30 32 32 32 34 38 37 33 31 31 31 32 33 35 37 39 40 41 42 41 40 39 38 37 36 35 33 32 31 30 29 29 28 27 27 26 25 24 23 22 22 20 20 21 21 21 21 21 20
48 49 49 49 48 45 42 40 38 37 36 35 32 29 29 30 31 30 31 35 37 35 33 33 32 31 31 31 33 36 38 40 42 42 41 40 40 39 38 37 35 34 33 31 30 29 29 28 27 26 26 26 25 24 24 23 23 24 24 24 24 23 23
48 50 51 52 51 49 46 44 41 40 39 38 35 32 30 31 31 30 29 30 33 34 34 34 33 32 32 31 32 33 35 38 40 41 41 42 42 41 41 40 38 36 34 33 32 31 30 29 28 27 27 27 26 25 24 24 25 26 27 26 26 26 25
48 50 52 53 54 52 50 47 45 43 42 42 39 37 34 33 32 32 30 30 31 33 34 35 35 34 34 33 33 33 34 36 38 39 40 41 42 43 43 42 40 39 37 36 34 33 31 30 28 27 27 27 26 25 25 25 26 27 28 28 27 28 27
49 50 51 53 55 56 55 53 50 48 46 46 44 41 39 36 35 34 34 33 33 33 33 33 34 34 35 36 35 35 35 36 37 38 40 41 42 44 44 44 43 41 40 39 37 35 33 31 30 28 27 27 26 26 26 26 26 28 29 29 29 29 29
51 51 51 53 54 56 58 59 57 54 52 50 49 46 43 41 39 38 37 37 37 36 35 34 33 33 35 38 38 37 37 37 37 38 39 40 42 43 44 45 45 44 43 42 40 37 35 33 32 30 28 28 28 27 27 26 27 28 30 31 31 31 31
53 52 52 53 53 55 56 58 58 58 57 56 53 51 47 45 43 42 40 40 40 39 39 38 36 35 36 38 40 41 40 39 38 39 39 40 41 42 43 44 45 45 45 44 43 41 39 36 34 32 30 30 29 29 28 28 29 29 30 32 33 33 32
55 55 55 54 54 54 54 55 56 57 59 60 59 56 52 49 48 46 45 43 42 42 42 41 41 40 38 38 40 42 43 42 40 40 40 40 40 41 42 43 44 45 46 45 44 43 41 40 38 35 33 32 31 30 30 31 31 31 31 32 33 33 32
57 57 57 56 55 55 55 55 55 56 58 61 62 62 59 55 53 52 50 48 46 44 43 43 43 43 43 41 40 42 44 45 43 42 42 41 40 40 42 43 44 45 46 45 45 44 43 42 41 39 36 34 33 32 32 32 33 32 33 33 33 32 31
58 58 58 58 58 57 56 56 56 56 57 59 62 64 64 62 59 57 55 53 51 48 45 44 44 45 46 45 43 43 45 47 46 45 44 43 42 42 43 44 45 45 46 45 45 45 44 43 42 41 39 37 36 35 34 34 34 34 34 35 35 33 32
58 59 59 59 59 58 58 58 58 58 57 58 60 63 65 66 65 63 60 58 56 53 50 48 47 47 48 49 48 46 46 48 49 48 47 46 46 46 45 45 46 46 46 46 46 45 44 43 42 41 40 39 38 37 36 36 36 36 36 37 36 35 33
54 57 59 59 59 59 59 59 60 60 59 59 60 61 63 65 66 66 66 64 62 59 56 53 51 50 51 52 51 50 50 50 50 50 50 50 50 49 47 46 46 47 47 47 46 45 43 43 42 41 41 40 40 39 38 38 38 38 38 38 38 37 35
49 51 55 58 59 60 60 60 60 61 62 62 61 61 62 62 63 65 66 67 67 65 63 59 56 54 54 54 53 53 53 52 50 50 51 53 52 50 47 46 45 45 46 47 46 45 44 42 42 41 41 41 40 40 39 39 39 39 39 39 39 38 36
49 48 50 53 57 59 60 60 60 61 63 64 63 63 63 63 62 62 63 64 66 66 66 64 62 60 58 57 56 56 56 54 53 52 52 53 54 52 49 47 45 43 43 44 44 44 44 42 41 41 41 41 41 40 39 39 39 39 39 39 39 38 37
52 51 50 51 53 56 58 59 60 61 63 65 66 65 65 65 64 63 61 61 62 64 64 63 63 63 61 60 59 59 58 57 56 55 54 53 53 54 53 50 47 44 43 42 41 42 43 41 40 41 41 41 41 40 39 40 40 40 39 38 38 38 37
56 56 55 54 54 55 56 58 59 60 62 65 67 67 67 67 66 64 63 62 61 62 62 62 62 63 63 62 61 61 60 59 59 58 57 54 52 52 54 53 50 45 43 41 40 41 41 39 38 39 40 41 41 40 39 39 40 39 37 35 35 35 35
61 61 60 59 58 58 58 58 58 59 61 63 67 69 69 69 68 67 65 63 62 62 63 63 63 63 64 63 63 62 62 62 61 60 59 57 54 52 52 54 53 48 45 44 42 41 41 39 37 38 40 40 40 40 39 39 39 38 36 34 33 33 33
66 66 65 65 64 63 62 61 60 60 60 62 65 68 71 71 71 69 68 66 65 64 64 64 64 65 65 65 64 63 63 63 62 61 60 59 57 54 52 53 55 52 48 46 44 43 42 41 39 39 40 41 42 41 40 40 39 38 37 36 34 34 33
68 69 69 69 69 69 68 66 64 63 62 62 63 66 70 72 73 73 70 69 67 66 65 65 66 66 67 67 66 65 63 63 63 62 62 61 60 58 55 53 55 55 52 49 47 46 44 41 39 39 39 41 43 43 43 42 40 39 39 38 36 35 35
62 66 69 70 71 73 73 73 71 69 67 65 65 66 68 71 74 76 74 72 70 68 67 67 68 67 67 68 68 66 65 65 63 62 62 62 61 60 58 55 55 56 55 52 50 48 46 43 40 39 39 40 41 43 44 44 43 42 42 40 38 36 36
51 56 61 65 67 70 73 76 77 76 73 71 69 68 68 69 73 76 78 76 74 71 69 69 69 69 68 68 68 67 66 66 65 63 62 62 62 62 60 58 56 55 55 55 54 51 49 47 44 42 42 42 41 42 44 44 43 43 42 41 39 37 36
45 48 52 56 60 63 66 71 75 78 79 78 75 73 72 71 71 74 78 80 79 76 72 70 70 71 71 70 68 68 67 66 66 65 62 61 61 62 61 60 59 56 54 54 55 53 52 50 48 47 48 45 42 42 45 45 44 40 37 37 37 36 36
44 46 48 51 53 56 59 63 68 73 77 80 80 79 77 75 73 73 76 80 82 81 77 74 71 71 73 72 70 69 68 67 66 65 64 62 61 61 61 61 61 59 56 54 52 52 52 51 50 51 52 48 44 43 45 45 42 37 32 32 34 34 36

ECMWFFLT1_500_spd_102.txt.gz
Wind_Speed
14 16 14 13 13 14 16 15 14 14 14 13 11 11 12 14 15 15 14 15 15 15 14 14 14 14 14 14 14 14 15 15 14 13 11 10 10 9 8 8 7 6 6 6 6 5 5 4 4 4 4 4 4 3 3 3 3 3 3 2 2 2 3
16 15 15 14 13 13 14 14 15 16 15 14 12 12 12 13 15 16 16 17 17 17 16 15 15 15 15 15 15 16 16 17 16 14 13 12 11 10 9 8 8 7 7 7 7 6 5 5 4 4 4 4 4 4 4 4 4 3 3 3 3 3 3
18 15 16 17 15 14 14 14 16 16 16 15 13 13 14 13 14 16 17 19 18 18 18 17 16 15 15 15 16 16 17 18 17 16 15 13 12 11 10 9 9 8 8 8 8 7 6 6 5 4 4 4 4 4 4 5 4 4 4 4 3 3 3
20 20 20 21 20 17 14 14 17 17 16 16 14 15 16 16 16 16 17 19 20 20 19 19 18 17 16 16 16 17 18 18 18 17 16 14 13 12 11 11 10 9 10 9 9 8 7 6 6 5 5 5 5 5 4 5 5 5 5 5 4 4 4
21 22 22 22 22 20 17 15 17 19 18 16 16 17 18 18 18 18 19 20 21 22 22 20 20 19 18 17 17 17 18 19 19 17 17 15 15 14 13 12 11 11 11 11 10 9 8 8 7 6 5 5 5 5 5 5 5 5 5 5 5 5 4
21 22 21 21 22 22 21 20 19 19 19 17 16 18 19 19 19 18 20 21 21 23 22 21 21 20 19 19 18 18 19 19 19 18 17 16 16 16 15 14 13 12 12 12 12 11 9 9 8 6 6 5 6 6 6 6 6 6 6 6 6 6 5
22 23 23 22 22 22 22 22 21 19 18 18 18 19 19 18 18 21 22 22 21 22 23 23 23 22 20 20 19 19 20 20 20 19 18 17 17 17 16 15 14 14 13 13 13 12 10 10 8 7 6 6 6 6 6 6 6 7 6 7 7 6 7
24 24 25 25 24 23 22 22 22 20 19 20 20 19 19 19 20 23 23 21 22 24 25 25 25 23 22 21 21 21 21 21 21 20 19 18 18 18 17 16 15 15 14 14 14 12 11 10 9 8 7 7 6 6 6 6 6 7 7 7 7 7 8
27 27 27 27 27 25 23 23 22 22 23 22 20 19 21 22 21 21 22 22 22 24 26 26 25 25 25 23 22 22 23 22 22 22 21 20 19 18 18 17 16 16 15 15 14 13 12 11 10 9 8 8 7 6 6 6 6 6 7 7 8 8 8
28 29 29 28 29 28 26 25 24 25 25 23 20 19 20 20 20 20 22 23 23 24 27 27 26 27 27 25 23 23 23 22 22 22 21 21 20 19 19 19 18 17 17 16 15 14 13 12 11 10 10 9 8 6 5 5 5 6 6 7 8 9 9
28 30 30 30 30 30 29 28 27 26 26 25 22 19 19 19 20 21 22 23 24 27 30 31 31 29 28 27 25 24 24 24 23 23 22 22 22 21 20 20 19 18 18 17 16 15 15 14 13 12 11 10 9 7 5 5 5 5 6 7 8 9 10
30 30 31 31 32 32 32 31 30 29 28 27 24 20 21 22 22 21 22 24 26 29 33 34 32 30 29 29 26 24 24 24 24 24 24 23 24 23 22 21 20 20 20 19 18 17 17 16 15 14 13 12 10 8 7 5 5 5 5 6 7 9 10
32 32 32 32 33 33 33 33 33 32 30 30 27 23 23 25 25 24 23 24 25 27 32 33 29 27 28 28 26 25 25 25 25 25 26 26 26 26 24 22 21 21 21 20 20 19 19 18 17 16 15 14 12 10 9 7 6 6 6 6 7 8 10
35 35 34 34 34 34 34 35 35 35 34 32 31 28 25 23 26 26 22 19 20 21 26 30 27 25 26 26 26 27 28 27 24 25 26 27 28 28 26 24 22 21 22 22 21 20 20 20 20 19 18 16 14 12 11 10 9 9 8 8 8 9 10
36 37 37 37 36 36 36 36 37 38 37 36 34 32 28 25 26 26 21 17 15 16 22 27 27 26 25 26 28 29 29 28 26 26 27 28 28 27 26 25 24 23 23 23 22 22 22 21 21 20 19 18 17 15 13 12 11 11 11 11 10 10 11
37 38 40 40 39 39 38 39 39 39 39 39 37 34 31 28 27 28 26 21 17 16 19 23 26 25 24 24 27 28 27 27 26 27 30 31 28 27 27 27 26 25 24 23 23 23 23 22 22 21 20 19 19 18 16 14 14 14 14 14 13 12 12
37 39 40 42 42 41 41 41 41 41 40 40 40 37 34 31 29 29 28 26 23 21 19 21 24 26 25 25 26 26 25 24 25 28 32 32 29 27 28 29 28 27 26 25 25 24 24 23 23 22 21 21 20 20 18 17 16 17 16 16 15 15 14
38 39 40 42 44 44 44 43 43 43 42 41 41 41 38 35 32 31 29 27 26 25 22 22 23 25 27 29 29 28 28 28 28 30 32 33 31 30 30 31 30 29 29 28 27 26 26 25 24 23 22 22 21 21 20 19 18 18 19 19 18 17 16
39 40 41 42 44 45 46 46 46 45 45 43 43 43 42 40 36 34 32 29 28 27 26 25 26 27 28 30 31 29 27 27 29 31 33 34 35 35 33 32 32 32 31 31 30 30 29 28 26 25 24 23 22 21 21 21 21 20 20 21 21 20 19
41 42 42 42 43 45 46 47 48 47 47 46 45 44 45 44 42 39 36 33 32 31 29 28 29 30 28 29 32 30 26 27 29 30 31 33 36 36 34 32 32 32 32 32 32 31 30 29 28 27 26 25 24 23 22 22 22 22 22 22 23 23 22
42 43 43 43 44 45 46 47 48 48 48 48 47 46 45 46 45 43 40 38 35 33 33 32 31 31 29 29 31 30 29 29 30 31 32 33 34 35 34 32 31 30 31 33 32 29 27 28 29 28 27 26 26 25 24 23 23 24 23 23 25 26 25
42 43 44 44 45 46 46 47 48 49 49 49 49 48 47 46 47 46 44 42 39 36 35 34 34 33 31 31 31 32 30 30 30 33 35 35 33 33 34 32 30 30 30 32 32 30 27 28 29 28 28 28 28 27 26 25 25 26 25 24 26 28 28
43 44 45 45 46 46 47 47 48 49 50 50 51 51 49 48 48 47 46 45 43 41 39 37 35 35 34 33 33 34 33 31 31 33 35 35 33 32 31 30 29 29 29 30 32 32 29 28 29 28 28 29 30 30 29 29 28 28 27 27 27 29 29
46 46 46 47 47 47 47 48 49 50 50 51 52 52 53 52 50 48 47 46 45 44 43 41 38 37 36 35 35 36 35 34 33 32 32 33 33 33 31 29 28 27 27 27 30 31 30 30 29 28 30 31 32 31 31 31 32 32 31 30 30 30 30
49 48 48 49 50 48 48 50 51 51 51 51 52 53 54 54 53 51 49 48 47 46 46 45 43 41 39 37 37 38 38 37 35 33 31 31 33 34 33 31 30 29 27 28 30 31 31 31 30 29 31 32 31 31 31 32 33 33 32 32 32 32 32
50 51 51 51 51 49 50 52 53 53 53 52 53 54 55 55 55 54 53 52 50 48 47 48 48 47 44 41 39 39 40 40 38 36 33 32 32 34 34 34 32 30 28 29 31 31 31 31 32 32 32 32 32 32 34 35 35 34 32 32 33 33 34
48 50 52 53 53 52 51 52 53 54 54 55 55 56 56 55 54 55 55 55 54 52 50 49 50 50 50 48 45 42 42 42 42 40 38 36 35 35 35 34 33 31 29 29 32 32 32 32 32 32 33 33 33 34 35 37 37 36 36 36 35 35 36
51 51 52 53 54 55 54 53 53 54 55 56 57 57 56 55 55 56 57 57 57 56 55 53 52 52 53 52 51 48 46 46 45 44 42 41 40 40 37 36 35 33 31 31 32 32 32 32 31 32 33 34 34 34 35 35 35 34 35 36 36 35 36
54 54 54 54 54 55 55 55 55 55 55 56 57 58 58 57 57 57 58 58 59 59 59 58 56 55 55 55 55 53 52 50 49 48 46 45 44 44 41 41 40 36 33 33 33 32 32 31 30 31 33 33 34 34 35 36 36 34 33 34 35 35 36
51 52 55 56 56 56 56 56 56 56 57 57 57 58 58 58 58 59 59 59 60 60 60 60 61 60 59 58 58 58 57 56 54 53 51 49 48 47 45 44 44 41 37 35 34 34 34 33 33 32 32 33 33 34 34 36 37 37 35 35 37 38 38
49 49 51 53 54 55 56 56 57 57 57 58 59 59 59 59 59 59 60 60 61 61 61 61 63 64 63 61 61 61 61 60 59 58 56 54 52 51 49 48 48 47 43 39 37 36 35 36 36 35 34 33 33 34 34 35 37 39 39 39 38 39 39
48 47 48 49 51 52 53 55 56 56 57 57 58 59 59 59 60 60 60 61 61 62 62 62 63 63 64 64 65 64 64 64 63 62 61 59 56 55 54 52 52 53 50 45 42 41 39 39 38 38 36 36 35 34 35 35 36 38 41 40 38 38 39
48 47 47 48 49 50 51 52 54 55 56 56 56 57 58 59 60 60 60 61 61 62 63 64 63 63 64 65 66 67 67 67 66 66 66 64 62 59 58 57 56 57 55 52 49 47 46 45 44 42 40 39 38 37 37 37 37 37 38 39 38 37 37
48 48 48 48 48 49 50 51 52 53 54 55 56 56 57 57 58 59 60 61 61 62 63 64 64 64 64 64 65 67 68 69 69 69 68 67 66 64 62 61 60 60 59 57 54 53 53 52 50 48 45 42 41 41 41 42 41 38 36 37 37 37 37
49 50 50 50 49 49 49 50 51 52 53 55 56 57 57 57 57 58 59 60 61 62 62 63 63 64 64 65 65 66 67 69 70 71 69 68 67 67 66 65 64 63 63 61 58 57 57 57 56 55 52 49 46 45 45 45 45 43 40 38 36 37 37
51 52 52 52 52 52 52 52 52 53 53 55 56 57 58 58 58 59 59 60 60 62 62 63 63 64 64 65 65 66 67 68 69 70 70 69 69 69 68 67 66 66 65 65 63 61 61 61 62 61 60 56 53 51 49 49 49 48 46 44 41 39 37
50 51 51 52 53 53 54 54 54 54 55 56 57 58 58 59 60 61 61 61 62 62 63 64 64 65 65 65 65 66 67 68 68 69 69 69 70 70 70 69 68 68 67 67 66 66 65 66 67 67 66 63 60 57 54 52 52 51 50 47 44 42 40
45 46 47 48 49 50 51 52 52 53 54 55 56 58 59 60 61 62 63 63 64 65 65 65 66 66 66 66 66 66 66 67 68 69 68 69 70 71 71 70 69 69 69 68 68 67 67 69 70 70 70 67 64 61 57 54 53 52 50 47 44 43 42

ECMWFFLT1_500_spd_105.txt.gz
Wind_Speed
17 16 15 13 11 11 12 12 13 12 11 9 9 8 10 12 13 14 14 13 12 11 11 11 11 11 12 13 13 12 12 12 12 12 12 11 11 10 9 9 8 8 8 7 7 6 6 5 4 4 4 3 3 4 5 5 5 4 4 3 3 2 2
20 19 16 14 13 13 14 15 15 14 12 11 10 10 9 11 14 15 15 14 13 13 12 11 10 10 11 12 13 14 13 13 12 12 12 12 12 11 10 10 9 8 8 7 7 6 6 6 5 4 4 3 3 3 3 4 4 4 4 3 3 3 2
17 18 17 16 16 16 15 15 13 12 12 12 13 12 11 11 13 14 15 15 14 13 12 12 11 11 11 12 13 13 14 14 13 13 13 13 12 12 11 11 10 9 8 7 7 6 6 6 6 5 4 3 3 3 2 2 3 4 4 4 3 3 3
15 17 19 19 19 18 15 12 10 11 13 14 15 14 12 12 11 11 12 13 12 13 13 13 12 11 12 12 13 14 14 15 15 14 14 13 12 12 12 12 11 10 9 8 8 7 6 6 6 6 5 4 4 3 3 2 3 3 3 4 4 3 3
18 19 19 17 17 17 15 11 11 14 16 18 19 17 16 17 14 11 12 12 12 12 13 13 13 12 12 13 13 15 15 16 16 15 15 14 14 14 13 13 13 12 11 10 9 8 7 7 7 7 6 5 5 4 4 4 4 4 4 5 5 4 4
22 23 21 19 17 17 16 14 15 17 17 18 17 15 16 19 16 12 15 15 15 15 15 14 15 15 14 14 14 15 15 16 16 16 16 15 15 15 15 15 14 13 12 11 10 9 9 8 7 7 6 6 5 5 5 6 6 6 6 6 6 5 5
24 23 23 22 19 18 17 16 16 16 15 14 13 13 16 18 17 17 20 20 19 18 17 17 17 18 17 15 15 15 15 16 17 17 16 16 16 16 16 15 15 14 13 13 12 11 10 9 7 7 6 6 6 6 6 7 7 7 7 7 7 7 7
23 21 21 21 20 20 20 19 17 17 16 15 15 16 17 19 20 21 22 22 20 19 19 20 19 19 18 17 16 16 16 17 17 17 16 16 16 17 17 17 16 15 15 14 13 13 12 10 9 7 7 6 6 6 7 7 7 7 8 8 8 8 8
23 21 21 21 21 21 22 21 19 18 17 16 17 16 15 16 18 19 19 18 18 18 20 20 18 17 18 18 18 18 17 17 17 17 17 16 16 17 17 18 17 16 16 16 15 14 13 12 10 9 8 7 6 6 6 6 7 7 8 8 9 9 9
25 24 24 24 22 22 23 22 21 20 19 18 18 16 15 14 14 15 18 17 15 16 18 18 18 18 19 19 19 19 19 19 18 18 18 18 18 18 18 19 18 18 17 17 16 16 14 13 12 10 9 8 7 6 5 5 5 6 7 8 9 10 10
24 25 26 25 24 23 23 23 22 22 22 23 23 21 19 16 11 11 15 18 17 17 19 20 20 20 20 21 21 21 21 21 19 18 18 19 19 19 19 19 19 19 19 19 18 17 16 15 13 12 11 10 9 7 5 5 4 5 5 7 9 10 10
22 24 25 25 24 23 23 23 23 22 21 23 24 23 20 17 13 12 14 17 17 18 20 22 22 22 22 23 24 24 23 22 20 19 19 20 21 21 20 20 19 20 20 20 20 19 18 17 15 14 13 12 10 8 7 5 4 4 4 6 8 9 10
23 24 24 24 24 23 23 23 23 23 22 22 23 22 21 19 17 17 19 18 17 16 19 21 22 23 24 25 25 24 25 24 23 22 21 22 24 24 23 22 21 21 21 21 21 20 19 19 17 16 15 14 12 10 9 7 6 5 5 5 7 8 9
25 25 25 25 24 24 24 24 24 24 24 23 23 22 22 21 20 20 21 20 17 17 19 21 22 23 25 27 27 27 27 28 27 24 22 22 24 25 25 24 23 22 22 22 22 21 20 20 19 17 16 15 14 12 10 9 8 7 7 7 7 8 9
24 25 26 26 26 25 25 25 26 26 25 25 25 24 24 24 23 22 22 20 17 17 19 21 22 23 24 27 29 30 30 31 29 26 24 24 25 26 25 24 23 23 22 22 22 22 21 20 20 19 17 16 15 14 12 11 10 10 9 9 8 8 9
24 26 27 27 28 28 28 28 28 28 28 27 27 27 26 26 25 24 24 21 18 17 17 17 18 19 22 27 29 30 30 30 30 29 27 26 27 26 25 24 22 21 21 22 21 21 21 20 19 19 18 17 17 16 14 13 13 13 12 11 11 10 10
25 26 28 29 30 30 30 30 30 31 30 29 29 28 28 28 27 27 26 24 21 19 17 17 16 16 19 26 29 28 28 29 29 29 29 29 28 27 25 24 22 21 21 22 21 21 21 21 20 20 19 19 18 17 16 15 15 15 15 14 13 12 12
24 25 28 29 31 32 32 32 32 33 33 32 32 31 30 30 30 29 27 26 23 20 17 17 18 18 18 23 28 28 28 29 29 28 29 29 29 28 27 27 26 24 23 22 22 21 21 22 23 23 22 20 19 18 18 18 17 17 17 17 17 15 14
26 25 26 28 30 32 33 33 34 34 35 36 35 34 34 33 32 31 30 28 26 23 19 18 19 20 20 21 26 28 28 28 28 28 28 28 28 28 29 29 29 27 24 23 23 23 22 24 25 25 24 23 21 19 19 20 20 20 20 20 20 19 18
29 29 28 28 30 31 32 34 34 35 36 37 38 37 37 36 36 35 33 31 29 27 24 21 21 21 21 22 24 27 28 29 29 28 28 28 28 29 31 31 31 30 28 25 25 26 25 25 26 26 26 25 23 21 19 20 21 22 21 22 22 22 20
31 31 31 30 30 31 33 34 35 35 36 37 38 39 39 39 38 38 37 35 33 31 29 26 25 24 23 23 24 25 27 28 30 30 29 29 30 31 34 34 32 32 32 30 28 29 28 27 27 28 27 27 25 23 21 20 21 23 23 23 24 24 23
32 33 32 32 32 33 34 35 36 36 36 37 37 38 39 40 40 40 39 38 37 35 33 31 29 28 27 26 26 26 27 27 29 30 31 31 30 30 32 33 31 31 32 32 31 31 30 30 29 30 29 29 27 25 24 23 23 24 25 25 25 25 24
36 36 35 34 33 33 35 36 37 38 38 38 38 38 39 39 40 40 41 41 40 39 37 35 34 32 31 29 28 28 28 28 28 29 30 31 29 28 29 30 29 31 33 33 33 32 31 31 32 32 31 31 29 27 25 26 27 28 27 28 28 27 26
35 37 37 35 34 35 36 37 38 39 39 39 40 39 39 40 40 40 41 41 42 42 41 40 38 36 35 33 32 31 30 30 30 30 30 30 29 28 29 29 29 31 34 34 33 33 32 34 36 36 34 32 31 30 29 29 30 28 26 26 27 27 27
35 36 38 38 37 38 39 38 38 39 40 41 42 41 40 40 40 41 41 41 42 42 43 42 41 40 39 38 36 34 33 32 31 31 31 31 29 29 30 30 29 31 33 34 33 33 34 35 37 38 36 35 34 34 33 31 28 26 25 26 28 29 29
38 37 38 38 39 40 40 39 39 40 40 42 43 43 42 41 40 41 42 42 42 43 43 44 44 43 43 42 41 40 38 36 34 33 33 32 31 30 30 30 30 31 33 33 32 32 34 35 36 36 37 37 36 36 35 31 27 25 26 28 30 30 31
41 41 40 41 43 43 42 42 43 42 42 42 43 44 43 43 42 43 43 44 44 43 43 44 45 45 45 44 44 44 43 41 38 37 35 34 33 31 31 30 30 31 32 34 34 34 33 34 34 35 35 37 37 37 35 31 28 28 28 29 31 33 32
43 43 44 46 47 46 45 46 46 46 46 45 45 46 46 45 45 45 46 46 46 45 44 44 45 46 46 46 46 46 46 45 43 41 39 38 37 35 33 32 32 31 32 33 36 36 35 35 35 34 35 36 36 37 35 31 29 30 30 30 31 33 32
47 47 47 47 47 47 47 47 48 48 48 48 49 49 49 49 48 47 47 48 48 47 46 46 46 47 48 48 47 47 48 48 47 45 43 42 42 40 37 35 34 33 33 33 35 36 36 36 34 33 33 34 35 35 33 31 30 30 30 30 30 31 32
49 49 49 48 48 48 49 49 49 49 49 49 49 50 51 50 50 50 50 50 49 49 49 49 48 49 49 49 48 49 49 49 49 48 47 46 45 45 43 41 39 37 36 35 35 35 35 35 34 32 31 32 34 35 33 31 30 30 31 31 32 32 32
48 48 49 50 50 51 51 51 52 52 52 52 52 52 52 51 51 51 52 52 52 52 51 51 51 51 51 50 50 50 50 51 51 51 50 49 48 47 47 46 45 44 41 40 39 37 36 36 36 35 33 33 34 35 34 32 30 30 31 32 32 33 33
47 47 47 48 49 50 51 52 53 54 54 54 54 54 54 54 53 53 53 53 53 53 53 53 53 53 53 53 52 52 51 52 52 52 52 51 50 49 49 49 49 48 47 46 45 44 42 39 38 37 36 35 35 35 35 33 31 31 32 33 33 33 33
45 45 45 46 47 48 49 50 51 52 53 54 54 54 54 54 54 54 54 54 54 54 54 54 54 54 55 55 54 54 54 53 53 54 53 53 51 51 51 52 52 51 51 51 50 50 49 47 44 42 40 39 38 38 37 35 34 33 33 34 34 34 33
45 45 45 45 45 45 46 48 49 50 51 51 52 53 53 53 52 53 53 53 53 53 53 53 54 54 55 55 55 55 55 55 55 55 55 54 53 53 52 52 53 53 54 54 54 54 54 53 51 49 46 44 42 41 41 40 38 37 36 36 35 35 35
45 46 45 45 44 44 44 45 46 48 49 50 50 51 51 51 51 50 51 51 51 51 51 52 53 53 54 55 56 56 56 56 56 56 56 55 55 55 54 54 54 54 54 55 56 57 58 58 57 55 53 50 48 47 45 45 44 43 42 40 39 39 38
45 46 46 46 45 44 44 44 44 45 47 48 49 50 50 50 50 50 50 49 49 50 50 51 51 52 53 54 55 55 55 55 55 55 55 56 56 56 56 56 56 55 55 55 56 57 58 60 61 60 58 56 54 53 51 49 49 49 48 47 46 45 43
46 47 48 48 47 47 46 45 45 45 45 47 48 49 50 50 50 50 51 50 50 50 50 50 51 52 53 54 54 55 55 55 54 54 54 55 55 56 56 57 57 56 56 55 56 57 58 58 60 62 62 60 58 57 56 54 54 53 53 52 52 51 50
44 46 48 49 49 49 48 47 47 48 47 47 48 49 50 51 51 51 52 52 52 52 52 52 52 53 53 54 55 55 56 55 54 54 54 54 55 56 56 57 57 56 55 56 57 58 59 59 60 61 62 61 61 60 59 58 58 57 57 56 56 56 56

ECMWFFLT1_500_spd_108.txt.gz
Wind_Speed
24 24 26 26 26 24 22 21 20 19 17 16 16 16 16 15 14 14 14 14 13 13 13 14 14 14 14 15 14 14 14 15 15 15 15 15 15 14 14 13 12 11 11 10 10 9 9 9 9 9 9 9 9 8 8 8 9 9 9 8 8 7 7
23 26 27 26 23 21 20 21 21 20 18 16 15 15 15 15 14 14 14 15 14 14 13 13 14 14 14 15 15 15 15 15 15 15 15 15 15 15 14 13 12 12 11 11 10 10 9 9 9 9 9 9 9 8 8 8 8 9 9 9 9 8 7
25 26 25 23 21 18 18 19 20 18 16 14 13 12 12 13 14 14 14 15 16 15 14 14 14 14 14 15 15 15 15 15 16 16 16 16 15 15 14 14 13 12 11 11 11 10 10 10 9 9 9 9 9 9 8 8 8 8 8 9 9 8 7
23 22 19 19 20 21 21 20 18 16 14 13 13 12 11 12 13 15 15 15 16 16 16 15 14 14 14 14 15 15 15 16 16 16 15 15 15 15 15 15 14 13 12 11 11 11 10 10 10 10 10 10 10 9 9 8 8 7 8 8 8 7 7
21 18 16 17 19 22 21 17 15 14 14 16 16 15 14 14 13 15 16 16 17 16 16 14 13 13 13 14 14 15 15 16 16 16 15 15 15 15 15 16 15 14 13 12 12 11 11 11 11 11 10 10 9 9 8 8 8 7 7 7 7 7 7
19 16 15 17 18 19 17 13 12 13 15 17 17 15 16 16 15 14 14 15 15 15 14 13 14 14 14 14 15 15 15 16 16 16 16 16 16 16 16 16 16 15 14 13 12 12 11 11 11 11 10 10 9 8 8 8 8 8 8 7 7 7 7
20 18 17 18 18 17 15 14 13 14 14 15 15 16 19 19 18 16 14 12 13 13 13 14 16 16 16 16 16 17 17 17 17 17 17 17 18 18 17 17 16 15 14 13 13 12 12 11 11 11 10 9 9 8 8 8 9 9 9 9 9 8 8
23 22 21 21 19 18 18 17 16 16 15 15 15 17 20 21 20 19 18 17 17 17 17 18 19 18 17 17 17 18 18 19 19 18 18 18 19 19 19 18 17 16 15 14 13 12 12 12 11 11 10 10 9 9 9 9 10 10 10 10 10 10 10
24 24 24 23 22 21 21 21 20 19 17 16 16 17 19 20 18 17 17 18 20 21 21 22 22 20 19 19 19 19 20 20 20 20 20 20 20 20 19 19 19 18 17 16 14 13 12 12 12 11 11 11 10 10 10 9 10 10 11 11 11 12 12
24 24 25 26 25 23 23 23 23 22 19 18 17 18 19 20 18 17 18 20 21 23 25 25 24 24 24 22 21 21 22 22 21 20 19 20 20 20 20 19 19 19 18 17 15 14 13 13 13 12 12 12 11 10 10 10 10 10 11 11 12 12 13
23 24 26 27 26 25 24 24 24 23 21 20 19 20 21 21 19 17 17 20 22 24 27 27 26 27 26 24 23 23 24 23 22 21 19 19 19 20 20 19 19 19 18 18 17 16 15 14 14 14 13 13 12 11 10 10 10 10 11 11 12 12 13
24 25 27 27 27 26 25 24 24 23 23 22 22 23 22 22 21 16 13 15 19 23 26 26 26 28 27 25 24 25 25 24 22 21 20 20 20 19 19 19 18 18 18 18 18 18 17 16 16 15 15 14 13 12 11 10 10 10 10 11 11 12 12
26 27 28 28 27 27 25 24 24 23 23 22 22 23 24 24 23 20 16 14 15 20 23 24 25 27 28 29 27 26 26 25 22 21 20 20 20 19 18 18 18 18 18 19 19 19 18 18 18 17 16 15 14 13 12 10 10 10 10 10 11 11 12
24 25 27 27 26 27 26 25 25 23 22 21 21 22 24 23 21 20 18 17 18 19 19 18 21 25 27 29 27 25 25 25 24 24 23 22 21 19 19 19 19 19 19 20 20 20 20 19 19 19 18 17 16 15 13 12 11 11 11 11 11 11 11
23 24 24 24 24 25 25 25 25 24 23 22 22 22 23 22 21 19 18 19 20 21 17 15 18 23 26 25 24 24 23 23 25 25 25 25 22 20 20 20 21 21 20 20 21 21 21 21 20 20 19 18 17 16 15 14 14 14 13 12 11 11 11
22 24 25 25 24 24 24 24 25 25 24 23 22 22 22 22 23 22 20 20 20 18 15 14 16 20 21 20 20 22 23 24 25 26 27 27 25 22 21 22 23 23 23 22 22 22 22 22 22 22 21 20 20 19 18 17 17 17 16 15 14 13 12
22 23 24 25 26 26 26 26 26 26 25 24 23 22 22 22 22 22 22 23 22 18 15 14 16 17 17 17 18 21 23 25 26 28 29 29 27 25 23 23 24 25 24 24 25 25 24 23 23 24 24 23 22 22 21 20 20 20 19 17 16 15 14
24 23 23 24 25 26 27 28 28 28 27 26 25 24 23 22 22 22 21 21 22 22 20 17 16 16 16 15 16 18 20 24 27 29 30 31 28 26 25 25 25 25 25 25 25 25 25 24 24 25 26 26 25 24 23 23 23 22 21 19 18 17 16
24 25 24 24 25 26 27 28 28 29 28 27 27 26 25 24 23 23 23 22 21 22 22 20 18 16 14 14 15 16 17 20 24 27 29 30 29 27 27 27 27 27 26 26 25 25 25 25 25 26 27 27 27 26 24 24 24 24 23 22 21 20 18
22 24 24 24 24 26 27 28 29 29 29 29 28 28 27 26 26 25 25 25 23 22 22 22 22 19 15 14 15 15 16 17 20 24 26 27 27 27 28 28 29 29 29 28 27 26 26 26 27 28 29 28 28 27 27 26 25 25 25 25 24 23 21
23 23 23 23 24 25 26 28 29 30 30 30 30 30 29 29 28 28 27 27 27 25 23 24 24 22 19 17 16 16 17 17 18 21 24 26 27 27 27 29 29 30 30 31 30 29 28 28 28 29 30 29 29 28 28 29 27 26 25 25 26 26 24
26 25 25 25 25 26 27 28 29 29 30 30 30 30 31 30 30 29 29 29 29 28 27 26 25 24 22 21 20 19 18 18 18 19 21 24 26 27 28 28 28 29 30 32 32 32 31 30 30 31 31 30 29 28 29 30 29 28 27 28 28 27 26
31 30 30 29 29 29 29 30 30 30 30 31 31 31 31 31 31 30 30 30 30 30 30 29 28 27 26 24 23 22 21 21 20 20 21 22 23 25 28 29 29 29 30 31 32 32 32 32 33 32 32 31 30 29 28 30 30 30 30 31 31 29 28
37 37 37 35 33 32 31 31 32 32 33 33 33 33 33 32 32 31 31 31 31 31 31 31 30 29 28 28 27 26 25 24 23 23 23 23 23 23 25 27 30 31 31 31 32 33 34 34 35 35 34 33 32 31 30 30 32 32 33 33 33 32 31
38 38 39 40 39 38 36 35 35 34 34 34 34 35 35 34 34 33 33 32 32 32 32 32 32 31 30 30 29 29 28 28 27 26 26 26 25 24 24 26 28 30 31 31 31 32 33 34 35 36 37 36 35 34 32 32 33 34 34 34 33 33 33
38 38 38 40 42 42 40 39 38 37 36 35 35 35 35 35 34 34 33 33 33 32 32 32 33 32 32 31 31 31 30 30 30 29 28 28 28 27 27 27 27 27 29 30 30 30 31 32 34 36 38 38 37 36 35 33 34 35 35 35 35 34 34
37 37 38 39 41 42 42 40 39 39 38 38 37 36 35 35 34 34 34 34 34 34 33 33 33 33 33 33 33 32 32 32 32 32 31 31 30 30 30 29 29 28 28 28 28 28 28 30 31 33 36 38 37 37 36 36 35 36 36 37 37 36 35
37 38 39 40 42 43 44 43 41 40 40 39 39 38 37 37 36 36 35 35 34 34 34 33 34 34 34 34 34 35 35 35 35 35 34 33 33 32 31 31 31 30 30 29 29 28 29 30 30 30 33 35 35 36 36 36 36 37 38 38 39 39 37
40 41 41 42 43 45 45 45 45 43 42 41 41 40 40 39 38 38 38 37 36 35 35 34 35 35 35 35 36 36 37 37 37 37 37 36 35 34 34 33 32 32 31 31 31 30 30 30 30 30 31 33 34 35 35 34 34 35 37 37 38 39 38
42 42 42 43 44 45 45 45 46 45 45 45 44 44 43 42 42 41 41 41 41 39 38 37 37 37 37 37 37 38 38 39 39 39 40 40 39 38 37 36 35 35 34 34 34 34 33 32 32 32 32 32 33 34 35 35 34 34 35 37 38 39 39
43 42 43 43 44 45 45 46 46 46 47 47 47 46 46 45 44 44 44 44 44 44 43 42 41 41 40 40 40 40 40 41 41 41 42 42 42 41 41 40 40 40 39 38 37 37 37 36 35 35 34 33 32 32 32 33 33 33 34 36 38 38 39
44 44 44 44 44 44 45 46 46 47 48 48 48 48 48 47 47 46 46 45 45 45 45 44 44 44 43 43 43 43 43 43 43 44 44 43 43 44 44 44 44 43 43 43 42 41 40 40 39 38 37 36 35 34 32 32 32 32 32 33 35 36 37
43 44 44 44 44 44 45 46 47 47 48 48 49 49 49 49 49 49 49 48 48 48 48 48 47 47 46 46 46 45 45 45 46 46 46 46 45 45 46 47 47 46 46 46 45 44 44 43 43 42 41 40 40 39 37 36 35 34 33 33 33 34 35
39 41 42 43 42 42 43 45 46 47 47 47 48 48 49 49 49 50 50 50 50 51 50 50 50 50 50 49 49 49 48 48 48 48 49 49 48 47 47 48 48 49 48 48 48 47 47 46 46 46 46 45 44 43 43 42 41 40 38 36 35 35 36
39 40 41 42 42 42 43 44 45 46 46 47 48 48 49 49 49 49 50 50 50 50 50 50 50 50 50 50 50 50 50 50 50 50 50 51 51 50 50 49 49 50 50 50 50 50 49 49 49 49 49 49 48 48 47 46 46 46 44 43 41 40 39
41 42 42 43 43 43 43 42 43 44 45 46 47 47 48 48 48 48 48 48 49 49 49 49 49 49 49 49 50 50 49 49 50 50 50 51 51 52 52 52 52 51 51 51 51 51 51 51 52 52 52 52 51 51 51 50 50 50 49 48 47 46 45
43 43 44 44 45 44 43 42 42 43 45 46 46 46 46 47 47 47 47 47 47 47 48 48 49 48 48 48 49 49 49 49 49 49 50 51 51 52 53 53 53 53 52 51 51 52 52 53 53 54 55 55 54 54 54 53 53 53 53 53 52 51 50
42 43 44 45 45 45 44 44 44 44 46 46 46 46 46 46 46 46 46 47 47 47 48 48 48 48 48 48 48 48 48 48 48 48 49 50 51 51 52 52 52 53 53 53 53 53 53 54 54 54 56 57 57 57 56 56 56 55 55 55 55 55 54

ECMWFFLT1_500_spd_111.txt.gz
Wind_Speed
25 22 22 20 19 18 18 19 20 20 20 19 18 18 17 17 16 16 16 15 15 15 15 15 16 16 17 17 18 18 17 17 16 16 16 16 16 15 15 16 16 16 15 15 14 13 12 12 11 11 10 10 9 8 8 8 8 7 7 6 6 6 6
28 25 26 25 22 20 18 17 18 18 18 18 17 17 16 16 16 15 15 15 15 15 15 15 15 16 17 17 17 17 17 17 17 17 16 16 15 15 14 14 14 14 14 13 13 13 12 12 11 11 10 10 10 9 8 8 7 7 7 7 7 7 7
28 27 27 27 24 21 20 19 18 18 17 15 14 15 15 15 15 15 15 15 15 14 14 15 15 15 16 16 16 16 17 17 18 18 18 17 17 16 14 13 13 13 12 12 12 12 12 12 11 11 11 10 10 9 9 8 8 8 8 8 8 7 7
29 29 30 29 26 23 22 22 21 19 17 14 14 14 15 15 15 15 15 15 16 15 15 15 15 15 16 16 16 16 17 17 18 18 18 18 18 17 16 15 14 13 12 12 12 12 12 12 11 11 11 11 10 10 9 9 8 8 8 8 8 8 7
26 29 30 28 26 25 24 25 24 21 18 16 15 15 15 15 15 16 16 16 16 16 15 14 14 15 16 16 17 17 17 17 17 17 17 17 18 18 17 16 15 14 13 12 12 12 12 12 12 12 11 11 11 10 10 9 9 8 8 8 8 8 8
20 22 25 26 26 26 25 25 24 23 21 19 17 15 14 14 14 15 16 16 15 15 14 14 14 15 15 16 17 17 17 17 17 16 16 16 17 17 17 16 16 15 14 13 13 13 12 12 12 12 12 12 11 11 10 9 9 8 8 8 8 8 8
21 21 22 23 25 27 26 25 24 23 23 20 18 17 16 15 15 15 15 15 15 16 16 17 18 18 17 17 17 17 17 17 17 17 17 16 16 16 16 16 16 16 15 14 13 13 13 13 12 12 12 12 11 11 10 9 9 9 9 9 9 9 9
23 23 23 23 24 25 26 27 26 25 24 21 19 18 18 18 18 16 15 16 17 18 19 21 21 21 20 19 19 19 19 19 18 18 18 18 17 17 17 17 16 16 16 15 14 13 13 13 13 12 12 12 11 11 10 10 9 9 10 10 10 10 10
24 24 24 24 24 24 23 25 26 26 26 23 19 19 19 18 17 16 16 17 17 18 20 21 21 21 20 20 20 20 19 18 18 18 19 19 19 20 19 19 18 17 17 16 14 13 12 12 12 12 12 12 11 11 10 9 9 9 10 10 11 11 11
25 26 26 25 25 24 23 24 25 25 24 22 19 18 18 18 17 18 20 21 21 21 21 20 20 20 20 20 20 19 18 17 18 18 19 20 21 21 21 21 20 19 18 17 16 14 12 11 11 12 12 12 11 10 9 9 9 10 10 11 11 12 12
25 25 25 25 24 24 25 25 26 24 22 20 18 18 19 19 19 22 24 24 24 24 23 20 19 20 21 21 20 20 20 21 21 21 21 21 21 22 23 22 22 21 20 19 18 16 14 12 12 12 12 12 11 10 10 10 10 11 11 12 12 12 13
27 25 24 24 24 24 25 25 26 24 21 20 20 20 20 21 22 23 24 23 22 23 22 21 21 23 24 24 21 21 22 24 23 22 21 21 21 22 23 23 23 23 22 20 19 18 16 15 14 13 13 13 12 11 11 11 11 12 12 12 13 13 13
27 27 25 25 24 25 26 25 25 23 22 22 22 22 22 23 23 22 22 22 21 21 20 21 25 27 28 26 24 24 26 27 25 22 21 22 23 23 23 23 24 24 24 23 22 20 19 18 17 16 15 14 14 13 13 12 13 13 13 13 13 13 14
27 27 27 27 27 28 29 28 26 23 21 20 20 21 22 23 23 22 22 22 22 20 18 19 23 26 27 28 27 28 30 30 28 26 25 26 26 25 24 24 25 26 26 25 24 23 22 21 20 19 18 16 16 15 14 14 14 15 14 14 14 14 14
29 28 28 28 28 28 29 29 27 26 23 19 17 18 20 22 23 23 23 23 24 23 20 19 20 21 23 27 30 31 31 31 31 29 29 29 28 26 26 26 27 28 28 26 25 24 23 22 21 21 20 19 18 17 16 16 16 16 16 15 14 14 14
30 30 29 29 28 27 27 28 28 27 26 22 19 19 19 21 22 24 25 25 25 25 24 22 21 20 20 22 26 28 28 29 31 31 30 30 30 29 29 28 29 31 30 28 26 25 24 23 22 21 21 21 20 20 18 18 18 18 18 17 16 15 14
29 30 30 30 28 27 28 29 29 28 27 26 24 22 21 21 23 24 25 25 25 25 24 24 23 22 21 19 18 21 23 26 29 30 31 31 31 32 32 31 32 34 32 29 27 25 25 24 24 23 22 22 21 21 20 20 21 21 20 20 19 17 16
29 28 28 27 27 26 27 28 29 29 29 28 26 25 23 23 23 23 24 23 23 22 19 19 21 21 19 15 14 15 18 22 25 28 29 30 31 32 32 32 35 35 32 28 26 25 25 25 25 25 24 23 22 22 22 22 22 22 22 22 21 20 19
28 26 25 24 24 25 27 28 28 29 29 28 27 25 24 24 23 24 23 23 24 23 19 18 20 21 19 18 16 15 15 17 21 25 27 29 31 32 32 33 34 32 29 27 26 25 26 27 27 26 25 24 24 24 23 24 24 24 24 24 23 23 21
27 24 23 23 24 25 27 28 29 29 29 28 27 26 25 25 25 25 24 23 23 24 23 21 21 22 22 21 19 16 15 15 17 20 24 28 31 31 31 32 32 29 26 27 26 26 27 28 28 27 27 26 25 25 25 26 26 27 26 26 25 25 24
25 24 23 23 24 26 27 29 30 30 30 29 28 27 27 26 26 26 26 25 24 24 24 23 22 22 23 22 20 17 17 17 17 18 20 24 28 29 30 30 29 26 26 28 28 27 28 29 28 27 27 26 26 26 27 28 29 29 28 27 27 27 26
26 25 24 23 25 27 28 29 29 29 29 29 29 29 29 28 28 27 27 27 26 26 25 24 23 23 23 23 22 20 19 19 19 18 17 20 23 26 27 27 27 27 28 29 28 28 28 28 27 27 26 26 26 27 28 29 30 30 30 29 29 28 28
30 29 27 25 25 27 28 29 29 29 30 30 30 31 31 30 30 30 29 29 28 28 27 26 26 25 25 25 25 24 22 21 20 20 19 19 20 21 23 25 26 27 28 27 27 27 27 28 28 27 27 28 28 28 28 30 31 31 31 31 30 30 29
31 31 29 27 27 27 28 29 29 29 30 30 31 31 31 31 31 30 30 30 29 29 29 28 27 27 26 26 26 26 26 25 23 22 22 22 21 21 21 22 23 24 24 24 24 26 26 26 27 27 28 29 30 30 30 31 31 31 32 33 32 31 30
32 31 31 31 30 30 30 29 29 29 29 30 30 31 31 31 31 30 30 30 29 29 29 29 29 28 27 26 26 26 27 27 27 26 25 25 24 23 22 22 22 21 21 21 23 25 26 25 26 26 27 29 31 32 32 33 33 33 33 33 33 32 31
35 34 34 34 33 33 33 33 32 32 32 32 32 32 33 33 33 32 32 31 30 30 30 30 30 30 29 28 27 26 27 27 28 28 28 27 26 25 25 24 25 24 22 21 21 22 22 23 25 27 28 29 31 32 33 34 36 36 35 35 34 34 33
38 37 36 36 36 37 37 37 37 37 37 37 37 36 35 35 35 34 34 33 32 32 32 32 32 32 31 30 29 28 28 28 28 29 29 29 29 28 28 27 27 27 25 24 23 22 21 22 23 25 28 29 31 32 33 35 37 39 39 37 37 36 35
41 40 40 40 40 40 41 41 41 41 41 41 41 41 40 39 38 37 36 35 34 33 33 33 33 33 33 32 31 30 29 29 28 29 29 29 29 29 29 29 29 30 29 28 26 25 24 24 24 24 25 27 29 30 32 33 35 38 40 40 39 38 36
46 46 46 46 45 45 44 44 43 43 43 43 42 42 42 42 41 40 39 38 36 35 34 33 33 32 32 32 32 32 31 30 30 29 29 29 28 28 29 29 30 30 31 31 30 29 28 27 27 26 26 26 27 29 30 32 33 36 38 40 39 38 36
48 49 49 49 48 47 46 46 45 45 44 44 43 43 42 42 41 41 40 40 39 38 37 36 34 33 33 32 32 32 32 32 32 31 30 30 29 29 29 29 30 30 31 32 32 32 31 30 29 29 29 29 29 29 30 32 33 34 35 36 37 37 35
44 45 46 47 47 47 46 46 45 45 44 44 44 43 43 42 41 41 40 40 40 39 39 38 37 36 35 34 33 33 33 33 33 33 32 32 32 32 32 31 32 32 32 32 32 33 33 33 33 32 32 32 32 32 32 32 33 33 33 33 33 33 33
41 42 43 43 44 44 45 45 45 45 44 44 44 44 44 44 44 43 43 42 42 41 41 40 40 39 38 38 37 37 36 36 36 36 35 35 35 35 35 35 35 34 34 33 33 34 34 35 35 35 35 35 36 36 36 35 34 34 34 33 32 31 31
43 42 43 43 44 45 45 46 46 46 46 46 46 47 47 47 47 46 46 45 45 45 44 44 43 43 42 42 42 41 40 40 40 40 39 39 38 38 38 38 38 38 37 37 36 36 36 37 38 38 38 38 38 38 39 39 38 37 35 34 34 33 33
45 44 44 45 46 47 47 48 48 48 49 49 50 50 50 49 49 48 48 47 47 47 47 46 46 45 45 45 44 44 43 43 43 43 42 42 42 41 41 40 40 41 41 41 40 40 40 40 41 41 41 40 40 40 40 41 42 41 40 39 38 37 37
45 45 45 46 47 48 49 49 49 49 50 51 51 51 51 51 51 50 50 50 49 49 49 49 49 48 48 48 47 47 47 46 46 45 45 46 46 45 45 44 43 43 44 45 45 44 44 44 44 44 44 44 43 43 43 43 44 44 44 43 43 43 42
43 45 46 48 48 49 49 49 49 50 51 51 52 52 52 52 52 52 52 52 52 51 51 51 51 50 50 50 49 49 49 49 49 48 48 48 49 49 48 48 47 47 47 47 48 48 48 48 48 48 48 47 47 47 46 46 46 46 47 47 47 47 47
44 45 46 48 48 49 49 49 49 50 50 51 52 52 52 52 52 52 53 53 53 53 52 52 52 51 51 51 50 50 50 50 50 50 50 50 50 50 50 50 49 49 50 49 49 50 50 50 51 51 51 51 51 51 51 50 50 49 50 50 49 49 49
47 47 46 47 47 48 48 48 48 49 50 50 51 51 51 51 51 51 51 52 52 52 52 52 52 51 51 51 51 51 51 51 51 51 51 51 51 51 51 51 51 51 51 51 51 51 51 51 52 53 53 54 54 54 55 55 54 53 53 53 53 52 52

ECMWFFLT1_500_spd_114.txt.gz
Wind_Speed
27 26 24 22 21 21 22 21 19 19 19 19 19 19 19 18 18 18 19 19 19 19 18 17 16 15 15 14 13 13 13 14 14 15 15 15 16 15 15 14 15 15 15 15 15 15 14 14 15 15 14 14 14 13 12 12 11 10 9 8 8 7 6
27 26 24 23 22 22 22 22 20 19 18 18 18 18 19 19 18 19 19 19 19 19 19 18 17 16 15 15 14 13 13 12 13 14 15 15 15 15 15 14 14 14 14 14 14 13 13 14 14 14 14 13 13 13 13 12 11 10 9 8 7 6 5
30 27 25 24 23 22 22 22 21 19 18 17 17 18 19 20 19 19 19 19 19 19 19 18 17 16 16 16 16 15 14 13 13 14 15 16 15 15 15 14 14 14 13 13 12 12 12 13 13 13 13 13 13 12 12 11 11 10 9 8 7 6 5
33 29 27 25 23 22 22 22 22 21 19 18 17 18 20 20 20 19 19 19 19 19 20 19 19 18 18 17 17 17 16 16 15 15 15 15 16 16 16 16 15 14 13 12 12 12 12 12 12 12 12 12 12 12 11 11 10 10 9 8 7 6 6
34 31 29 27 24 23 22 22 22 21 21 20 19 19 21 21 21 20 20 19 19 19 19 19 19 19 19 19 19 19 18 18 18 17 17 16 17 17 17 17 16 14 13 13 12 12 12 12 12 12 12 12 12 12 11 11 11 10 9 8 8 7 6
34 32 30 28 26 25 24 24 23 22 22 21 21 21 21 21 21 21 21 21 20 19 19 19 19 19 19 19 19 19 19 19 19 19 19 19 18 18 17 17 16 15 14 13 13 12 12 12 12 12 12 12 12 12 12 12 11 10 10 9 9 8 7
34 34 32 30 29 28 28 26 24 24 23 22 22 21 21 21 21 21 21 21 20 20 20 20 21 21 21 21 21 20 20 20 20 20 20 20 20 19 18 17 16 15 14 14 13 13 12 12 12 12 13 13 12 12 12 12 11 10 10 10 9 9 8
29 32 33 31 31 32 31 28 26 25 24 23 22 21 20 20 20 21 20 20 20 20 21 21 21 21 21 21 21 21 21 21 20 20 20 19 19 19 18 18 17 16 15 15 13 12 12 11 12 12 12 12 12 12 12 12 11 10 10 10 10 9 8
25 28 31 32 33 33 32 29 28 27 26 24 23 23 22 21 21 20 19 19 18 19 20 20 20 20 20 20 20 21 21 21 21 20 20 20 20 19 19 19 19 18 17 16 14 13 12 11 11 11 11 12 13 13 12 12 11 11 10 10 10 10 10
24 26 27 31 34 33 32 30 28 27 27 27 26 25 24 23 21 20 19 18 17 16 16 17 18 19 19 20 20 20 20 21 21 21 22 22 22 21 21 20 19 18 18 17 15 14 13 12 12 11 11 12 13 13 13 12 11 11 11 11 11 11 11
25 26 25 26 29 31 32 32 31 29 29 30 29 28 26 24 22 21 19 18 18 18 17 17 18 19 20 21 21 20 21 21 22 22 23 24 24 24 23 22 21 20 19 18 17 17 15 14 13 13 13 13 14 14 13 12 12 12 12 12 13 13 13
24 25 26 26 27 28 30 31 32 33 33 33 32 30 26 24 23 22 20 20 21 21 20 19 18 19 21 22 22 22 22 23 23 24 24 25 25 25 25 24 23 22 21 21 20 19 18 17 16 16 16 15 15 15 15 14 14 14 13 13 13 13 13
23 25 26 27 27 28 29 29 31 34 35 35 33 29 25 23 22 21 20 21 22 22 21 19 19 21 22 23 23 23 24 25 26 26 25 25 26 26 25 25 24 24 23 22 22 21 21 20 20 20 19 18 17 17 16 15 15 14 14 14 14 13 13
23 25 25 26 27 28 29 29 29 30 31 33 32 28 25 23 22 22 22 22 22 22 21 20 20 23 24 24 24 24 25 27 28 27 27 26 26 26 25 25 25 24 24 24 23 23 23 23 23 23 22 21 20 20 19 17 16 15 15 15 14 13 13
25 25 24 25 27 27 26 27 28 28 28 30 30 28 26 25 24 25 25 23 21 21 20 20 21 23 26 27 26 25 27 29 29 28 28 27 26 26 25 25 25 24 24 25 25 25 25 25 25 25 25 23 23 22 21 20 19 18 16 16 15 14 13
25 26 25 26 27 26 25 26 28 28 28 29 29 28 28 28 27 27 25 22 21 21 20 21 22 23 24 25 25 25 27 30 31 30 29 29 29 28 27 26 27 26 25 26 26 26 27 26 26 25 26 25 25 24 23 22 22 21 19 18 17 16 15
26 26 27 27 27 27 27 27 27 27 27 29 28 26 27 27 27 26 24 22 22 21 19 20 21 22 20 19 22 23 24 26 29 32 33 32 32 32 31 30 29 28 27 27 27 27 27 27 27 26 26 27 27 27 26 25 25 24 22 21 19 18 17
28 28 28 28 28 30 30 28 28 26 27 30 28 25 24 25 24 24 23 22 22 20 19 19 19 20 19 19 20 21 22 22 25 29 33 34 36 36 35 33 32 30 30 29 29 28 27 27 28 28 28 28 29 29 28 27 27 26 24 22 21 20 19
28 27 27 27 29 31 31 30 28 26 26 29 29 27 25 23 23 23 22 22 23 23 23 22 22 21 20 21 22 22 21 22 22 24 27 31 35 37 36 35 34 32 32 32 31 30 29 29 30 30 30 30 30 30 31 30 30 28 26 23 22 21 20
30 29 27 28 30 32 33 32 29 26 27 29 29 27 25 23 23 23 23 23 24 24 25 25 24 24 22 22 23 23 23 23 21 20 19 22 27 32 35 35 33 32 32 33 33 32 33 33 33 33 32 31 30 31 32 33 33 31 28 25 24 23 22
28 29 29 29 31 32 33 33 31 30 31 31 29 27 27 26 27 27 27 26 25 25 25 25 25 25 24 22 22 22 22 21 20 17 15 16 21 26 30 31 30 30 31 33 33 34 35 36 36 36 35 33 32 33 33 34 34 33 29 27 25 24 23
26 30 33 33 32 32 31 31 32 32 31 31 30 29 29 29 29 30 29 29 27 26 26 26 26 26 26 25 24 23 21 19 18 17 15 14 16 18 22 24 26 27 29 31 32 33 34 35 36 36 36 34 34 34 35 36 35 33 30 27 26 24 24
28 31 34 34 32 31 30 29 30 31 31 31 31 30 30 30 30 30 30 29 28 27 27 27 27 26 26 27 27 25 22 21 21 21 20 18 17 16 18 19 21 24 27 29 30 31 32 34 34 34 34 34 33 34 35 35 33 31 29 28 26 25 25
29 29 31 31 31 30 29 28 29 29 30 31 31 31 31 31 31 31 30 30 29 29 29 29 28 27 27 27 27 26 24 23 23 22 22 22 21 20 20 19 18 19 22 26 28 29 30 32 32 31 32 34 36 36 36 33 29 28 29 29 28 27 26
31 31 31 31 31 31 30 29 28 29 30 31 31 31 32 32 32 32 32 31 31 31 31 31 30 29 27 27 27 27 26 25 25 24 23 23 23 23 23 22 20 19 18 21 24 26 28 30 31 31 32 34 36 36 35 33 29 29 32 32 30 28 27
33 33 34 34 33 33 33 33 32 31 31 31 32 32 33 33 33 33 32 32 32 32 32 32 31 30 29 27 27 27 27 27 27 26 25 24 24 24 24 24 23 22 21 21 22 23 24 25 27 30 31 32 32 32 31 30 30 31 33 33 32 31 30
35 35 35 35 34 34 34 35 35 35 35 34 34 34 34 35 34 34 33 32 32 31 31 31 31 30 30 28 27 27 27 27 27 27 26 25 25 26 27 27 26 24 24 25 25 24 23 23 24 25 27 27 27 28 28 28 29 30 31 31 31 32 33
39 39 38 38 38 37 36 36 37 37 37 37 37 37 37 37 36 35 34 33 33 32 31 31 31 31 30 30 29 28 28 28 29 29 28 27 27 28 29 31 30 29 28 28 28 28 27 26 25 26 26 25 25 25 26 27 27 28 28 29 30 31 32
44 44 44 42 42 41 41 40 40 39 39 39 39 39 39 39 39 38 37 36 35 34 33 32 32 33 33 33 32 32 31 31 31 31 31 30 29 29 30 31 32 32 31 31 30 30 29 29 28 28 28 28 27 27 26 25 25 25 26 27 28 29 31
47 49 49 48 48 47 46 46 45 44 44 43 42 42 41 41 41 40 40 40 38 37 36 36 35 35 35 35 35 35 35 35 34 34 34 33 33 32 32 32 32 33 33 33 32 32 32 32 32 32 32 32 31 30 28 27 26 25 25 26 26 27 28
47 50 52 51 51 52 52 52 51 49 49 48 48 47 46 45 44 44 44 44 43 43 42 41 40 40 39 39 38 38 38 38 37 37 36 36 35 35 34 33 33 33 34 34 34 34 34 34 35 35 35 35 34 33 32 30 29 28 28 28 27 27 28
44 48 53 55 55 55 54 54 53 51 50 50 49 49 49 48 47 47 47 47 47 47 47 46 46 45 45 44 43 42 41 40 39 39 38 37 37 37 36 36 35 34 34 34 35 35 35 35 35 35 35 35 35 35 34 33 33 32 32 32 31 30 30
39 42 47 51 55 56 54 53 53 52 51 51 50 50 50 50 49 49 49 48 48 48 48 48 48 47 47 47 47 46 45 43 42 41 40 39 39 38 38 37 36 36 36 36 35 35 35 35 35 35 35 35 35 35 36 36 35 35 35 36 35 35 34
42 41 42 44 47 49 50 51 52 53 54 54 54 54 54 53 53 52 51 50 49 49 49 49 49 48 48 48 48 47 47 47 45 44 43 42 41 41 40 39 38 38 38 38 37 37 37 36 36 36 36 36 36 36 37 37 37 37 37 38 38 38 38
45 45 47 48 48 47 47 47 48 49 51 53 54 54 55 55 54 53 52 51 50 49 49 49 49 49 49 48 48 47 47 47 47 46 46 45 44 44 43 42 41 41 41 41 41 40 40 39 39 39 38 38 38 39 39 39 39 39 39 39 40 40 41
43 44 47 49 50 50 49 48 47 46 47 48 50 51 52 52 52 52 51 51 50 49 49 49 49 49 49 49 48 48 48 48 48 48 48 47 47 47 46 46 45 45 45 45 44 44 43 43 43 42 42 42 42 42 42 42 42 42 42 42 42 42 42
43 42 40 41 44 48 50 51 51 51 50 50 50 50 50 51 51 50 50 50 50 50 50 50 50 50 50 49 49 49 49 49 50 50 50 50 49 49 49 49 49 49 48 48 48 47 47 47 47 46 46 46 46 46 45 45 46 46 46 46 45 45 45
47 45 40 38 39 43 47 50 52 53 53 52 52 52 52 52 52 51 51 51 51 51 51 51 51 51 51 51 51 51 51 51 51 52 52 52 51 51 51 51 51 51 51 51 51 51 51 50 50 50 50 50 50 49 49 49 49 49 49 49 50 49 49

ECMWFFLT1_500_spd_117.txt.gz
Wind_Speed
27 25 22 20 19 20 22 22 22 22 22 22 22 22 22 21 20 19 19 20 19 19 18 17 16 16 15 14 14 14 14 14 15 15 15 14 13 13 13 13 12 11 11 10 9 8 8 8 7 7 7 8 8 7 7 8 8 8 7 7 6 6 6
29 26 24 21 20 20 22 23 23 23 22 22 22 22 22 21 20 20 20 21 21 20 20 18 17 17 16 15 14 14 14 15 15 16 16 15 14 13 13 12 12 11 10 9 9 8 8 8 8 7 7 7 7 7 7 7 7 8 8 7 7 7 6
28 27 25 23 22 22 23 24 24 24 23 22 22 21 21 21 21 21 21 22 22 21 20 19 18 18 18 17 16 16 15 16 16 16 16 16 15 15 13 12 11 11 10 9 9 9 9 8 9 9 8 8 8 8 8 8 8 8 8 8 8 8 8
27 27 26 26 26 25 25 25 25 25 24 23 22 22 21 21 21 21 21 21 22 21 21 20 19 18 19 19 19 18 17 17 17 17 17 17 16 16 15 14 13 12 11 10 10 10 9 9 10 10 10 10 10 10 10 10 10 10 10 9 9 8 8
27 27 27 28 28 28 28 28 27 26 26 25 24 23 22 21 20 21 21 21 22 22 21 19 18 18 18 19 19 18 18 17 17 17 17 17 17 17 16 16 15 14 13 12 12 11 10 10 10 10 10 11 11 11 11 11 11 11 11 11 10 10 9
30 29 29 29 30 30 30 30 29 28 27 26 26 25 23 22 21 21 21 22 22 22 21 21 20 20 19 19 19 18 18 18 17 17 17 17 17 17 17 17 16 15 14 14 13 12 12 11 11 11 11 11 11 12 12 12 12 12 12 12 11 11 10
33 33 32 31 30 31 31 30 29 28 27 26 26 25 24 23 23 22 22 22 23 22 22 22 22 22 21 21 20 19 19 19 18 18 17 17 17 17 17 17 16 16 15 15 14 13 12 12 11 11 12 12 12 12 12 12 12 12 12 11 11 11 10
38 39 36 33 31 30 30 30 29 29 28 27 26 24 24 24 23 23 23 24 24 23 23 23 23 23 23 22 22 21 20 20 19 19 18 18 18 18 18 18 17 16 16 16 15 14 13 12 12 12 12 12 12 12 12 12 12 12 11 11 11 11 11
40 43 39 34 32 31 30 29 29 29 29 28 26 25 24 24 24 24 24 25 24 24 23 24 24 23 23 23 23 23 23 22 21 21 21 21 21 20 20 19 19 18 18 17 16 15 14 13 12 12 12 12 12 12 12 12 12 12 12 12 12 12 12
32 40 40 37 35 33 31 31 30 30 30 28 27 26 25 25 25 25 25 25 26 26 25 25 25 24 24 24 24 25 24 24 24 23 23 23 23 23 22 21 21 20 20 19 18 17 16 14 13 13 12 12 12 12 12 12 13 12 12 12 13 13 13
21 32 39 39 38 36 34 33 32 31 30 28 27 26 25 24 25 26 27 27 28 27 27 26 26 25 25 25 25 25 25 25 25 25 25 25 25 24 23 22 22 22 21 20 20 19 18 17 16 15 14 13 12 12 13 13 13 13 14 14 14 14 14
17 23 30 35 39 40 37 35 34 33 31 29 28 27 26 25 25 26 27 28 28 28 27 26 26 26 26 26 26 25 25 25 25 25 25 24 24 24 23 23 22 22 22 21 21 20 19 18 18 17 16 15 14 14 14 14 14 15 15 15 15 15 14
18 19 21 24 31 37 37 35 35 34 33 32 31 30 29 28 27 27 26 26 26 27 27 26 25 26 26 26 26 25 25 24 24 24 24 24 24 24 24 23 23 23 23 23 22 21 21 20 20 20 19 17 16 16 15 15 16 17 17 17 17 16 15
19 20 20 20 24 28 30 32 36 37 35 34 34 33 32 31 29 28 27 27 27 28 28 26 25 25 25 25 25 25 25 24 24 24 24 24 25 26 26 25 25 25 25 25 24 23 23 23 22 22 21 20 19 18 17 17 18 19 19 19 19 18 17
20 21 21 22 23 25 26 26 30 36 38 36 35 34 34 33 32 30 30 29 29 29 28 26 26 26 26 26 25 24 24 24 25 25 25 26 26 27 27 26 26 27 27 27 27 26 25 25 24 24 23 23 21 20 19 19 19 20 21 21 21 20 19
21 21 21 21 22 24 25 24 26 32 36 37 37 36 34 34 34 33 32 32 31 31 29 26 26 27 28 27 25 23 24 25 26 26 26 27 27 27 27 27 26 27 28 28 28 28 27 27 26 26 25 25 24 23 21 21 21 21 21 21 21 21 21
20 20 20 21 20 21 23 25 27 30 32 35 36 36 35 35 36 35 34 33 32 31 29 28 27 28 29 28 25 24 25 26 27 28 28 29 30 30 29 29 28 28 28 29 29 29 28 28 27 27 27 27 27 25 24 24 23 23 22 21 21 21 21
22 21 21 21 20 20 21 22 26 29 31 31 33 34 36 38 39 38 35 33 32 31 29 28 27 28 29 28 26 25 25 26 27 28 28 29 31 31 32 32 31 31 30 30 30 29 29 28 27 27 28 28 29 28 27 26 26 25 24 23 22 21 21
25 24 23 22 21 21 21 21 22 25 28 28 29 31 34 37 40 40 35 32 32 33 32 29 28 27 27 26 25 24 24 24 24 24 25 26 27 28 31 34 34 33 33 33 33 31 30 29 28 28 28 29 30 30 29 28 27 27 26 25 24 23 22
26 26 25 24 23 22 23 23 24 25 27 28 28 30 30 32 36 37 34 33 33 33 32 30 27 25 25 25 24 23 22 22 22 22 23 23 24 24 27 32 36 37 37 37 36 35 34 33 31 30 30 30 30 31 30 29 28 28 28 27 25 24 24
24 25 24 25 25 24 24 25 25 28 29 28 28 30 32 32 33 34 33 32 32 32 31 29 25 23 24 25 25 23 22 21 20 21 22 22 22 22 23 27 33 38 40 40 39 38 37 35 34 32 31 31 31 32 31 30 29 28 28 28 27 26 26
24 24 24 25 27 28 29 29 29 31 31 29 27 29 32 33 33 33 32 30 28 29 29 28 26 24 24 26 26 25 24 23 21 20 20 20 20 21 22 23 27 32 37 40 40 39 37 36 35 34 33 33 33 34 33 32 31 30 30 29 29 28 28
27 26 26 27 29 30 30 30 31 32 33 31 29 28 27 29 30 31 31 30 28 28 28 27 27 26 25 25 25 25 25 24 23 22 20 19 19 20 21 20 20 22 27 32 36 37 36 35 35 34 34 34 35 35 35 35 35 34 33 32 32 32 31
30 29 29 30 31 31 30 30 32 34 34 33 34 32 30 29 29 30 31 30 30 30 28 27 27 27 26 25 25 26 25 24 24 24 23 21 21 21 22 21 20 18 18 21 26 30 32 33 32 32 33 33 35 36 36 35 36 36 35 34 34 35 35
34 33 33 33 33 33 33 33 34 36 36 36 36 37 36 34 32 31 31 30 30 29 28 28 28 28 28 28 28 28 28 26 25 25 25 24 23 22 22 23 23 21 17 16 18 21 25 28 29 31 31 32 33 35 34 33 33 34 34 34 35 36 37
37 36 35 35 36 37 37 36 37 38 39 39 38 37 36 35 32 31 30 30 30 30 29 30 30 30 30 30 30 29 29 28 27 26 25 25 24 23 22 21 22 21 20 19 18 17 19 21 24 26 26 26 28 30 31 31 31 31 32 34 35 36 36
35 36 35 35 36 36 35 34 36 37 36 37 36 34 33 33 32 31 31 31 31 31 31 31 31 31 31 31 31 30 29 28 28 27 26 25 25 25 25 24 23 23 23 25 24 22 20 21 21 22 23 24 26 28 29 30 31 31 32 33 35 36 36
35 35 35 34 34 34 33 33 35 35 34 33 32 31 30 30 30 30 31 32 33 33 33 33 33 33 32 32 31 31 30 29 28 28 27 27 26 27 27 27 27 28 28 29 28 27 25 25 25 24 24 24 24 25 26 27 29 30 31 32 34 35 35
36 36 37 36 36 36 36 36 37 38 37 36 35 34 33 32 32 32 32 32 33 33 33 33 33 33 33 33 32 31 30 30 29 29 28 28 27 28 28 29 29 30 30 30 30 30 29 29 29 28 28 27 26 25 24 25 26 27 28 29 30 31 32
35 36 37 37 37 38 39 40 40 41 41 40 39 38 38 37 37 37 37 36 36 36 35 35 35 35 34 34 33 32 31 31 30 30 30 30 29 29 29 30 30 30 30 31 31 31 31 31 31 31 31 30 29 28 27 27 28 28 28 27 27 28 29
37 38 39 40 40 40 41 42 42 43 43 42 41 39 38 38 38 39 40 40 40 39 39 38 38 37 37 36 36 35 34 34 33 33 33 32 32 32 31 31 31 32 32 32 32 32 32 33 33 33 33 33 33 32 32 32 32 31 31 30 30 29 29
39 39 40 41 43 44 44 44 44 44 44 45 44 43 41 40 40 40 40 40 41 42 42 41 40 40 39 39 38 37 37 37 36 36 35 35 34 34 34 34 34 34 34 34 34 34 34 34 35 35 36 36 37 37 36 36 36 35 34 34 33 32 32
42 42 41 40 41 42 42 44 46 47 47 48 47 47 46 45 44 43 43 43 43 43 44 43 42 42 41 41 40 40 40 40 39 39 38 38 37 37 37 36 36 37 37 37 37 37 37 37 38 38 38 38 39 39 39 38 38 37 36 36 36 36 36
48 48 47 45 44 43 42 42 44 45 48 49 50 49 49 49 48 47 47 47 47 47 47 47 46 46 45 45 45 44 44 44 44 44 43 43 42 42 41 41 40 40 40 39 39 40 40 40 40 40 40 40 40 40 39 39 39 38 38 38 38 39 39
50 51 51 50 49 49 48 47 46 45 46 48 49 50 51 50 50 50 51 51 51 51 51 52 52 52 52 51 51 51 50 50 50 49 49 49 48 48 47 46 46 45 44 43 42 42 42 42 42 42 42 42 41 41 41 40 40 40 40 40 40 40 40
45 48 49 50 50 50 50 50 49 48 48 48 49 52 53 53 52 52 53 53 54 54 55 55 56 56 56 56 56 55 55 54 54 53 53 52 52 52 51 51 50 50 48 47 46 45 44 44 44 43 43 43 43 42 42 42 42 42 41 41 41 41 41
38 40 42 46 48 48 50 51 51 51 50 49 48 49 52 54 55 55 56 56 56 57 57 57 57 57 57 57 56 56 56 56 56 55 55 54 54 53 53 52 52 52 52 51 50 49 48 47 46 46 45 45 44 44 44 44 44 44 44 44 43 43 43
35 35 37 41 43 43 44 48 51 52 53 53 51 50 50 51 53 54 56 57 58 59 59 59 59 59 59 59 59 58 57 57 57 57 56 56 55 55 54 53 52 52 52 53 52 52 52 51 50 49 49 48 47 47 47 47 47 47 46 46 46 46 46

ECMWFFLT1_500_spd_123.txt.gz
Wind_Speed
25 24 23 23 23 22 22 22 22 22 23 22 22 22 23 23 22 21 19 18 17 16 16 15 15 15 15 15 15 15 14 14 14 14 15 14 14 14 13 13 12 11 11 10 9 8 7 6 5 5 4 3 4 4 4 4 3 2 2 2 2 2 3
25 25 24 23 23 23 23 23 23 23 24 24 24 24 24 24 23 22 20 19 19 18 17 16 15 15 15 15 15 15 15 15 14 14 15 15 15 14 14 14 13 12 11 10 9 8 7 6 6 5 5 5 5 5 5 4 4 3 2 1 1 1 1
26 25 24 24 24 24 24 24 24 25 25 25 25 25 25 25 24 23 22 20 20 19 18 17 16 16 16 15 15 15 16 16 15 15 14 14 14 14 14 14 13 12 11 10 9 9 8 7 7 6 6 6 6 5 5 4 4 4 3 3 2 1 1
27 26 25 25 26 26 26 25 25 26 26 26 26 26 26 26 25 24 23 21 21 20 19 18 17 17 17 17 16 16 16 16 16 16 14 14 14 14 13 13 12 11 11 10 10 9 8 8 7 7 7 6 6 5 5 4 4 4 4 4 3 3 3
28 28 27 27 27 27 26 26 26 27 27 27 27 27 27 27 26 25 24 23 22 21 21 20 19 18 18 18 18 17 17 17 17 16 15 15 15 14 14 13 12 11 11 10 10 10 9 8 8 8 7 7 7 6 6 5 5 5 5 5 5 5 4
30 28 28 27 27 27 26 26 26 27 28 28 27 26 26 27 27 26 25 24 23 22 22 21 21 20 19 19 19 18 17 17 17 17 17 17 17 16 15 14 13 12 12 11 11 11 10 10 9 9 8 8 8 7 7 7 7 7 7 6 6 6 6
32 30 29 28 28 27 27 27 27 28 29 28 28 27 26 27 27 26 26 25 24 24 23 23 22 21 21 20 19 19 18 18 18 18 18 18 18 17 16 15 14 14 14 13 13 12 12 11 11 10 9 9 9 9 8 8 8 8 8 7 7 7 6
29 32 31 30 30 29 28 29 28 28 30 29 28 27 27 26 26 26 26 26 25 25 25 24 24 22 22 21 20 19 19 19 18 18 19 18 18 18 17 17 16 16 15 15 14 14 13 13 12 11 10 10 9 9 9 9 9 9 9 9 9 8 8
21 30 33 31 31 31 30 30 30 29 30 31 29 27 26 26 25 25 26 26 26 26 26 26 25 24 23 22 21 21 20 20 20 20 19 19 19 19 19 18 18 17 17 16 16 15 14 14 13 13 12 11 10 10 10 10 10 10 10 10 10 9 9
14 23 32 33 32 32 31 32 32 31 31 31 30 28 28 28 26 26 26 27 27 27 27 27 26 25 24 23 22 22 21 21 21 21 20 20 20 20 19 19 19 19 18 18 17 16 16 15 14 14 13 12 11 11 11 11 11 11 11 11 11 11 10
11 16 27 33 32 31 32 33 33 32 31 31 30 29 29 29 27 26 26 27 27 27 27 27 27 26 25 24 23 22 22 22 21 21 21 21 21 20 20 20 19 19 19 19 18 17 17 16 16 15 14 13 12 12 12 12 12 11 11 11 11 11 11
12 13 21 29 30 30 32 33 32 32 31 31 31 30 30 29 28 27 27 26 27 27 27 27 27 27 26 25 25 24 23 23 22 22 22 22 22 21 21 21 20 20 20 20 19 19 19 18 17 16 15 14 14 13 13 13 12 12 12 12 12 12 11
14 13 16 21 25 27 30 32 32 33 33 33 32 31 30 30 28 27 27 27 27 27 27 27 27 27 27 27 26 26 25 24 24 24 23 23 23 22 23 22 22 22 22 21 21 21 20 20 19 18 17 16 15 14 14 14 13 13 12 12 12 12 12
17 16 15 15 17 20 23 28 33 35 35 34 33 32 31 31 30 28 28 28 28 27 27 27 28 28 28 28 28 27 27 26 25 25 25 24 24 24 23 23 23 23 23 23 23 22 22 22 21 20 19 18 17 16 15 15 14 13 13 12 12 12 13
17 17 17 16 15 16 16 19 26 33 36 37 36 35 34 33 31 30 29 29 29 28 27 28 29 30 30 29 29 28 28 27 27 26 26 26 25 25 24 24 24 24 24 24 24 24 24 24 23 22 21 20 19 18 18 17 16 15 14 13 13 13 13
17 16 17 17 17 17 17 16 17 23 31 38 39 37 36 34 32 32 32 32 30 29 29 29 30 31 31 31 30 29 28 27 27 27 26 26 26 26 26 25 25 25 25 25 25 25 25 25 25 24 23 22 21 20 20 20 19 17 16 15 15 14 14
16 15 15 15 16 17 18 18 17 17 23 34 41 39 37 36 35 34 34 34 33 32 31 31 31 32 32 32 32 31 29 28 28 28 27 27 27 27 27 27 26 26 26 26 26 26 26 26 26 25 25 24 23 22 23 23 21 19 19 18 17 17 17
16 15 14 14 15 16 17 17 17 15 15 25 37 40 38 37 37 37 37 35 34 35 34 34 34 34 33 33 32 31 31 30 29 28 28 28 27 27 27 27 27 27 27 27 27 27 27 27 27 26 26 26 25 25 26 25 23 22 22 21 20 20 20
18 17 15 14 15 16 17 15 16 16 14 15 25 33 37 39 39 38 37 37 36 37 37 36 36 35 34 33 33 32 32 31 30 28 27 27 27 27 27 27 27 28 28 27 27 27 28 28 27 27 28 27 27 29 29 26 24 25 25 24 23 22 22
22 20 18 17 17 18 18 18 17 18 17 14 17 23 29 37 43 42 39 38 39 39 39 39 38 36 33 33 34 33 32 32 30 28 27 27 27 27 27 27 28 29 29 28 28 28 28 28 28 28 28 29 29 31 30 26 25 27 27 26 26 24 24
26 24 23 22 21 21 21 21 19 18 18 18 18 18 20 28 40 46 43 40 40 41 41 41 40 36 33 33 34 34 32 32 30 29 29 29 29 28 28 29 29 30 30 29 29 30 30 29 30 29 30 31 32 32 31 28 28 28 28 28 28 26 25
29 28 27 26 25 25 24 23 21 20 19 19 20 19 18 20 28 38 39 38 39 42 45 44 41 38 37 36 36 35 33 33 32 32 32 31 31 31 31 31 31 31 31 30 30 30 31 31 32 31 31 33 33 31 31 32 32 31 30 30 28 28 27
31 31 31 30 29 28 26 25 23 22 21 22 22 22 22 21 22 26 30 31 32 37 43 47 44 41 40 40 38 37 37 36 36 35 34 34 34 35 34 33 32 32 31 31 30 29 28 29 30 30 31 33 33 31 32 36 37 35 33 31 30 30 29
32 32 33 34 33 31 29 28 27 26 24 24 24 25 25 24 23 24 26 28 27 29 35 43 45 43 42 42 40 39 40 40 39 38 37 36 35 35 35 34 33 32 32 30 29 27 26 26 28 28 28 30 30 29 31 36 39 38 36 35 34 34 33
34 34 34 35 35 35 33 31 31 31 29 27 27 28 27 27 26 26 24 23 22 22 25 33 41 44 44 44 44 43 43 44 43 42 40 38 34 33 33 33 32 32 32 30 29 28 28 27 27 26 27 26 26 27 30 35 39 39 37 37 37 37 36
36 36 36 36 37 37 37 35 34 35 34 32 30 30 30 29 30 30 27 22 19 18 18 22 28 35 40 42 45 46 47 46 46 45 44 42 38 34 33 33 32 32 32 30 29 28 28 27 27 26 26 25 24 25 26 28 32 36 37 36 36 36 36
39 40 40 39 38 38 38 36 35 37 37 36 35 34 33 32 31 31 32 30 27 25 24 22 20 22 27 32 36 42 47 49 48 47 45 43 40 36 34 34 34 33 32 31 30 29 29 28 28 27 26 27 28 28 24 21 21 26 31 33 34 34 35
40 41 41 39 39 40 38 35 35 36 36 37 37 36 35 36 35 34 36 35 34 32 31 29 25 23 23 24 24 28 35 41 42 40 38 36 36 35 34 34 34 33 33 32 32 32 31 30 30 29 28 28 30 31 29 25 21 20 21 25 29 31 33
39 39 40 40 40 40 39 38 37 36 35 36 36 35 34 35 35 36 36 36 35 35 34 33 32 31 30 28 24 22 23 25 28 29 29 30 31 32 33 33 33 33 32 32 32 32 32 32 32 31 30 30 29 29 28 27 24 21 19 20 22 24 26
36 37 38 39 39 37 37 38 39 37 36 37 38 38 38 37 35 34 34 33 33 34 34 33 33 33 32 31 29 27 25 25 26 27 27 29 30 31 32 33 34 33 33 32 32 33 33 33 33 32 32 32 31 30 29 28 27 26 24 23 23 23 24
36 36 37 39 39 39 38 39 40 38 38 39 39 39 40 40 38 37 36 35 35 35 33 32 31 32 33 34 34 34 34 34 34 33 31 30 31 31 31 33 33 33 33 34 34 34 35 34 34 33 33 33 33 33 32 31 31 31 29 29 28 28 28
36 37 37 38 39 39 40 41 42 41 42 42 42 42 42 42 41 40 39 39 39 37 33 30 29 30 32 35 35 35 36 36 36 35 33 32 31 30 30 32 32 32 33 34 34 35 36 36 36 35 35 34 34 34 34 34 33 32 31 31 31 31 30
37 37 38 39 39 39 40 41 42 42 42 43 43 43 43 43 42 41 40 39 38 36 32 29 28 28 29 31 32 33 33 34 34 33 33 32 32 32 32 33 33 33 34 34 35 35 36 36 37 37 37 37 36 36 36 35 34 33 33 33 33 32 32
39 38 37 38 39 41 42 42 43 43 43 43 43 43 42 42 41 41 41 40 38 36 33 31 30 29 29 30 32 32 32 33 33 33 33 33 33 33 33 33 34 34 35 35 36 37 37 37 38 38 39 39 38 38 37 36 34 33 35 35 34 34 34
41 39 38 38 38 39 41 43 44 45 44 44 44 44 44 44 43 42 41 40 39 37 35 34 32 31 31 31 32 32 32 32 33 33 33 33 33 32 32 34 35 35 35 36 37 38 38 39 39 40 40 40 39 39 39 37 35 35 36 36 35 36 36
43 42 41 41 40 39 41 43 43 43 44 44 43 43 44 45 45 44 42 41 40 39 38 37 36 34 34 33 33 34 34 34 34 34 35 35 34 34 35 36 36 36 37 38 39 39 39 40 40 41 41 41 40 41 41 40 38 37 37 37 37 38 38
45 44 43 44 44 41 41 44 46 44 43 44 43 42 43 44 45 45 45 44 43 43 42 42 41 39 38 36 36 36 36 36 36 37 37 37 36 37 38 39 39 39 39 40 41 41 41 41 42 42 42 42 41 42 43 42 41 41 40 40 40 41 41
46 45 45 46 47 42 38 41 47 48 47 46 45 43 43 44 45 46 46 46 46 46 45 45 45 45 44 42 41 40 39 39 39 40 40 40 40 40 40 41 41 41 41 42 43 43 43 43 44 44 44 44 44 44 45 45 45 44 44 45 45 45 45